     2.10           OBSERVATION DATA    G (GPS)             RINEX VERSION / TYPE
teqc 2005May6 SOPAC 20050707 00:29:32UTC                    PGM / RUN BY / DATE
Linux 2.4.20-8|Pentium IV|gcc|Linux|486/DX+                 COMMENT
BIT 2 OF LLI FLAGS DATA COLLECTED UNDER A/S CONDITION       COMMENT
HPGN CA 02 12                                               MARKER NAME
0212                                                        MARKER NUMBER
Terry Goff                                                  OBSERVER / AGENCY
0220298044 TRIMBLE 5700 2.01                                REC # / TYPE / VERS
12399200 TRM41249.00 NONE                                   ANT # / TYPE
 -2587321.0000 -4071476.0000  4159092.0000                  APPROX POSITION XYZ
        2.0000        0.0000        0.0000                  ANTENNA: DELTA H/E/N
     1     1                                                WAVELENGTH FACT L1/2
     6    L1    L2    C1    P2    P1    D1                  # / TYPES OF OBSERV
    15.0000                                                 INTERVAL
Northern California Height Modernization 2004               COMMENT
                                                            COMMENT
SOPAC - Scripps Orbit and Permanent Array Center            COMMENT
IGPP - Institute of Geophysics and Planetary Physics        COMMENT
SIO - Scripps Institution of Oceanography                   COMMENT
UCSD - University of California, San Diego                  COMMENT
                                                            COMMENT
email: archive@gpsmail.ucsd.edu                             COMMENT
ftp://garner.ucsd.edu                                       COMMENT
http://sopac.ucsd.edu                                       COMMENT
                                                            COMMENT
                                                            COMMENT
Approximate Lat, Lon : 40.957, -122.435                     COMMENT
                                                            COMMENT
SNR is mapped to RINEX snr flag value [0-9]                 COMMENT
L1 & L2: 2-19 dBHz = 1, 20-27 dBHz = 2, 28-31 dBHz = 3      COMMENT
32-35 dBHz = 4, 36-38 dBHz = 5, 39-41 dBHz = 6              COMMENT
42-44 dBHz = 7, 45-48 dBHz = 8, >= 49 dBHz = 9              COMMENT
  2004     9     9    20    51   30.0000000     GPS         TIME OF FIRST OBS
                                                            END OF HEADER
 04  9  9 20 51 30.0000000  0  6G 3G16G 8G13G23G27
   -582676.03157   -454614.80953  23250956.2274   23250957.3484

    557260.30557    426388.80952  23708059.3914   23708058.3204

  -1007989.36358   -760943.53153  23139100.9924   23139101.6414

   -364044.25859   -282162.23457  20213120.4924   20213118.8914

    339541.42659    254728.54756  21246294.1094   21246290.4184

   -662225.17659   -511169.91456  21591607.6724   21591606.8484

 04  9  9 20 51 45.0000000  0  6G 3G16G 8G13G23G27
   -617800.51647   -481984.52342  23244272.6414   23244273.0514
      2341.6324
    591154.40647    452799.74642  23714509.3134   23714507.9494
     -2259.6074
  -1061747.76648   -802833.14543  23128870.9614   23128871.5394
      3583.8934
   -382961.11749   -296902.64547  20209520.6884   20209518.8244
      1261.1244
    357607.27349    268805.80146  21249731.8364   21249728.3634
     -1204.3904
   -697426.28949   -538599.34445  21584908.9774   21584908.1484
      2346.7414
 04  9  9 20 52  0.0000000  0  6G 3G16G 8G13G23G27
   -652870.70347   -509311.94542  23237598.7274   23237599.8244
      2338.0134
    625049.38347    479211.38342  23720959.3134   23720958.4844
     -2259.6654
  -1115525.97348   -844738.19143  23118637.0704   23118637.9574
      3585.2144
   -401832.87149   -311607.90647  20205929.5004   20205927.6724
      1258.1174
    375704.97349    282907.88346  21253175.9694   21253172.4224
     -1206.5134
   -732640.36349   -566038.87545  21578208.1644   21578206.8914
      2347.6054
 04  9  9 20 52 15.0000000  0  6G 3G16G 8G13G23G27
   -687888.20747   -536598.28142  23230935.1804   23230936.2234
      2334.5004
    658943.02747    505621.98442  23727409.0314   23727408.0514
     -2259.5764
  -1169325.80948   -886660.11743  23108399.6094   23108400.5704
      3586.6564
   -420661.34849   -326279.44147  20202346.9304   20202344.6214
      1255.2324
    393832.71949    297033.36745  21256625.2194   21256621.8134
     -1208.5164
   -767869.10949   -593489.85545  21571504.2664   21571503.1484
      2348.5834
 04  9  9 20 52 30.0000000  0  6G 3G16G 8G13G23G27
   -722853.21147   -563843.71942  23224281.5554   23224282.6914
      2331.0004
    692834.56647    532030.92642  23733857.5864   23733857.0984
     -2259.4364
  -1223147.85548   -928599.32843  23098156.9454   23098158.0124
      3588.1364
   -439446.92649   -340917.55947  20198771.8204   20198769.8754
      1252.3724
    411989.69149    311181.62946  21260080.7194   21260077.4804
     -1210.4654
   -803113.26249   -620952.81646  21564797.5164   21564796.2384
      2349.6104
 04  9  9 20 52 45.0000000  0  6G 3G16G 8G13G23G27
   -757763.16847   -591046.27742  23217638.5634   23217639.7304
      2327.3304
    726725.78547    558439.62942  23740307.6954   23740306.0704
     -2259.4154
  -1276989.83248   -970554.04743  23087910.9924   23087912.2624
      3589.4654
   -458187.25449   -355520.40647  20195206.0784   20195203.3484
      1249.3554
    430178.08649    325354.38346  21263541.9844   21263538.5274
     -1212.5604
   -838370.64149   -648426.10245  21558088.2664   21558087.2734
      2350.4924
 04  9  9 20 53  0.0000000  0  6G 3G16G 8G13G23G27
   -792616.00447   -618204.29342  23211005.8754   23211007.3594
      2323.5224
    760618.21547    584849.28142  23746757.2734   23746755.7734
     -2259.4954
  -1330849.88348  -1012522.87543  23077662.0864   23077662.9844
      3590.6704
   -476880.28149   -370086.40247  20191648.6564   20191646.1024
      1246.2024
    448399.77049    339553.06346  21267009.4774   21267005.5744
     -1214.7794
   -873639.39149   -675908.22345  21551377.0944   21551375.5274
      2351.2504
 04  9  9 20 53 15.0000000  0  6G 3G16G 8G13G23G27
   -827411.62947   -645317.77342  23204384.7274   23204385.7464
      2319.7084
    794511.41046    611259.52042  23753206.6884   23753205.7624
     -2259.5464
  -1384728.10248  -1054505.85243  23067409.5474   23067410.2854
      3591.8814
   -495525.99249   -384615.52747  20188100.7424   20188098.2624
      1243.0474
    466654.51649    353777.51246  21270483.1884   21270479.6174
     -1216.9834
   -908919.54749   -703399.24645  21544663.1484   21544662.2704
      2352.0104
 04  9  9 20 53 30.0000000  0  6G 3G16G 8G13G23G27
   -862148.15647   -672385.18442  23197774.4224   23197775.6844
      2315.7684
    828406.67247    637671.36742  23759656.6884   23759656.1484
     -2259.6844
  -1438622.78948  -1096501.66843  23057153.7974   23057154.2424
      3592.9794
   -514122.79749   -399106.54747  20184561.4844   20184558.8834
      1239.7874
    484943.77349    368028.86746  21273963.5704   21273960.0004
     -1219.2844
   -944209.65649   -730898.02745  21537947.5004   21537946.5204
      2352.6744
 04  9  9 20 53 45.0000000  0  6G 3G16G 8G13G23G27
   -896827.47347   -699407.99242  23191175.5704   23191176.0204
      2311.9544
    862301.44546    664082.84042  23766106.5474   23766105.4344
     -2259.6524
  -1492535.89148  -1138511.82043  23046893.8594   23046894.9884
      3594.2074
   -532672.72349   -413561.03547  20181031.7664   20181029.1374
      1236.6624
    503265.28149    382305.34046  21277450.1254   21277446.7814
     -1221.4344
   -979511.84049   -758406.20745  21531229.9304   21531228.9734
      2353.4794
 04  9  9 20 54  0.0000000  0  6G 3G16G 8G13G23G27
   -931447.73447   -726384.81242  23184587.2274   23184587.9144
      2308.0174
    896197.05146    690494.95742  23772557.4534   23772555.9924
     -2259.7074
  -1546465.98848  -1180535.25843  23036631.0944   23036632.0124
      3595.3404
   -551173.97349   -427977.58247  20177510.9064   20177508.7194
      1233.4174
    521620.53149    396608.10546  21280942.9144   21280939.6524
     -1223.6834
  -1014824.54349   -785922.59046  21524509.9614   21524509.4574
      2354.1804
 04  9  9 20 54 15.0000000  0  6G 3G16G 8G13G23G27
   -966005.58647   -753312.98842  23178010.4144   23178011.3524
      2303.8574
    930096.21146    716909.85942  23779007.7504   23779006.6524
     -2259.9444
  -1600409.92648  -1222569.44543  23026366.1644   23026366.8284
      3596.2624
   -569623.25049   -442353.65247  20174000.1884   20173997.6994
      1229.9524
    540012.56649    410939.53946  21284442.7504   21284439.1484
     -1226.1364
  -1050144.73849   -813444.80946  21517788.8134   21517787.7424
      2354.6804
 04  9  9 20 54 30.0000000  0  6G 3G16G 8G13G23G27
  -1000502.43747   -780193.65242  23171446.3984   23171447.2234
      2299.7904
    963996.85246    743325.88742  23785458.9144   23785458.0234
     -2260.0434
  -1654369.44148  -1264615.77743  23016097.8444   23016098.5434
      3597.3014
   -588022.23449   -456690.51647  20170499.1334   20170496.6684
      1226.5994
    558439.59049    425298.23445  21287949.5234   21287945.9694
     -1228.4684
  -1085474.17249   -840974.21545  21511065.7974   21511064.9494
      2355.2964
 04  9  9 20 54 45.0000000  0  6G 3G16G 8G13G23G27
  -1034936.53947   -807025.41042  23164894.2584   23164894.4774
      2295.6074
    997900.17246    769744.02342  23791910.8054   23791909.3244
     -2260.2214
  -1708342.97748  -1306673.03543  23005827.0234   23005827.9734
      3598.2364
   -606369.34049   -470986.96947  20167007.7034   20167005.3094
      1223.1404
    576902.92249    439685.21945  21291463.2424   21291459.5984
     -1230.8894
  -1120811.28949   -868509.63346  21504341.5864   21504340.6254
      2355.8084
 04  9  9 20 55  0.0000000  0  6G 3G16G 8G13G23G27
  -1069307.98047   -833808.34842  23158352.6414   23158353.9184
      2291.4294
   1031805.60946    796163.80542  23798362.5084   23798361.4184
     -2260.3624
  -1762330.94948  -1348741.54743  22995553.9144   22995554.3014
      3599.1984
   -624664.58249   -485243.00447  20163526.4224   20163523.9494
      1219.6834
    595402.32449    454100.31345  21294983.4454   21294979.5474
     -1233.2934
  -1156156.48849   -896051.32846  21497615.4224   21497614.4144
      2356.3474
 04  9  9 20 55 15.0000000  0  6G 3G16G 8G13G23G27
  -1103616.50047   -860542.22742  23151824.2504   23151824.8634
      2287.2354
   1065712.69547    822584.85242  23804814.3594   23804813.3634
     -2260.4724
  -1816333.07848  -1390821.07443  22985277.0634   22985276.9184
      3600.1424
   -642907.99649   -499458.64546  20160054.5944   20160052.3284
      1216.2284
    613937.55149    468543.32845  21298510.3594   21298506.8484
     -1235.6824
  -1191509.84849   -923599.39546  21490887.8594   21490887.2504
      2356.8914
 04  9  9 20 55 30.0000000  0  6G 3G16G 8G13G23G27
  -1137859.38347   -887224.98042  23145307.4064   23145308.5394
      2282.8594
   1099623.64146    849008.92642  23811267.0474   23811266.8984
     -2260.7304
  -1870347.14148  -1432909.92243  22974999.1644   22974998.9184
      3600.9384
   -661096.87149   -513631.80547  20156593.3364   20156590.7304
      1212.5924
    632511.08649    483016.18445  21302044.7664   21302041.0124
     -1238.2364
  -1226869.01649   -951151.97746  21484159.6254   21484158.2894
      2357.2784
 04  9  9 20 55 45.0000000  0  6G 3G16G 8G13G23G27
  -1172038.23047   -913857.85942  23138804.3914   23138804.9384
      2278.5904
   1133536.14146    875434.21142  23817720.7194   23817720.2424
     -2260.8334
  -1924374.57448  -1475009.18443  22964717.5634   22964718.0784
      3601.8294
   -679233.14149   -527763.95747  20153142.3134   20153139.6564
      1209.0854
    651120.87549    497517.29745  21305586.0784   21305582.2194
     -1240.6534
  -1262235.68749   -978710.40646  21477429.2814   21477428.4964
      2357.7784
 04  9  9 20 56  0.0000000  0  6G 3G16G 8G13G23G27
  -1206151.50047   -940439.60242  23132312.1254   23132312.6174
      2274.2184
   1167451.19146    901861.49642  23824174.9224   23824174.0354
     -2261.0034
  -1978414.17248  -1517117.92243  22954434.2734   22954434.9804
      3602.6404
   -697315.34849   -541853.99246  20149701.1644   20149698.6374
      1205.4804
    669768.14849    512047.61746  21309134.6884   21309130.9344
     -1243.1524
  -1297608.76649  -1006273.84446  21470697.9614   21470697.5204
      2358.2054
 04  9  9 20 56 15.0000000  0  6G 3G16G 8G13G23G27
  -1240198.08647   -966969.39542  23125833.3284   23125833.9454
      2269.7724
   1201369.41046    928291.23442  23830629.2894   23830628.6024
     -2261.2154
  -2032465.26248  -1559235.60243  22944148.6254   22944149.1454
      3603.4064
   -715342.39149   -555901.03547  20146270.5634   20146268.3524
      1201.8034
    688453.71949    526607.77345  21312690.4924   21312686.8364
     -1245.7054
  -1332987.26649  -1033841.48046  21463965.8834   21463965.0004
      2358.5674
 04  9  9 20 56 30.0000000  0  6G 3G16G 8G13G23G27
  -1274177.21147   -993446.63742  23119368.2894   23119367.6604
      2265.2754
   1235290.90646    954723.52042  23837084.4534   23837084.1684
     -2261.4334
  -2086527.22748  -1601361.77343  22933861.0554   22933861.2074
      3604.1314
   -733313.73049   -569904.68047  20142850.9144   20142848.8204
      1198.0894
    707178.06649    541198.16045  21316253.5704   21316250.4804
     -1248.2904
  -1368370.85949  -1061413.10946  21457232.3984   21457231.7344
      2358.9064
 04  9  9 20 56 45.0000000  0  6G 3G16G 8G13G23G27
  -1308089.52747  -1019871.80942  23112914.4384   23112915.1024
      2260.8214
   1269214.43447    981157.38342  23843540.3674   23843538.5394
     -2261.5684
  -2140601.02748  -1643497.16043  22923571.2584   22923571.7584
      3604.9204
   -751230.07449   -583865.46146  20139441.7274   20139439.5164
      1194.4234
    725940.02049    555817.83245  21319823.6024   21319820.5274
     -1250.7974
  -1403760.35949  -1088989.34046  21450498.2344   21450497.3834
      2359.3004
 04  9  9 20 57  0.0000000  0  6G 3G16G 8G13G23G27
  -1341932.32847  -1046242.81643  23106474.5784   23106474.9264
      2256.1874
   1303142.18847   1007594.57842  23849996.3674   23849995.5514
     -2261.8504
  -2194683.94548  -1685639.64143  22913278.9064   22913279.8324
      3605.5284
   -769088.85949   -597781.40247  20136043.3594   20136041.1024
      1190.5864
    744741.95349    570468.66046  21323401.9694   21323397.8914
     -1253.4624
  -1439153.44549  -1116568.34846  21443763.1884   21443762.2034
      2359.5394
 04  9  9 20 57 15.0000000  0  6G 3G16G 8G13G23G27
  -1375708.26647  -1072561.71143  23100047.0164   23100047.8094
      2251.7294
   1337070.75846   1034032.39142  23856452.1804   23856451.6054
     -2261.9054
  -2248779.00048  -1727791.59843  22902985.7664   22902985.6134
      3606.3374
   -786892.90649   -611654.68447  20132655.3134   20132653.1414
      1186.9364
    763580.86349    585148.30145  21326986.7114   21326982.9344
     -1255.9274
  -1474553.05949  -1144152.45746  21437026.7034   21437026.1764
      2359.9744
 04  9  9 20 57 30.0000000  0  6G 3G16G 8G13G23G27
  -1409413.43048  -1098825.46542  23093633.6644   23093633.2234
      2247.0114
   1371003.53945   1060473.48842  23862909.3984   23862908.8714
     -2262.1854
  -2302882.68448  -1769950.28543  22892689.3444   22892689.5274
      3606.9124
   -804638.42249   -625482.35947  20129278.1254   20129276.3954
      1183.0344
    782460.28149    599859.52045  21330579.3594   21330575.3754
     -1258.6284
  -1509955.47349  -1171738.74646  21430289.9694   21430288.8794
      2360.1614
 04  9  9 20 57 45.0000000  0  6G 3G16G 8G13G23G27
  -1443047.62147  -1125033.93442  23087232.6884   23087232.9384
      2242.2794
   1404940.26646   1086917.64142  23869368.2194   23869366.6764
     -2262.4484
  -2356994.73448  -1812115.49643  22882392.5234   22882392.9414
      3607.4704
   -822325.36749   -639264.39547  20125912.5704   20125910.6334
      1179.1304
    801380.06649    614602.18445  21334179.8524   21334175.6484
     -1261.3194
  -1545360.87149  -1199327.35246  21423552.7584   21423551.5434
      2360.3604
 04  9  9 20 58  0.0000000  0  6G 3G16G 8G13G23G27
  -1476609.70347  -1151186.19142  23080845.9694   23080846.1374
      2237.4724
   1438881.46546   1113365.30942  23875825.9064   23875825.0124
     -2262.7474
  -2411114.33248  -1854286.57043  22872093.4384   22872094.2704
      3607.9734
   -839952.62549   -652999.92247  20122558.3054   20122555.9734
      1175.1514
    820341.13749    629377.02045  21337787.6564   21337784.2504
     -1264.0714
  -1580768.31649  -1226917.56646  21416814.7034   21416813.3634
      2360.4964
 04  9  9 20 58 15.0000000  0  6G 3G16G 8G13G23G27
  -1510100.55947  -1177282.96542  23074472.7504   23074473.3954
      2232.7244
   1472825.57846   1139815.21942  23882286.4924   23882284.9494
     -2262.9414
  -2465242.43748  -1896464.28943  22861793.9534   22861794.0984
      3608.5404
   -857521.34449   -666689.83647  20119215.3364   20119212.8524
      1171.2484
    839342.25849    644183.07045  21341403.5084   21341399.8554
     -1266.7414
  -1616178.91049  -1254510.21946  21410076.5164   21410074.8714
      2360.7064
 04  9  9 20 58 30.0000000  0  6G 3G16G 8G13G23G27
  -1543519.52047  -1203323.69542  23068114.1414   23068114.2704
      2227.9314
   1506772.65646   1166267.43442  23888745.9534   23888745.3404
     -2263.1394
  -2519378.71948  -1938648.36343  22851492.3754   22851492.2344
      3609.0854
   -875030.96549   -680333.69147  20115883.0084   20115881.1914
      1167.3084
    858383.71949    659020.54745  21345027.1484   21345023.5234
     -1269.4314
  -1651592.43449  -1282105.16446  21403337.4844   21403336.4024
      2360.9024
 04  9  9 20 58 45.0000000  0  6G 3G16G 8G13G23G27
  -1576863.73047  -1229306.18442  23061768.5474   23061768.9734
      2222.9474
   1540725.21546   1192723.98442  23895206.8674   23895205.8984
     -2263.5044
  -2573520.35548  -1980836.62543  22841189.4454   22841189.2544
      3609.4424
   -892478.55949   -693929.21947  20112562.8984   20112560.9734
      1163.1734
    877468.19149    673891.54345  21348658.8984   21348654.6844
     -1272.2984
  -1687006.00849  -1309700.16446  21396598.2664   21396597.0784
      2360.9054
 04  9  9 20 59  0.0000000  0  6G 3G16G 8G13G23G27
  -1610135.09847  -1255231.90642  23055436.9844   23055437.5084
      2218.0914
   1574680.73047   1219182.78142  23901668.9454   23901666.9184
     -2263.7014
  -2627669.80548  -2023030.95743  22830884.2034   22830884.7504
      3609.9634
   -909866.17249   -707478.00447  20109254.0234   20109251.9024
      1159.1744
    896593.34449    688794.23445  21352298.0554   21352294.6294
     -1275.0104
  -1722422.03549  -1337297.05546  21389858.6254   21389857.9144
      2361.0684
 04  9  9 20 59 15.0000000  0  6G 3G16G 8G13G23G27
  -1643332.79747  -1281100.24642  23049119.6174   23049120.1454
      2213.1804
   1608639.41046   1245644.07042  23908131.3284   23908129.8634
     -2263.9124
  -2681826.18748  -2065230.71143  22820579.6334   22820579.1524
      3610.4264
   -927193.09849   -720979.51247  20105957.0944   20105954.6174
      1155.1284
    915759.63349    703728.98045  21355945.4614   21355941.8094
     -1277.7534
  -1757839.76649  -1364895.27046  21383119.0004   21383117.4884
      2361.1824
 04  9  9 20 59 30.0000000  0  6G 3G16G 8G13G23G27
  -1676455.25847  -1306909.94543  23042817.0554   23042816.9304
      2208.1644
   1642602.25846   1272108.58242  23914594.0394   23914593.4734
     -2264.1904
  -2735988.34048  -2107434.96143  22810272.6484   22810272.8834
      3610.8104
   -944458.02049   -734432.69547  20102671.5554   20102669.3914
      1150.9954
    934968.23848    718696.69945  21359600.5864   21359597.1564
     -1280.5744
  -1793258.11749  -1392493.97346  21376379.2734   21376378.0594
      2361.2234
 04  9  9 20 59 45.0000000  0  6G 3G16G 8G13G23G27
  -1709501.68047  -1332660.39842  23036527.7734   23036528.2504
      2203.0954
   1676569.46547   1298576.49642  23921057.7114   23921056.9574
     -2264.4804
  -2790155.51648  -2149643.11743  22799964.9064   22799965.3054
      3611.1454
   -961660.29749   -747837.06647  20099397.9144   20099395.6094
      1146.8184
    954219.56649    733697.70745  21363264.1804   21363260.5784
     -1283.4224
  -1828676.49249  -1420092.69546  21369639.0784   21369638.1604
      2361.2254
 04  9  9 21  0  0.0000000  0  6G 3G16G 8G13G23G27
  -1742471.39147  -1358351.06642  23030254.3674   23030254.6484
      2197.9814
   1710541.16447   1325047.91442  23927522.3284   23927520.9964
     -2264.7804
  -2844327.11748  -2191854.72343  22789656.5864   22789656.3244
      3611.4404
   -978799.30149   -761192.14547  20096136.4774   20096134.1294
      1142.6004
    973513.96149    748732.27345  21366935.8834   21366932.0904
     -1286.2934
  -1864094.48449  -1447691.12146  21362899.5084   21362898.1914
      2361.1994
 04  9  9 21  0 15.0000000  0  6G 3G16G 8G13G23G27
  -1775366.23047  -1383983.39542  23023994.1094   23023994.6214
      2192.9894
   1744514.94546   1351520.93442  23933987.2274   23933986.4494
     -2264.9194
  -2898505.39848  -2234071.53543  22779346.5164   22779346.5744
      3611.8854
   -995876.96149   -774499.40246  20092886.9304   20092884.9184
      1138.5114
    992849.35249    763798.78945  21370615.3134   21370611.8244
     -1289.0264
  -1899514.12949  -1475290.84445  21356159.1024   21356158.3914
      2361.3104
 04  9  9 21  0 30.0000000  0  7G 3G16G 8G13G19G23G27
  -1808185.67246  -1409556.97342  23017748.8284   23017749.6804
      2187.9634
   1778490.69946   1377995.51242  23940452.3054   23940452.5664
     -2265.0504
  -2952689.96548  -2276293.24243  22769035.4224   22769035.2584
      3612.3044
  -1012892.99249   -787758.66046  20089648.7584   20089646.6374
      1134.4024
   -134136.89856   -103033.35252  24055956.6954   24055955.2304

   1012225.81349    778897.30545  21374302.5704   21374298.7704
     -1291.7644
  -1934935.32849  -1502891.75845  21349418.5474   21349417.7034
      2361.4134
 04  9  9 21  0 45.0000000  0  7G 3G16G 8G13G19G23G27
  -1840927.49246  -1435070.07442  23011518.4614   23011519.0354
      2182.7884
   1812470.14146   1404472.94942  23946918.3524   23946918.6524
     -2265.2964
  -3006878.88748  -2318518.35543  22758723.6414   22758723.5084
      3612.5954
  -1029845.28149   -800968.23447  20086422.8594   20086420.8524
      1130.1534
   -189730.73446   -146353.16042  24045376.9304   24045376.5984
      3706.2564
   1031645.23449    794029.30145  21377998.2584   21377994.4384
     -1294.6284
  -1970355.93749  -1530492.22346  21342678.3594   21342677.4064
      2361.3744
 04  9  9 21  1  0.0000000  0  7G 3G16G 8G13G19G23G27
  -1873591.70347  -1460522.68442  23005302.4614   23005303.3674
      2177.6144
   1846452.71946   1430952.82442  23953385.2344   23953385.2344
     -2265.5054
  -3061072.35948  -2360747.00843  22748411.2734   22748410.2234
      3612.8984
  -1046733.92649   -814128.21947  20083209.2584   20083207.3054
      1125.9104
   -245330.87546   -189677.91442  24034797.7584   24034795.9494
      3706.6764
   1051107.41449    809194.60945  21381701.0004   21381697.9064
     -1297.4794
  -2005776.32849  -1558092.52046  21335937.8524   21335937.4654
      2361.3594
 04  9  9 21  1 15.0000000  0  7G 3G16G 8G13G19G23G27
  -1906180.66447  -1485916.68042  22999101.8134   22999101.8914
      2172.5974
   1880435.44946   1457432.83242  23959851.8444   23959852.1524
     -2265.5154
  -3115272.91448  -2402981.16843  22738096.4774   22738096.7194
      3613.3704
  -1063561.35549   -827240.51247  20080006.9064   20080005.2974
      1121.8294
   -300939.65646   -233009.34442  24024215.3984   24024214.3794
      3707.2524
   1070609.54749    824391.05545  21385412.6094   21385408.9884
     -1300.1424
  -2041199.12149  -1585694.68746  21329197.3444   21329196.5594
      2361.5204
 04  9  9 21  1 30.0000000  0  7G 3G16G 8G13G19G23G27
  -1938693.80547  -1511251.58242  22992914.7424   22992914.0784
      2167.5434
   1914418.45346   1483913.03142  23966318.0864   23966318.5824
     -2265.5344
  -3169480.22348  -2445220.59443  22727781.5944   22727781.9804
      3613.8214
  -1080327.21549   -840304.81647  20076816.8134   20076814.4264
      1117.7244
   -356556.36746   -276347.02342  24013632.1414   24013630.0784
      3707.7814
   1090151.78149    839618.75445  21389131.0084   21389127.8554
     -1302.8164
  -2076623.98049  -1613298.46146  21322456.4144   21322455.6254
      2361.6574
 04  9  9 21  1 45.0000000  0  7G 3G16G 8G13G19G23G27
  -1971130.29347  -1536526.74242  22986741.7814   22986741.3714
      2162.4334
   1948402.01647   1510393.68442  23972785.9384   23972785.7384
     -2265.5714
  -3223693.62548  -2487464.77343  22717464.7974   22717465.2464
      3614.2274
  -1097030.68449   -853320.50046  20073638.1724   20073635.7274
      1113.5654
   -412179.98846   -319690.04742  24003046.9774   24003044.5904
      3708.2414
   1109734.70349    854878.15645  21392857.5864   21392854.4534
     -1305.5284
  -2112050.23849  -1640903.33246  21315715.1254   21315714.3094
      2361.7514
 04  9  9 21  2  0.0000000  0  7G 3G16G 8G13G19G23G27
  -2003487.50847  -1561740.14542  22980584.5554   22980583.9384
      2157.1484
   1982388.15645   1536876.37142  23979252.0944   23979252.9844
     -2265.7434
  -3277910.72748  -2529711.83243  22707147.9304   22707147.4614
      3614.4734
  -1113669.16449   -866285.55547  20070471.7894   20070469.3014
      1109.2324
   -467807.73446   -363036.29742  23992461.2734   23992459.5904
      3708.5164
   1129360.61748    870171.05945  21396592.3284   21396589.1564
     -1308.3944
  -2147475.67649  -1668507.55546  21308973.7034   21308972.8984
      2361.6964
 04  9  9 21  2 15.0000000  0  7G 3G16G 8G13G19G23G27
  -2035765.43047  -1586891.75842  22974442.8134   22974442.4774
      2151.8614
   2016376.34846   1563360.60942  23985720.4774   23985720.9844
     -2265.8794
  -3332131.62148  -2571961.86343  22696829.6804   22696829.9224
      3614.7264
  -1130242.92649   -879200.16846  20067317.3754   20067315.6884
      1104.9174
   -523439.43046   -406385.61342  23981874.7664   23981873.6134
      3708.7804
   1149029.21549    885497.20745  21400335.4144   21400332.4144
     -1311.2404
  -2182900.46949  -1696111.29346  21302232.4064   21302231.5314
      2361.6534
 04  9  9 21  2 30.0000000  0  7G 3G16G 8G13G19G23G27
  -2067964.57046  -1611981.97342  22968314.7814   22968314.8674
      2146.6094
   2050365.41046   1589845.52742  23992188.3444   23992187.8834
     -2265.9374
  -3386357.00048  -2614215.37943  22686510.6484   22686510.5314
      3615.0254
  -1146752.55149   -892064.81247  20064175.9534   20064174.3484
      1100.6424
   -579075.49646   -449738.33642  23971286.9454   23971287.2464
      3709.0714
   1168739.58649    900855.91845  21404086.0234   21404082.6214
     -1314.0254
  -2218325.43749  -1723715.15646  21295491.5394   21295490.3054
      2361.6654
 04  9  9 21  2 44.9990000  0  7G 3G16G 8G13G19G23G27
  -2100080.65247  -1637007.49642  22962203.4404   22962204.0384
      2141.0724
   2084354.86346   1616330.80142  23998656.2844   23998656.0624
     -2265.9644
  -3440581.18048  -2656467.95343  22676192.5264   22676191.7374
      3614.9454
  -1163194.55549   -904876.76247  20061047.3624   20061045.4644
      1096.1344
   -634709.94546   -493089.82042  23960700.9874   23960700.5934
      3708.9634
   1188492.28949    916247.60945  21407844.8554   21407841.3274
     -1316.8474
  -2253746.18049  -1751315.73846  21288751.1284   21288749.7494
      2361.3834
 04  9  9 21  2 59.9990000  0  7G 3G16G 8G13G19G23G27
  -2132116.54347  -1661970.48842  22956107.1364   22956107.3314
      2135.7264
   2118350.07845   1642820.53542  24005125.9254   24005125.4404
     -2266.3484
  -3494810.57048  -2698724.59443  22665872.6984   22665872.5654
      3615.2934
  -1179570.36349   -917637.12947  20057930.9804   20057928.9134
      1091.7214
   -690348.66846   -536444.58642  23950112.9254   23950112.7184
      3709.2484
   1208291.03148    931675.18445  21411612.2534   21411608.7804
     -1319.9164
  -2289166.32849  -1778915.84046  21282011.0034   21282009.8434
      2361.3434
 04  9  9 21  3 14.9990000  0  7G 3G16G 8G13G19G23G27
  -2164071.45747  -1686870.41442  22950026.6984   22950026.7144
      2130.3284
   2152346.76245   1669311.41042  24011595.2064   24011594.2884
     -2266.4464
  -3549042.98048  -2740983.58643  22655552.9334   22655552.7764
      3615.4944
  -1195880.33249   -930346.19147  20054827.5424   20054825.1984
      1087.3314
   -745989.07046   -579800.68442  23939524.4804   23939525.1164
      3709.3604
   1228132.77348    947136.25445  21415388.1594   21415385.1404
     -1322.7834
  -2324585.23849  -1806514.98046  21275270.7064   21275269.4334
      2361.2614
 04  9  9 21  3 29.9990000  0  7G 3G16G 8G13G19G23G27
  -2195943.27347  -1711705.58642  22943961.0734   22943961.8944
      2124.7884
   2186346.47345   1695804.63342  24018064.6754   24018064.6124
     -2266.6474
  -3603276.28547  -2783243.27044  22645232.5424   22645232.4334
      3615.5544
  -1212122.26649   -943002.24247  20051736.3864   20051734.2494
      1082.7964
   -801628.91846   -623156.35942  23928937.0504   23928936.2024
      3709.3234
   1248019.26249    962632.19545  21419172.4564   21419169.1944
     -1325.7664
  -2360000.86349  -1834111.56646  21268531.3784   21268530.5654
      2361.0424
 04  9  9 21  3 44.9990000  0  7G 3G16G 8G13G19G23G27
  -2227733.22347  -1736476.95342  22937911.6984   22937912.5504
      2119.3304
   2220347.56646   1722298.99241  24024534.6834   24024534.5814
     -2266.7404
  -3657511.88347  -2825504.75043  22634911.7304   22634911.7224
      3615.7074
  -1228297.50449   -955606.32446  20048658.5584   20048656.3154
      1078.3494
   -857269.43446   -666512.51642  23918348.8624   23918348.8274
      3709.3684
   1267949.04348    978161.87145  21422964.9484   21422961.8434
     -1328.6524
  -2395414.77349  -1861706.81246  21261792.5814   21261791.2224
      2360.9274
 04  9  9 21  3 59.9990000  0  7G 3G16G 8G13G19G23G27
  -2259440.44147  -1761183.83642  22931877.8004   22931878.9214
      2113.8154
   2254350.32046   1748794.59442  24031005.1364   24031005.1244
     -2266.8504
  -3711749.32448  -2867767.66043  22624590.8474   22624590.5224
      3615.8294
  -1244405.34449   -968157.89146  20045593.1514   20045591.0344
      1073.8564
   -912909.36746   -709868.27042  23907760.7224   23907760.2184
      3709.3294
   1287922.61349    993725.66445  21426766.1754   21426762.6674
     -1331.5714
  -2430826.35249  -1889300.23846  21255053.7844   21255052.5774
      2360.7724
 04  9  9 21  4 14.9990000  0  7G 3G16G 8G13G19G23G27
  -2291064.83247  -1785826.22343  22925859.6284   22925861.1164
      2108.2934
   2288354.12946   1775291.01241  24037476.5974   24037475.7334
     -2266.9214
  -3765988.73847  -2910032.11743  22614269.1834   22614269.4404
      3615.9614
  -1260445.94549   -980657.06247  20042540.8394   20042538.5734
      1069.3734
   -968548.79746   -753223.58242  23897172.9874   23897172.4604
      3709.2954
   1307939.53549   1009323.23845  21430575.1594   21430572.1944
     -1334.4614
  -2466235.87549  -1916892.07046  21248315.4334   21248314.3904
      2360.6354
 04  9  9 21  4 29.9990000  0  7G 3G16G 8G13G19G23G27
  -2322604.26647  -1810402.36742  22919858.2534   22919859.2184
      2102.6294
   2322360.76646   1801789.60941  24043948.2064   24043947.3234
     -2267.1094
  -3820228.17248  -2952296.56643  22603947.6514   22603947.8084
      3615.9624
  -1276417.20349   -993102.19547  20039501.7304   20039499.6514
      1064.7514
  -1024185.29346   -796576.64542  23886584.9724   23886585.5304
      3709.1004
   1328001.78148   1024956.13745  21434392.8394   21434389.6244
     -1337.4834
  -2501641.33649  -1944480.72746  21241578.0194   21241577.0424
      2360.3644
 04  9  9 21  4 44.9990000  0  7G 3G16G 8G13G19G23G27
  -2354058.14147  -1834911.87143  22913873.2144   22913873.6204
      2096.9254
   2356370.23046   1828290.47342  24050419.2224   24050419.6514
     -2267.2984
  -3874466.85247  -2994560.45743  22593626.7224   22593626.2024
      3615.9124
  -1292318.54349  -1005492.85547  20036476.0114   20036473.8824
      1060.0894
  -1079818.02746   -839926.76642  23875998.9484   23875998.7264
      3708.8494
   1348109.60948   1040624.54345  21438219.5264   21438215.8584
     -1340.5224
  -2537042.30149  -1972065.89146  21234841.2694   21234840.4054
      2360.0644
 04  9  9 21  4 59.9990000  0  7G 3G16G 8G13G19G23G27
  -2385429.01647  -1859356.68043  22907903.1284   22907904.1714
      2091.3924
   2390379.55946   1854791.20342  24056890.7844   24056890.8154
     -2267.2894
  -3928707.71947  -3036826.03544  22583305.0654   22583304.9874
      3616.0584
  -1308152.48849  -1017830.99247  20033462.6984   20033460.5934
      1055.5964
  -1135449.42246   -883275.81242  23865412.3944   23865412.6084
      3708.7604
   1368260.22349   1056326.30545  21442053.8864   21442050.3864
     -1343.3744
  -2572441.54749  -1999649.71146  21228105.2614   21228104.2224
      2359.9504
 04  9  9 21  5 14.9990000  0  7G 3G16G 8G13G19G23G27
  -2416712.19147  -1883733.16843  22901950.3474   22901951.1474
      2085.5454
   2424392.79346   1881294.96142  24063364.1984   24063363.8004
     -2267.5494
  -3982946.42248  -3079089.92643  22572983.1514   22572983.7264
      3615.9144
  -1323914.64549  -1030113.19547  20030463.4334   20030461.1904
      1050.8104
  -1191074.64546   -926620.09442  23854826.7304   23854827.1984
      3708.3484
   1388457.90649   1072064.73845  21445897.5814   21445893.8124
     -1346.5124
  -2607834.71949  -2027228.77746  21221370.1594   21221369.3084
      2359.5454
 04  9  9 21  5 29.9990000  0  7G 3G16G 8G13G19G23G27
  -2447910.47747  -1908043.49643  22896013.5814   22896014.1284
      2079.8864
   2458406.64146   1907799.20342  24069836.3554   24069836.3974
     -2267.5904
  -4037185.85247  -3121354.38343  22562662.4334   22562661.9764
      3615.9624
  -1339607.86749  -1042341.68047  20027476.7454   20027474.7104
      1046.2154
  -1246696.35946   -969961.61342  23844241.6364   23844242.3234
      3708.1144
   1408699.62548   1087837.48445  21449748.5424   21449745.4724
     -1349.4484
  -2643224.78549  -2054805.45746  21214635.7224   21214634.7264
      2359.3384
 04  9  9 21  5 44.9990000  0  7G 3G16G 8G13G19G23G27
  -2479022.21947  -1932286.37543  22890092.7454   22890094.2724
      2074.1164
   2492422.21946   1934304.82842  24076310.1984   24076309.6474
     -2267.7054
  -4091424.30948  -3163618.07443  22552341.0894   22552340.2024
      3615.8974
  -1355230.51249  -1054515.18047  20024504.1674   20024501.8314
      1041.5104
  -1302312.78146  -1013299.02342  23833659.0344   23833659.2064
      3707.7614
   1428986.53548   1103645.43845  21453609.2844   21453605.9954
     -1352.4614
  -2678610.49649  -2082378.73046  21207901.9644   21207900.8044
      2359.0474
 04  9  9 21  5 59.9990000  0  6G 3G 8G13G19G23G27
  -2510046.32047  -1956460.97743  22884189.4564   22884190.1514
      2068.2734
  -4145661.10548  -3205880.49243  22542019.6674   22542019.2334
      3615.7864
  -1370781.78149  -1066633.05147  20021544.8944   20021542.5694
      1036.7514
  -1357922.53946  -1056631.22342  23823077.1124   23823076.6244
      3707.3174
   1449319.53149   1119489.32045  21457478.3234   21457475.5344
     -1355.5334
  -2713990.73049  -2109947.74246  21201168.9644   21201168.2694
      2358.6824
 04  9  9 21  6 14.9990000  0  6G 3G 8G13G19G23G27
  -2540981.91446  -1980566.60543  22878302.3004   22878303.1284
      2062.3734
  -4199895.45748  -3248140.98444  22531699.2374   22531699.5194
      3615.6234
  -1386260.80948  -1078694.63747  20018599.2924   20018597.0224
      1031.9354
  -1413524.66046  -1099957.48442  23812495.7844   23812495.5734
      3706.8084
   1469699.30548   1135369.63345  21461356.8624   21461353.6084
     -1358.6524
  -2749364.90249  -2137512.00846  21194437.8474   21194436.7144
      2358.2784
 04  9  9 21  6 29.9990000  0  6G 3G 8G13G19G23G27
  -2571829.14547  -2004603.36743  22872432.6514   22872433.0384
      2056.4824
  -4254127.64548  -3290399.81244  22521379.6204   22521379.8514
      3615.4794
  -1401667.87549  -1090700.14547  20015667.3944   20015665.2264
      1027.1384
  -1469119.16846  -1143277.81242  23801917.1444   23801916.5034
      3706.3014
   1490125.19149   1151285.88745  21465243.9644   21465240.6474
     -1361.7264
  -2784733.46949  -2165071.93046  21187707.5894   21187706.1984
      2357.9044
 04  9  9 21  6 44.9990000  0  6G 3G 8G13G19G23G27
  -2602586.91047  -2028570.44143  22866579.7764   22866579.5034
      2050.5184
  -4308356.77048  -3332656.24643  22511060.3704   22511059.6714
      3615.2754
  -1417001.95749  -1102648.77747  20012749.3154   20012747.1124
      1022.2724
  -1524704.79347  -1186591.23042  23791339.0114   23791338.4724
      3705.7084
   1510597.96148   1167238.65645  21469139.5894   21469136.3944
     -1364.8514
  -2820095.57849  -2192626.80946  21180978.0504   21180977.4524
      2357.4744
 04  9  9 21  6 59.9990000  0  6G 3G 8G13G19G23G27
  -2633251.74647  -2052465.09843  22860743.9484   22860744.9914
      2044.3224
  -4362579.53548  -3374907.71944  22500741.8624   22500741.5854
      3614.8514
  -1432259.70349  -1114537.93446  20009846.3944   20009843.7454
      1017.1834
  -1580277.89547  -1229894.86742  23780763.6834   23780763.5264
      3704.8734
   1531120.70349   1183230.37145  21473045.0734   21473041.6364
     -1368.1834
  -2855447.95749  -2220174.10946  21174250.6984   21174250.0934
      2356.8254
 04  9  9 21  7 14.9990000  0  6G 3G 8G13G19G23G27
  -2663823.97347  -2076287.59043  22854926.3084   22854927.2494
      2038.1484
  -4416796.38748  -3417154.58244  22490425.0194   22490424.8904
      3614.4574
  -1447441.48049  -1126367.89546  20006956.9484   20006954.5974
      1012.1184
  -1635838.56246  -1273188.81642  23770191.2844   23770190.0894
      3704.0454
   1551692.92648   1199260.64545  21476960.0264   21476956.2844
     -1371.4824
  -2890791.03549  -2247714.15246  21167525.0894   21167524.3704
      2356.2054
 04  9  9 21  7 29.9990000  0  6G 3G 8G13G19G23G27
  -2694303.66447  -2100037.96943  22849126.4254   22849126.8824
      2031.9794
  -4471007.78948  -3459397.19544  22480107.7224   22480108.6014
      3614.0934
  -1462547.57049  -1138138.86746  20004082.1754   20004080.3434
      1007.0734
  -1691386.87546  -1316473.14542  23759620.0974   23759619.7494
      3703.2214
   1572314.18849   1215329.14145  21480884.3554   21480880.9014
     -1374.7514
  -2926125.18749  -2275247.25446  21160801.5034   21160800.4834
      2355.6104
 04  9  9 21  7 44.9990000  0  6G 3G 8G13G19G23G27
  -2724691.16447  -2123716.51243  22843343.7764   22843344.3624
      2025.8334
  -4525214.28948  -3501635.99643  22469792.9874   22469793.3154
      3613.7674
  -1477578.37549  -1149851.18747  20001221.6754   20001219.7064
      1002.0544
  -1746923.03947  -1359748.00442  23749051.7454   23749050.9954
      3702.4114
   1592983.70749   1231435.22745  21484817.3554   21484814.2574
     -1377.9684
  -2961451.16849  -2302773.98446  21154078.9564   21154078.3314
      2355.0654
 04  9  9 21  7 59.9990000  0  6G 3G 8G13G19G23G27
  -2754985.51647  -2147322.48043  22837578.6904   22837579.6014
      2019.6234
  -4579414.98848  -3543870.28144  22459479.1754   22459478.7304
      3613.3804
  -1492533.00049  -1161504.13747  19998376.1444   19998373.9334
       996.9754
  -1802445.81647  -1403012.43442  23738486.5894   23738485.6514
      3701.5184
   1613702.25449   1247579.52745  21488760.2374   21488757.1944
     -1381.2364
  -2996768.05149  -2330293.61346  21147358.1284   21147357.5194
      2354.4594
 04  9  9 21  8 14.9990000  0  6G 3G 8G13G19G23G27
  -2785187.18747  -2170856.22343  22831831.2064   22831832.0694
      2013.4454
  -4633610.41848  -3586100.47344  22449165.9014   22449166.1834
      3613.0294
  -1507411.98449  -1173098.16047  19995544.8004   19995542.3904
       991.9324
  -1857955.32447  -1446266.52742  23727923.2144   23727923.0694
      3700.6344
   1634469.07049   1263761.43045  21492711.8554   21492708.8904
     -1384.4544
  -3032076.46949  -2357806.66446  21140639.5034   21140638.8314
      2353.8954
 04  9  9 21  8 29.9990000  0  6G 3G 8G13G19G23G27
  -2815295.78547  -2194317.45743  22826102.2064   22826102.0894
      2007.2404
  -4687800.39848  -3628326.38343  22438854.0034   22438854.3554
      3612.6654
  -1522215.09449  -1184633.04747  19992727.9174   19992725.2574
       986.8744
  -1913451.20347  -1489509.98842  23717362.4014   23717362.0154
      3699.7254
   1655284.21149   1279980.98445  21496672.7614   21496669.5074
     -1387.6764
  -3067376.31649  -2385313.01646  21133921.9404   21133921.5304
      2353.3234
 04  9  9 21  8 44.9990000  0  6G 3G 8G13G19G23G27
  -2845311.77747  -2217706.50043  22820390.8154   22820390.2574
      2001.0664
  -4741985.50048  -3670548.50444  22428543.0974   22428543.0424
      3612.3404
  -1536942.99249  -1196109.32847  19989925.3474   19989923.0544
       981.8604
  -1968933.67247  -1532743.01242  23706805.1054   23706803.8234
      3698.8314
   1676146.78949   1296237.52045  21500643.2144   21500639.8124
     -1390.8394
  -3102668.36349  -2412813.30546  21127205.9954   21127205.4724
      2352.8034
 04  9  9 21  8 59.9990000  0  6G 3G 8G13G19G23G27
  -2875233.33247  -2241021.96943  22814696.6054   22814696.0934
      1994.7704
  -4796163.95748  -3712765.46544  22418232.9954   22418232.5854
      3611.8974
  -1551593.87949  -1207525.60947  19987137.5734   19987135.1634
       976.7264
  -2024400.75447  -1575964.06642  23696249.8704   23696249.0544
      3697.8054
   1697058.50449   1312532.34045  21504621.9724   21504618.8744
     -1394.1144
  -3137950.91449  -2440306.19146  21120491.9954   21120491.5344
      2352.1704
 04  9  9 21  9 14.9990000  0  6G 3G 8G13G19G23G27
  -2905060.60547  -2264263.98042  22809020.5974   22809020.2064
      1988.4854
  -4850336.50048  -3754977.80944  22407924.1834   22407924.9174
      3611.5034
  -1566168.04749  -1218882.09847  19984364.0194   19984361.5934
       971.6114
  -2079852.47747  -1619173.14542  23685697.6834   23685696.5304
      3696.7824
   1718018.73049   1328864.95745  21508611.2224   21508607.1874
     -1397.3484
  -3173224.35949  -2467791.98046  21113779.7764   21113778.6204
      2351.5634
 04  9  9 21  9 29.9990000  0  6G 3G 8G13G19G23G27
  -2934792.64147  -2287431.78942  22803362.7764   22803362.7334
      1982.1364
  -4904501.96148  -3797184.62544  22397616.9484   22397617.1324
      3611.0314
  -1580664.49649  -1230178.03947  19981605.5114   19981603.2334
       966.4304
  -2135287.73447  -1662369.37942  23675148.3944   23675147.3194
      3695.6844
   1739027.99249   1345235.77745  21512608.9954   21512605.2374
     -1400.6174
  -3208487.95749  -2495270.09846  21107069.5194   21107068.3154
      2350.9074
 04  9  9 21  9 44.9990000  0  6G 3G 8G13G19G23G27
  -2964431.12546  -2310526.67642  22797722.5894   22797722.2494
      1975.8994
  -4958662.38748  -3839387.52744  22387311.2454   22387311.1754
      3610.6954
  -1595085.11349  -1241414.87947  19978861.4174   19978858.9994
       961.3744
  -2190707.95747  -1705553.94142  23664602.6674   23664601.2724
      3694.6824
   1760084.52348   1361643.43845  21516615.7454   21516612.2374
     -1403.7694
  -3243743.69149  -2522742.10246  21100360.5734   21100359.1474
      2350.3824
 04  9  9 21  9 59.9990000  0  6G 3G 8G13G19G23G27
  -2993975.38347  -2333548.16043  22792099.9094   22792100.3354
      1969.6174
  -5012817.32448  -3881586.14844  22377005.3394   22377005.9094
      3610.3294
  -1609429.32849  -1252592.18747  19976131.8004   19976129.3704
       956.2814
  -2246112.42647  -1748726.19943  23654059.2694   23654058.2064
      3693.6314
   1781188.51649   1378088.08245  21520632.0114   21520628.5344
     -1406.9334
  -3278990.96549  -2550207.50046  21093653.0734   21093651.9954
      2349.8184
 04  9  9 21 10 14.9990000  0  6G 3G 8G13G19G23G27
  -3023426.09447  -2356496.74243  22786496.1204   22786496.2224
      1963.3814
  -5066967.47348  -3923781.03944  22366701.0504   22366701.4684
      3610.0104
  -1623697.91049  -1263710.56647  19973416.3234   19973414.2964
       951.2394
  -2301501.52047  -1791886.46543  23643519.0194   23643518.0114
      3692.6064
   1802338.95749   1394568.92245  21524656.6514   21524653.2184
     -1410.0294
  -3314230.73449  -2577667.04746  21086946.6444   21086945.7574
      2349.3184
 04  9  9 21 10 29.9990000  0  6G 3G 8G13G19G23G27
  -3052781.37547  -2379370.95743  22780910.3394   22780910.6984
      1957.0194
  -5121110.97748  -3965970.75844  22356397.1444   22356397.4484
      3609.5674
  -1637889.22349  -1274768.72746  19970716.0814   19970713.8194
       946.0884
  -2356873.39847  -1835033.32442  23632982.3864   23632981.1594
      3691.4594
   1823537.47349   1411087.21945  21528690.6124   21528686.8974
     -1413.2344
  -3349461.28949  -2605119.41846  21080243.0894   21080241.8124
      2348.7044
 04  9  9 21 10 44.9990000  0  6G 3G 8G13G19G23G27
  -3082039.39847  -2402169.39843  22775342.3784   22775343.1944
      1950.5354
  -5175246.51648  -4008154.27044  22346096.2534   22346096.0344
      3609.0364
  -1652001.21549  -1285765.09446  19968030.1754   19968028.1244
       940.7994
  -2412225.76647  -1878164.98442  23622449.3394   23622447.8044
      3690.1584
   1844785.69148   1427644.25045  21532733.6834   21532730.2064
     -1416.5484
  -3384681.00849  -2632563.34446  21073541.3314   21073539.4604
      2347.9814
 04  9  9 21 10 59.9990000  0  6G 3G 8G13G19G23G27
  -3111203.27347  -2424894.48443  22769792.6284   22769793.5734
      1944.2584
  -5229377.03948  -4050333.87944  22335794.8474   22335795.1554
      3608.7024
  -1666037.33249  -1296702.33247  19965359.3554   19965357.2764
       935.7414
  -2467561.60947  -1921283.78543  23611919.1834   23611917.7304
      3689.0564
   1866080.15648   1444237.30944  21536785.5894   21536782.6054
     -1419.6314
  -3419893.21149  -2660001.42646  21066840.3394   21066838.9524
      2347.4804
 04  9  9 21 11 14.9990000  0  6G 3G 8G13G19G23G27
  -3140269.29747  -2447543.32043  22764261.1834   22764262.2924
      1937.7354
  -5283499.19148  -4092506.95744  22325496.1834   22325496.4644
      3608.1434
  -1679994.03949  -1307577.68447  19962703.8394   19962701.3554
       930.4474
  -2522877.20347  -1964386.80143  23601393.0424   23601391.5544
      3687.7064
   1887424.10248   1460868.92644  21540847.3004   21540844.4014
     -1422.9304
  -3455094.50049  -2687430.98846  21060141.9954   21060140.4804
      2346.7534
 04  9  9 21 11 29.9990000  0  6G 3G 8G13G19G23G27
  -3169238.41447  -2470116.64843  22758749.2144   22758749.1634
      1931.2744
  -5337613.98448  -4134674.31644  22315198.4334   22315198.5194
      3607.6534
  -1693871.95749  -1318391.65247  19960062.6594   19960060.1634
       925.1954
  -2578173.19147  -2007474.54342  23590870.8314   23590868.9374
      3686.3994
   1908816.46948   1477538.26244  21544918.4174   21544915.1124
     -1426.1584
  -3490285.87549  -2714852.82846  21053444.9334   21053443.8354
      2346.0924
 04  9  9 21 11 44.9990000  0  6G 3G 8G13G19G23G27
  -3198111.50047  -2492615.12943  22753254.7534   22753255.0814
      1924.8724
  -5391722.43448  -4176836.70744  22304901.6594   22304901.9014
      3607.2304
  -1707672.27749  -1329145.15246  19957436.9644   19957434.3824
       920.0214
  -2633450.30947  -2050547.57442  23580351.3154   23580349.7454
      3685.1414
   1930255.92248   1494244.30144  21548998.3944   21548994.9214
     -1429.2974
  -3525468.36349  -2742267.74646  21046750.0974   21046748.8044
      2345.4994
 04  9  9 21 11 59.9990000  0  6G 3G 8G13G19G23G27
  -3226887.59447  -2515038.03143  22747778.9174   22747778.8274
      1918.4064
  -5445823.70748  -4218993.51644  22294606.7534   22294607.2844
      3606.7524
  -1721394.26249  -1339837.60246  19954825.5974   19954823.1204
       914.7994
  -2688707.35547  -2093604.96542  23569836.2454   23569835.0464
      3683.8034
   1951743.23448   1510987.63344  21553087.7924   21553083.9644
     -1432.4874
  -3560641.45349  -2769675.34046  21040056.9254   21040055.6754
      2344.8734
 04  9  9 21 12 14.9990000  0  6G 3G 8G13G19G23G27
  -3255566.24247  -2537385.02343  22742321.3084   22742321.4954
      1911.9104
  -5499917.65648  -4261144.62144  22284312.4724   22284313.3434
      3606.2634
  -1735037.46149  -1350468.67246  19952229.2454   19952227.0074
       909.5474
  -2743943.68747  -2136646.20343  23559324.5654   23559324.0154
      3682.4224
   1973278.52748   1527768.33645  21557185.3944   21557181.8624
     -1435.6864
  -3595804.71149  -2797075.27046  21033365.5114   21033364.2454
      2344.2174
 04  9  9 21 12 29.9990000  0  6G 3G 8G13G19G23G27
  -3284148.34447  -2559656.78543  22736882.3474   22736882.4524
      1905.4734
  -5554004.91448  -4303290.50844  22274020.1364   22274020.4914
      3605.8174
  -1748602.87549  -1361039.11746  19949647.3864   19949645.4954
       904.3614
  -2799160.02047  -2179671.87143  23548816.8314   23548816.0344
      3681.0894
   1994860.50048   1544585.42645  21561292.4644   21561288.7304
     -1438.7984
  -3630959.14149  -2824468.32846  21026675.5894   21026674.7304
      2343.6294
 04  9  9 21 12 44.9990000  0  6G 3G 8G13G19G23G27
  -3312631.01247  -2581851.03543  22731462.2694   22731462.2804
      1898.8454
  -5608082.96948  -4345429.23044  22263729.8394   22263729.9054
      3605.2044
  -1762087.68449  -1371546.76247  19947081.6204   19947079.5114
       898.9874
  -2854353.27047  -2222679.55943  23538314.0344   23538313.6904
      3679.5504
   2016491.91049   1561441.04745  21565408.7374   21565405.3154
     -1442.0944
  -3666102.12149  -2851852.45346  21019988.2694   21019987.1284
      2342.8654
 04  9  9 21 12 59.9990000  0  6G 3G 8G13G19G23G27
  -3341016.78147  -2603969.81643  22726060.5814   22726060.7694
      1892.3854
  -5662154.54748  -4387562.90244  22253440.1834   22253439.8664
      3604.7724
  -1775494.54749  -1381993.66847  19944530.4954   19944528.5974
       893.7914
  -2909525.90647  -2265671.17642  23527815.1674   23527813.9094
      3678.1764
   2038169.80148   1578332.87145  21569534.3944   21569530.4404
     -1445.1934
  -3701236.42249  -2879229.83246  21013302.0034   21013301.5504
      2342.2874
 04  9  9 21 13 14.9990000  0  6G 3G 8G13G19G23G27
  -3369304.96947  -2626012.53543  22720677.2454   22720677.4954
      1885.8794
  -5716219.26648  -4429691.22744  22243152.1594   22243151.6404
      3604.3154
  -1788822.79749  -1392379.32047  19941994.1284   19941992.1474
       888.5504
  -2964676.80547  -2308645.88343  23517319.9334   23517319.5654
      3676.7274
   2059894.46948   1595261.16044  21573667.7694   21573664.5114
     -1448.3114
  -3736361.62149  -2906600.10546  21006618.4404   21006617.4174
      2341.6804
 04  9  9 21 13 29.9990000  0  6G 3G 8G13G19G23G27
  -3397494.55147  -2647978.42643  22715313.0114   22715313.4174
      1879.3054
  -5770275.95748  -4471813.30944  22232865.6054   22232865.2804
      3603.7794
  -1802071.45349  -1402702.94947  19939473.2614   19939470.9834
       883.2444
  -3019804.80947  -2351602.73042  23506830.0264   23506828.5114
      3675.2004
   2081666.76248   1612226.55545  21577810.8314   21577808.0114
     -1451.4864
  -3771476.65249  -2933962.46146  20999936.1754   20999935.1474
      2341.0024
 04  9  9 21 13 44.9990000  0  6G 3G 8G13G19G23G27
  -3425583.44946  -2669865.86743  22709967.3944   22709967.8784
      1872.5934
  -5824323.03148  -4513927.87544  22222580.8004   22222579.8274
      3603.1384
  -1815238.91449  -1412963.31647  19936967.3084   19936965.4524
       877.8314
  -3074907.91047  -2394540.18742  23496344.1754   23496343.0464
      3673.5404
   2103488.36748   1629230.37945  21581963.8474   21581960.9174
     -1454.7744
  -3806580.03949  -2961315.74246  20993256.3624   20993254.9644
      2340.2264
 04  9  9 21 13 59.9990000  0  6G 3G 8G13G19G23G27
  -3453572.52047  -2691675.51643  22704641.9484   22704641.5424
      1865.9384
  -5878361.18748  -4556035.50844  22212297.8704   22212296.9914
      3602.5444
  -1828325.78549  -1423160.87546  19934477.0974   19934475.1284
       872.4584
  -3129986.55146  -2437458.58642  23485862.6834   23485861.7764
      3671.9094
   2125358.12948   1646271.72345  21586125.5194   21586122.2964
     -1457.9844
  -3841672.54749  -2988660.54346  20986578.4484   20986577.5304
      2339.5014
 04  9  9 21 14 14.9990000  0  6G 3G 8G13G19G23G27
  -3481464.65647  -2713409.64143  22699334.2844   22699334.1444
      1859.4764
  -5932393.50448  -4598138.58244  22202015.6834   22202014.9054
      3602.1544
  -1841334.97349  -1433297.91047  19932001.4644   19931999.4134
       867.2794
  -3185043.49247  -2480360.03142  23475386.1514   23475384.8044
      3670.4634
   2147272.98048   1663348.22345  21590295.5344   21590292.7884
     -1460.9904
  -3876757.16849  -3015999.19546  20979902.0264   20979901.0464
      2338.9754
 04  9  9 21 14 29.9990000  0  6G 3G 8G13G19G23G27
  -3509256.73047  -2735065.80543  22694045.4484   22694044.8554
      1852.8054
  -5986416.95748  -4640234.75044  22191735.2144   22191734.5224
      3601.5644
  -1854263.60549  -1443372.17247  19929541.3944   19929539.0504
       861.9094
  -3240075.37147  -2523241.99242  23464913.6444   23464912.8624
      3668.7924
   2169235.58248   1680461.90644  21594474.5504   21594471.9954
     -1464.1734
  -3911831.17649  -3043329.59046  20973227.7764   20973226.8274
      2338.2674
 04  9  9 21 14 44.9990000  0  6G 3G 8G13G19G23G27
  -3536947.32447  -2756642.88343  22688776.4174   22688775.8274
      1846.0404
  -6040430.23048  -4682323.00444  22181456.2614   22181457.2104
      3600.8854
  -1867110.21149  -1453382.51247  19927096.3704   19927094.2104
       856.4404
  -3295080.48447  -2566103.08242  23454446.6834   23454445.5464
      3667.0084
   2191247.24248   1697613.81645  21598663.9874   21598661.0034
     -1467.4444
  -3946893.10249  -3070650.56646  20966555.6364   20966554.9874
      2337.4624
 04  9  9 21 14 59.9990000  0  6G 3G 8G13G19G23G27
  -3564537.07847  -2778141.36743  22683526.1364   22683525.9444
      1839.3174
  -6094434.14148  -4724403.93744  22171180.2304   22171179.6364
      3600.2614
  -1879875.57849  -1463329.55146  19924667.3784   19924665.5074
       851.0244
  -3350059.35547  -2608943.73442  23443984.9804   23443982.8084
      3665.2584
   2213306.93448   1714803.14845  21602861.4174   21602859.2844
     -1470.6464
  -3981943.84849  -3097962.82446  20959885.6754   20959884.7304
      2336.7164
 04  9  9 21 15 14.9990000  0  6G 3G 8G13G19G23G27
  -3592025.29747  -2799560.74643  22678295.4954   22678295.5464
      1832.5484
  -6148428.28948  -4766477.27344  22160905.4564   22160905.1904
      3599.6104
  -1892559.12149  -1473212.83247  19922253.8864   19922251.5424
       845.5704
  -3405011.16847  -2651763.28942  23433527.7224   23433525.8474
      3663.4544
   2235415.03948   1732030.21144  21607068.3154   21607066.2064
     -1473.8744
  -4016982.96149  -3125266.02046  20953217.8004   20953217.0504
      2335.9414
 04  9  9 21 15 29.9990000  0  6G 3G 8G13G19G23G27
  -3619411.92647  -2820900.97343  22673083.3154   22673083.8624
      1825.7754
  -6202412.52348  -4808542.87544  22150632.4404   22150631.8474
      3598.9494
  -1905160.80949  -1483032.32447  19919855.8314   19919853.4724
       840.1124
  -3459935.64847  -2694561.54342  23423075.9804   23423074.3434
      3661.6324
   2257571.22348   1749294.73845  21611284.6284   21611281.8864
     -1477.0794
  -4052010.51249  -3152560.21146  20946552.5424   20946551.6244
      2335.1704
 04  9  9 21 15 44.9990000  0  6G 3G 8G13G19G23G27
  -3646696.93747  -2842162.00043  22667891.5504   22667891.5814
      1819.0014
  -6256386.95348  -4850600.84044  22140361.5894   22140360.1054
      3598.2954
  -1917680.78149  -1492788.14547  19917473.1444   19917471.4294
       834.6654
  -3514832.39547  -2737338.21543  23412629.3704   23412627.9214
      3659.7834
   2279775.43048   1766596.67645  21615510.1674   21615506.8664
     -1480.2804
  -4087026.64149  -3179845.48846  20939889.0424   20939888.1054
      2334.4094
 04  9  9 21 15 59.9990000  0  6G 3G 8G13G19G23G27
  -3673879.18047  -2863342.93443  22662719.2064   22662718.7724
      1812.1494
  -6310350.64148  -4892650.45344  22130092.6984   22130091.4914
      3597.5794
  -1930118.14149  -1502479.59847  19915106.6904   19915104.6514
       829.1574
  -3569700.25447  -2780092.37542  23402188.1984   23402186.4404
      3657.8574
   2302028.39848   1783936.62944  21619744.4644   21619741.7104
     -1483.5314
  -4122030.42649  -3207121.17246  20933227.9404   20933226.9954
      2333.5864
 04  9  9 21 16 14.9990000  0  6G 3G 8G13G19G23G27
  -3700959.34846  -2884444.34843  22657565.5424   22657566.2574
      1805.3454
  -6364304.40248  -4934692.31244  22119825.4564   22119825.0304
      3596.9174
  -1942473.22349  -1512106.93447  19912755.3394   19912753.5624
       823.6724
  -3624539.59847  -2822824.30142  23391752.5034   23391750.4684
      3655.9564
   2324329.14848   1801313.80144  21623988.0264   21623985.6874
     -1486.7174
  -4157022.62149  -3234387.80946  20926569.0974   20926568.0654
      2332.8134
 04  9  9 21 16 29.9990000  0  6G 3G 8G13G19G23G27
  -3727939.43447  -2905467.77743  22652431.4484   22652432.2534
      1798.6724
  -6418250.49248  -4976728.18744  22109559.7454   22109559.4994
      3596.4064
  -1954748.40649  -1521672.01647  19910419.7694   19910417.7024
       818.3464
  -3679352.23447  -2865535.40642  23381322.5424   23381320.4914
      3654.1764
   2346675.37548   1818726.39845  21628240.8394   21628238.1404
     -1489.7484
  -4192005.55149  -3261647.22746  20919911.9404   20919911.2374
      2332.1954
 04  9  9 21 16 44.9990000  0  6G 3G 8G13G19G23G27
  -3754817.31647  -2926411.57043  22647316.6984   22647317.3084
      1791.8594
  -6472186.62148  -5018756.32444  22099295.9484   22099295.4254
      3595.7424
  -1966941.67249  -1531173.27047  19908099.3474   19908097.3554
       812.8844
  -3734135.90647  -2908223.95342  23370896.7844   23370895.4954
      3652.2454
   2369068.81349   1836175.79744  21632502.3864   21632499.3124
     -1492.8964
  -4226977.11749  -3288897.78546  20913257.2304   20913256.1284
      2331.4384
 04  9  9 21 16 59.9990000  0  6G 3G 8G13G19G23G27
  -3781592.70747  -2947275.51243  22642222.2144   22642222.1984
      1785.0264
  -6526112.93048  -5060776.79344  22089033.8944   22089034.3974
      3595.0874
  -1979052.66849  -1540610.40647  19905794.6754   19905792.3124
       807.4004
  -3788890.07447  -2950889.48042  23360477.2224   23360476.9054
      3650.2784
   2391509.51649   1853662.01644  21636772.6284   21636769.6594
     -1496.0474
  -4261937.24249  -3316139.45746  20906604.2144   20906603.5034
      2330.6754
 04  9  9 21 17 14.9990000  0  6G 3G 8G13G19G23G27
  -3808264.75047  -2968058.88743  22637146.1674   22637146.3554
      1778.1364
  -6580028.19548  -5102788.66844  22078774.7224   22078774.1474
      3594.3514
  -1991080.64849  -1549982.86747  19903505.6834   19903503.3944
       801.8654
  -3843613.64846  -2993531.21542  23350064.1594   23350062.8904
      3648.2384
   2413998.15648   1871185.59844  21641052.2224   21641048.7184
     -1499.2434
  -4296885.37549  -3343371.74646  20899954.2614   20899952.8394
      2329.8764
 04  9  9 21 17 29.9990000  0  6G 3G 8G13G19G23G27
  -3834834.33647  -2988762.46143  22632089.4724   22632090.1794
      1771.3064
  -6633934.00048  -5144793.16444  22068515.9484   22068515.7574
      3593.7204
  -2003026.69149  -1559291.46547  19901232.5264   19901229.5464
       796.4034
  -3898307.24646  -3036149.56242  23339656.3864   23339654.8704
      3646.2404
   2436533.51648   1888745.57845  21645340.9334   21645337.3554
     -1502.3574
  -4331822.34449  -3370595.35546  20893305.8944   20893304.3784
      2329.1314
 04  9  9 21 17 44.9990000  0  6G 3G 8G13G19G23G27
  -3861299.89546  -3009384.94943  22627052.9724   22627053.9644
      1764.3714
  -6687828.69148  -5186789.00844  22058260.6364   22058260.9484
      3592.9794
  -2014889.29349  -1568535.05947  19898975.0264   19898972.7844
       790.8404
  -3952969.01247  -3078743.10543  23329253.9014   23329252.9724
      3644.1184
   2459116.81349   1906342.91845  21649637.8234   21649635.2924
     -1505.5534
  -4366746.83649  -3397809.24246  20886660.0114   20886658.8354
      2328.2994
 04  9  9 21 17 59.9990000  0  6G 3G 8G13G19G23G27
  -3887660.64847  -3029925.79743  22622037.0034   22622037.5624
      1757.3844
  -6741711.44948  -5228775.54344  22048007.2374   22048007.2224
      3592.1844
  -2026667.60549  -1577712.96547  19896734.1444   19896731.1474
       785.2214
  -4007598.07047  -3121311.18742  23318858.5734   23318857.4604
      3641.9374
   2481748.60248   1923978.05145  21653944.6444   21653941.8154
     -1508.7864
  -4401658.16849  -3425012.86346  20880016.7304   20880015.4014
      2327.4224
 04  9  9 21 18 14.9990000  0  6G 3G 8G13G19G23G27
  -3913917.32846  -3050385.53143  22617040.6594   22617041.2374
      1750.4454
  -6795583.29748  -5270753.57844  22037755.2304   22037755.4564
      3591.4574
  -2038362.55948  -1586825.92247  19894508.2764   19894505.8194
       779.6644
  -4062194.99647  -3163854.23443  23308469.0894   23308467.6164
      3639.7954
   2504427.80148   1941650.10945  21658260.2844   21658257.5894
     -1511.9474
  -4436557.34849  -3452207.02346  20873375.1984   20873374.1444
      2326.6124
 04  9  9 21 18 29.9990000  0  6G 3G 8G13G19G23G27
  -3940071.16447  -3070765.10943  22612063.7614   22612064.5694
      1743.5894
  -6849445.34848  -5312723.98444  22027505.8944   22027505.9524
      3590.8034
  -2049975.35949  -1595874.85947  19892298.2224   19892295.8194
       774.1874
  -4116760.82048  -3206373.02342  23298086.2694   23298084.2654
      3637.7224
   2527152.93448   1959357.97744  21662584.5894   21662581.7494
     -1515.0094
  -4471445.76649  -3479392.79346  20866736.5194   20866735.0894
      2325.8954
 04  9  9 21 18 44.9990000  0  6G 3G 8G13G19G23G27
  -3966121.59046  -3091064.14843  22607106.1444   22607107.0934
      1736.6954
  -6903297.38348  -5354686.59444  22017258.0034   22017257.8194
      3590.1364
  -2061505.59849  -1604859.46547  19890104.2304   19890102.0224
       768.6834
  -4171294.69947  -3248866.93742  23287708.0894   23287705.9404
      3635.5924
   2549924.22348   1977101.80144  21666917.8154   21666915.0654
     -1518.0864
  -4506322.86749  -3506569.76246  20860099.5504   20860098.1284
      2325.1404
 04  9  9 21 18 59.9990000  0  6G 3G 8G13G19G23G27
  -3992067.19147  -3111281.48843  22602169.6904   22602169.2804
      1729.7074
  -6957137.83648  -5396640.16044  22007012.8004   22007012.3194
      3589.3644
  -2072951.81649  -1613778.59846  19887926.2924   19887924.1754
       763.0814
  -4225794.87547  -3291334.57043  23277337.2144   23277335.4524
      3633.3454
   2572742.92248   1994882.57044  21671260.6904   21671257.8864
     -1521.2474
  -4541187.42649  -3533736.93446  20853465.1984   20853463.5424
      2324.3044
 04  9  9 21 19 14.9990000  0  6G 3G 8G13G19G23G27
  -4017908.65247  -3131417.66842  22597251.5974   22597252.3904
      1722.7644
  -7010967.73048  -5438585.50044  21996769.0814   21996768.6984
      3588.6604
  -2084314.85549  -1622632.91446  19885763.7454   19885761.6164
       757.5364
  -4280261.92647  -3333776.41843  23266972.2304   23266971.6084
      3631.1374
   2595608.06348   2012699.52744  21675611.6674   21675609.1124
     -1524.3434
  -4576040.27749  -3560895.00046  20846832.5034   20846831.2064
      2323.5234
 04  9  9 21 19 29.9990000  0  6G 3G 8G13G19G23G27
  -4043645.36347  -3151472.24243  22592354.9724   22592354.4684
      1715.7814
  -7064786.45748  -5480522.14144  21986527.8004   21986526.6944
      3587.9154
  -2095594.24649  -1631422.05146  19883617.6054   19883615.4764
       751.9594
  -4334695.16047  -3376191.89143  23256614.1444   23256613.2574
      3628.8824
   2618519.76648   2030552.77044  21679971.2304   21679968.9294
     -1527.4474
  -4610881.18449  -3588043.75446  20840202.4724   20840200.9404
      2322.7274
 04  9  9 21 19 44.9990000  0  6G 3G 8G13G19G23G27
  -4069275.43047  -3171443.70343  22587477.4404   22587477.1754
      1708.6714
  -7118592.24248  -5522448.70744  21976288.6054   21976288.4604
      3587.0524
  -2106788.05149  -1640144.50446  19881487.2764   19881485.0034
       746.2544
  -4389092.33247  -3418579.27343  23246262.6594   23246261.6634
      3626.4784
   2641479.84848   2048443.68844  21684340.8554   21684338.0344
     -1530.6724
  -4645708.11349  -3615181.61746  20833575.1514   20833574.0384
      2321.7954
 04  9  9 21 19 59.9990000  0  6G 3G 8G13G19G23G27
  -4094798.82447  -3191332.03543  22582621.1674   22582620.3664
      1701.5604
  -7172385.25048  -5564365.32044  21966052.2304   21966051.8354
      3586.2014
  -2117896.41849  -1648800.37546  19879373.8314   19879371.1204
       740.5584
  -4443453.18047  -3460938.34443  23235918.2224   23235917.0934
      3624.0574
   2664487.94548   2066372.03944  21688719.3554   21688716.4094
     -1533.8734
  -4680521.39849  -3642308.83246  20826950.8784   20826948.9444
      2320.8864
 04  9  9 21 20 14.9990000  0  6G 3G 8G13G19G23G27
  -4120216.53947  -3211138.02743  22577783.5584   22577783.4404
      1694.5144
  -7226166.55948  -5606272.79744  21955818.2844   21955817.7764
      3585.4214
  -2128920.35549  -1657390.46146  19877275.9644   19877273.8194
       734.9294
  -4497778.40247  -3503269.64543  23225580.5654   23225579.4254
      3621.6824
   2687542.84448   2084336.86344  21693105.8864   21693103.6674
     -1536.9934
  -4715321.99249  -3669426.17646  20820328.3234   20820326.7764
      2320.0404
 04  9  9 21 20 29.9990000  0  6G 3G 8G13G19G23G27
  -4145528.43047  -3230861.53943  22572966.9484   22572967.3124
      1687.4594
  -7279936.13348  -5648171.15644  21945586.0264   21945585.4604
      3584.6384
  -2139859.77349  -1665914.68047  19875194.1754   19875192.2144
       729.2954
  -4552067.62147  -3545572.89543  23215249.3234   23215248.0154
      3619.2814
   2710644.43049   2102338.07044  21697502.4564   21697499.5304
     -1540.1064
  -4750109.89849  -3696533.62546  20813708.3394   20813706.9334
      2319.1944
 04  9  9 21 20 44.9990000  0  6G 3G 8G13G19G23G27
  -4170733.54347  -3250501.85943  22568169.9644   22568170.7334
      1680.3414
  -7333693.27348  -5690059.80944  21935356.2694   21935356.5624
      3583.8094
  -2150713.92249  -1674372.45747  19873128.3554   19873126.9524
       723.6104
  -4606319.77746  -3587847.27343  23204925.7614   23204924.0384
      3616.8104
   2733793.27048   2120376.10944  21701907.4334   21701904.5624
     -1543.2564
  -4784884.46949  -3723630.68046  20807090.9804   20807089.1674
      2318.3054
 04  9  9 21 20 59.9990000  0  6G 3G 8G13G19G23G27
  -4195833.71147  -3270060.43743  22563393.2924   22563393.8274
      1673.3454
  -7387439.50848  -5731939.96944  21925128.8394   21925127.9214
      3583.0824
  -2161484.58649  -1682765.18747  19871078.8944   19871077.0654
       718.0444
  -4660536.37946  -3630093.93043  23194609.2764   23194607.6754
      3614.4404
   2756987.30549   2138449.35244  21706321.1594   21706318.1634
     -1546.2694
  -4819647.66049  -3750718.87546  20800475.4014   20800474.0384
      2317.5464
 04  9  9 21 21 14.9990000  0  6G 3G 8G13G19G23G27
  -4220825.41847  -3289534.45743  22558637.4724   22558638.1324
      1666.1144
  -7441171.64848  -5773809.14544  21914903.7304   21914903.9564
      3582.1434
  -2172168.34049  -1691090.19547  19869045.9254   19869043.8664
       712.2504
  -4714713.82446  -3672310.08243  23184299.1984   23184297.5934
      3611.8304
   2780229.83248   2156560.37944  21710744.1594   21710741.3274
     -1549.5024
  -4854396.01649  -3777795.50046  20793863.1674   20793861.7304
      2316.5574
 04  9  9 21 21 29.9990000  0  6G 3G 8G13G19G23G27
  -4245711.25047  -3308926.02043  22553902.9094   22553902.4054
      1659.0554
  -7494892.28147  -5815669.35544  21904681.1284   21904681.3084
      3581.3764
  -2182767.67649  -1699349.41846  19867028.8624   19867026.6944
       706.6224
  -4768854.25446  -3714497.38743  23173996.4174   23173995.0344
      3609.3624
   2803518.00048   2174706.98044  21715175.5114   21715172.9094
     -1552.5454
  -4889132.28549  -3804862.72346  20787253.0584   20787251.7144
      2315.7514
 04  9  9 21 21 44.9990000  0  6G 3G 8G13G19G23G27
  -4270490.83247  -3328234.77042  22549186.5424   22549186.5424
      1651.9724
  -7548600.95348  -5857520.23044  21894460.3944   21894460.9914
      3580.5784
  -2193282.44149  -1707542.73847  19865027.8784   19865026.1984
       700.9844
  -4822957.16846  -3756655.47343  23163700.4484   23163699.3584
      3606.8614
   2826851.92248   2192889.21944  21719615.5114   21719613.0894
     -1555.5954
  -4923855.98449  -3831920.14846  20780645.3234   20780644.0584
      2314.9134
 04  9  9 21 21 59.9990000  0  6G 3G 8G13G19G23G27
  -4295161.23846  -3347458.45742  22544492.4254   22544491.8624
      1644.6944
  -7602295.06248  -5899359.77344  21884242.6674   21884242.3744
      3579.6074
  -2203709.79749  -1715667.96147  19863044.0734   19863041.7534
       695.1574
  -4877019.47746  -3798781.90243  23153413.5814   23153411.9644
      3604.1544
   2850234.21948   2211109.16044  21724065.3474   21724062.5464
     -1558.8204
  -4958564.55949  -3858965.77746  20774040.4094   20774039.6944
      2313.9054
 04  9  9 21 22 14.9990000  0  6G 3G 8G13G19G23G27
  -4319723.26247  -3366597.66843  22539818.6444   22539818.3824
      1637.4684
  -7655975.52748  -5941188.68444  21874028.1834   21874027.8944
      3578.6984
  -2214050.56649  -1723725.70747  19861075.9254   19861073.7374
       689.3854
  -4931041.70347  -3840877.11343  23143133.1204   23143131.2334
      3601.4824
   2873663.73448   2229365.89144  21728524.1054   21728521.3744
     -1561.9684
  -4993258.94549  -3886000.35946  20767438.4094   20767437.2574
      2312.9594
 04  9  9 21 22 29.9990000  0  6G 3G 8G13G19G23G27
  -4344178.49646  -3385653.67642  22535164.3154   22535164.8744
      1630.3494
  -7709644.04348  -5983008.28144  21863814.9874   21863814.8474
      3577.9014
  -2224306.40649  -1731717.28147  19859124.6284   19859122.1754
       683.7234
  -4985025.16447  -3882942.10943  23132860.0654   23132858.9874
      3598.8974
   2897138.61348   2247657.95744  21732991.2534   21732988.2184
     -1564.9924
  -5027940.86749  -3913025.22746  20760838.8234   20760837.4604
      2312.1284
 04  9  9 21 22 44.9990000  0  6G 3G 8G13G19G23G27
  -4368526.35547  -3404626.02043  22530531.1514   22530531.2694
      1623.1914
  -7763299.96948  -6024818.07044  21853604.4874   21853604.4804
      3577.0624
  -2234476.80949  -1739642.27047  19857189.2924   19857187.0854
       678.0274
  -5038969.08247  -3924976.28543  23122594.9644   23122594.0934
      3596.2614
   2920659.23448   2265985.67244  21737467.4014   21737464.3354
     -1568.0414
  -5062609.84849  -3940040.02046  20754241.3154   20754240.1474
      2311.2654
 04  9  9 21 22 59.9990000  0  6G 3G 8G13G19G23G27
  -4392765.98447  -3423514.04743  22525918.9334   22525919.1244
      1615.9754
  -7816942.75048  -6066617.62544  21843397.3554   21843396.0894
      3576.1854
  -2244560.96149  -1747500.05147  19855270.3554   19855267.9374
       672.2774
  -5092872.30947  -3966978.74643  23112337.3624   23112336.2764
      3593.5484
   2944226.08648   2284349.40244  21741951.8084   21741949.0894
     -1571.1234
  -5097265.12549  -3967044.12946  20747646.4874   20747645.6944
      2310.3524
 04  9  9 21 23 14.9990000  0  6G 3G 8G13G19G23G27
  -4416897.94547  -3442318.14543  22521326.7534   22521326.6554
      1608.7974
  -7870572.94548  -6108407.35544  21833191.2064   21833190.5624
      3575.3464
  -2254559.56649  -1755291.17647  19853367.7224   19853365.5034
       666.5744
  -5146735.23846  -4008949.83243  23102087.1904   23102086.0424
      3590.8624
   2967838.36748   2302748.54344  21746444.9644   21746442.2764
     -1574.1524
  -5131907.38749  -3994038.09046  20741054.6984   20741053.5224
      2309.4844
 04  9  9 21 23 29.9990000  0  6G 3G 8G13G19G23G27
  -4440920.90247  -3461037.32443  22516754.8234   22516755.2104
      1601.5304
  -7924189.09048  -6150186.14544  21822988.8554   21822988.4994
      3574.4104
  -2264471.25449  -1763014.57447  19851481.6284   19851479.3124
       660.7794
  -5200556.14847  -4050888.13343  23091845.9014   23091844.4524
      3588.0614
   2991497.25048   2321184.00444  21750946.8704   21750944.5584
     -1577.2594
  -5166535.41849  -4021020.96946  20734465.0504   20734463.7654
      2308.5354
 04  9  9 21 23 44.9990000  0  6G 3G 8G13G19G23G27
  -4464835.46947  -3479672.02342  22512203.8704   22512204.1444
      1594.3044
  -7977792.05548  -6191954.66044  21812788.0264   21812787.1244
      3573.5314
  -2274296.85949  -1770670.89547  19849611.8314   19849609.5814
       655.0404
  -5254335.49647  -4092794.07443  23081612.9334   23081610.6124
      3585.2904
   3015201.75448   2339654.99644  21755458.0264   21755455.2764
     -1580.3004
  -5201150.10549  -4047993.44546  20727877.9484   20727877.1834
      2307.6464
 04  9  9 21 23 59.9990000  0  6G 3G 8G13G19G23G27
  -4488640.73447  -3498221.56242  22507674.3084   22507673.8904
      1587.0184
  -8031381.18448  -6233712.41444  21802590.8784   21802589.7184
      3572.6094
  -2284035.44149  -1778259.40647  19847758.3474   19847756.3194
       649.2394
  -5308072.21947  -4134666.79743  23071386.1904   23071385.0344
      3582.4484
   3038952.53948   2358162.07044  21759978.1514   21759974.7064
     -1583.3864
  -5235750.57849  -4074954.84046  20721293.5974   20721292.7144
      2306.6984
 04  9  9 21 24 14.9990000  0  6G 3G 8G13G19G23G27
  -4512336.05547  -3516685.43042  22503164.7614   22503164.8194
      1579.6884
  -8084955.83648  -6275458.86344  21792395.6124   21792395.1084
      3571.6434
  -2293686.42249  -1785779.65647  19845921.7374   19845919.2964
       643.3994
  -5361765.32047  -4176505.50843  23061167.9644   23061167.3864
      3579.5404
   3062750.00848   2376705.53144  21764506.2304   21764503.4404
     -1586.4984
  -5270336.19549  -4101904.67646  20714712.2694   20714711.0504
      2305.7084
 04  9  9 21 24 29.9990000  0  6G 3G 8G13G19G23G27
  -4535921.48848  -3535063.68743  22498677.3084   22498676.6674
      1572.3624
  -8138515.86748  -6317193.94144  21782203.6754   21782203.1404
      3570.6694
  -2303249.77349  -1793231.62147  19844101.9404   19844099.7454
       637.5574
  -5415414.57447  -4218310.06243  23050959.2924   23050958.0424
      3576.6174
   3086593.83248   2395285.09444  21769043.8704   21769040.7024
     -1589.5884
  -5304907.12549  -4128843.05546  20708133.7694   20708132.5194
      2304.7294
 04  9  9 21 24 44.9990000  0  6G 3G 8G13G19G23G27
  -4559394.43747  -3553354.27343  22494209.9254   22494210.2264
      1564.8634
  -8192058.83248  -6358915.71544  21772014.8084   21772014.2694
      3569.5314
  -2312723.07849  -1800613.41446  19842299.3784   19842296.9014
       631.5544
  -5469017.11747  -4260078.21943  23040759.1754   23040757.4334
      3573.5034
   3110486.42648   2413902.66844  21773590.5894   21773587.2724
     -1592.8404
  -5339460.88349  -4155768.05546  20701558.2694   20701557.1714
      2303.5844
 04  9  9 21 24 59.9990000  0  6G 3G 8G13G19G23G27
  -4582758.03948  -3571559.66043  22489765.1204   22489764.0424
      1557.5734
  -8245588.02348  -6400626.75044  21761827.8004   21761828.3664
      3568.6134
  -2322109.59049  -1807927.58646  19840513.1124   19840511.0584
       625.7674
  -5522576.11747  -4301812.44543  23030566.9334   23030565.3904
      3570.6004
   3134424.30948   2432555.53544  21778145.6984   21778142.4804
     -1595.8594
  -5374000.97349  -4182682.40646  20694985.5734   20694984.1984
      2302.6734
 04  9  9 21 25 14.9990000  0  6G 3G 8G13G19G23G27
  -4606011.93047  -3589679.54742  22485339.5504   22485338.7694
      1550.2594
  -8299103.12148  -6442326.80944  21751644.8474   21751644.1554
      3567.6734
  -2331408.86748  -1815173.77346  19838743.4094   19838741.1634
       619.9524
  -5576090.81647  -4343512.14843  23020383.2224   23020382.0504
      3567.6474
   3158407.54348   2451243.73444  21782709.5194   21782706.7804
     -1598.8824
  -5408526.86749  -4209585.68746  20688415.7064   20688414.2104
      2301.7264
 04  9  9 21 25 29.9980000  0  6G 3G 8G13G19G23G27
  -4629154.17647  -3607712.46143  22480935.1864   22480935.0644
      1542.8164
  -8352600.24648  -6484012.85244  21741464.6934   21741464.6434
      3566.4754
  -2340620.27349  -1822351.50046  19836990.3974   19836988.2404
       614.0944
  -5629556.89847  -4385173.97743  23010209.5924   23010207.2604
      3564.4054
   3182434.71548   2469966.18044  21787281.2014   21787278.7404
     -1601.8114
  -5443036.11349  -4236476.00446  20681848.9754   20681847.1044
      2300.6164
 04  9  9 21 25 44.9980000  0  6G 3G 8G13G19G23G27
  -4652188.24247  -3625661.07843  22476551.7874   22476551.7834
      1535.6044
  -8406086.89148  -6525690.73044  21731286.2014   21731286.4674
      3565.7764
  -2349745.14149  -1829461.78547  19835254.1004   19835252.1274
       608.3244
  -5682981.60547  -4426803.55943  23000043.5684   23000041.8774
      3561.6474
   3206508.43848   2488724.88744  21791862.8734   21791860.0024
     -1604.9154
  -5477533.65649  -4263357.20346  20675284.3184   20675282.7564
      2299.8364
 04  9  9 21 25 59.9980000  0  6G 3G 8G13G19G23G27
  -4675111.94147  -3643523.68743  22472190.3264   22472188.8654
      1528.2474
  -8459559.12548  -6567357.38344  21721110.7174   21721110.9984
      3564.8164
  -2358782.36749  -1836503.78146  19833534.3974   19833532.3574
       602.4824
  -5736360.59447  -4468397.53543  22989885.1704   22989884.2174
      3558.5994
   3230627.33248   2507518.79344  21796452.4124   21796449.6434
     -1607.9264
  -5512016.75449  -4290227.14846  20668721.9364   20668720.5924
      2298.8734
 04  9  9 21 26 14.9980000  0  6G 3G 8G13G19G23G27
  -4697922.64147  -3661298.24642  22467849.2724   22467848.4364
      1520.7134
  -8513014.26648  -6609010.72744  21710938.4284   21710938.2444
      3563.6764
  -2367729.40649  -1843475.50046  19831832.0924   19831829.6314
       596.4694
  -5789691.01247  -4509953.64143  22979736.1474   22979735.6114
      3555.3614
   3254793.89848   2526349.84444  21801051.1314   21801048.6864
     -1611.1044
  -5546482.94549  -4317083.91846  20662163.6394   20662162.1114
      2297.7464
 04  9  9 21 26 29.9980000  0  6G 3G 8G13G19G23G27
  -4720622.37147  -3678986.32443  22463529.6544   22463529.5224
      1513.3154
  -8566454.38348  -6650652.36744  21700768.9434   21700769.5184
      3562.6744
  -2376588.35949  -1850378.58647  19830145.9904   19830144.1584
       590.5974
  -5842974.54346  -4551473.23843  22969597.8344   22969595.8774
      3552.2354
   3279005.84448   2545216.25844  21805658.4674   21805655.9514
     -1614.1304
  -5580934.32449  -4343929.14146  20655607.4434   20655606.5374
      2296.7594
 04  9  9 21 26 44.9980000  0  6G 3G 8G13G19G23G27
  -4743209.44947  -3696586.65243  22459231.4434   22459231.6354
      1505.8054
  -8619877.87148  -6692281.02344  21690603.1394   21690603.4634
      3561.5664
  -2385357.56649  -1857211.74247  19828477.3344   19828475.0724
       584.6144
  -5896209.38746  -4592954.87943  22959466.8574   22959465.6864
      3548.9904
   3303264.52348   2564119.08644  21810275.0534   21810271.6504
     -1617.2454
  -5615369.37949  -4370761.64146  20649054.7254   20649053.4554
      2295.6704
 04  9  9 21 26 59.9980000  0  6G 3G 8G13G19G23G27
  -4765686.41047  -3714101.15243  22454953.9594   22454953.9394
      1498.4644
  -8673287.22748  -6733898.67244  21680439.4674   21680439.1114
      3560.6244
  -2394039.60949  -1863976.97747  19826825.5684   19826823.0294
       578.8034
  -5949397.68746  -4634400.25443  22949344.2324   22949343.9204
      3545.8874
   3327567.19948   2583056.20744  21814899.9674   21814896.4474
     -1620.1784
  -5649790.52349  -4397583.31646  20642504.8654   20642503.1394
      2294.7434
 04  9  9 21 27 14.9980000  0  6G 3G 8G13G19G23G27
  -4788052.64547  -3731529.37143  22450698.1934   22450698.1584
      1491.0824
  -8726682.05548  -6775505.03144  21670278.6624   21670278.6974
      3559.6554
  -2402633.94949  -1870673.85946  19825189.6544   19825187.6544
       572.9564
  -6002538.57846  -4675808.69143  22939232.7254   22939231.3574
      3542.7264
   3351914.21148   2602027.87144  21819532.4364   21819529.6784
     -1623.1344
  -5684197.35549  -4424393.82446  20635957.3424   20635956.0534
      2293.7894
 04  9  9 21 27 29.9980000  0  6G 3G 8G13G19G23G27
  -4810307.89847  -3748871.11742  22446462.6864   22446462.8304
      1483.6844
  -8780062.04748  -6817099.80944  21660121.1394   21660121.1004
      3558.6664
  -2411140.31249  -1877302.20347  19823571.3114   19823569.3384
       567.0914
  -6055631.64146  -4717179.85943  22929129.6784   22929128.1154
      3539.5384
   3376305.51248   2621034.03544  21824174.5064   21824171.1474
     -1626.0874
  -5718589.83249  -4451193.15246  20629412.6934   20629411.1004
      2292.8324
 04  9  9 21 27 44.9980000  0  6G 3G 8G13G19G23G27
  -4832450.28147  -3766124.91843  22442248.9204   22442249.2294
      1476.1594
  -8833425.28948  -6858681.52344  21649966.1784   21649965.4514
      3557.5494
  -2419556.79349  -1883860.50047  19821969.4284   19821967.6894
       561.0994
  -6108674.65246  -4758512.04343  22919036.0924   22919034.2484
      3536.2014
   3400742.80148   2640076.05144  21828824.6394   21828821.2724
     -1629.1534
  -5752965.99649  -4477979.77346  20622870.9594   20622869.3814
      2291.7444
 04  9  9 21 27 59.9980000  0  6G 3G 8G13G19G23G27
  -4854480.23448  -3783291.11343  22438057.1704   22438057.5684
      1468.6644
  -8886772.43448  -6900250.73044  21639814.4124   21639813.7564
      3556.4764
  -2427883.97349  -1890349.21947  19820384.7954   19820382.9514
       555.1454
  -6161667.68046  -4799805.28143  22908951.9044   22908950.0964
      3532.8684
   3425225.50048   2659153.44144  21833483.5454   21833480.1434
     -1632.1804
  -5787326.37549  -4504754.08246  20616332.3734   20616331.1044
      2290.6924
 04  9  9 21 28 14.9980000  0  6G 3G 8G13G19G23G27
  -4876396.67647  -3800368.85243  22433886.6314   22433886.7564
      1461.0964
  -8940102.55147  -6941806.63744  21629666.0144   21629666.1544
      3555.3414
  -2436120.84049  -1896767.55147  19818817.4284   19818815.2054
       549.1244
  -6214609.46146  -4841058.57443  22898877.2174   22898875.3734
      3529.4524
   3449754.41048   2678266.83244  21838151.1004   21838148.0224
     -1635.2614
  -5821669.97749  -4531515.32046  20609797.0614   20609795.9434
      2289.5734
 04  9  9 21 28 29.9980000  0  7G 3G10G 8G13G19G23G27
  -4898202.36748  -3817360.28143  22429736.8504   22429737.2644
      1453.7134
   -129406.22756    -94883.53552  23637705.9514   23637706.3464

  -8993418.08248  -6983351.18444  21619520.5924   21619520.6624
      3554.3694
  -2444270.21149  -1903117.71147  19817266.8344   19817264.7724
       543.2914
  -6267502.46145  -4882273.85243  22888811.6394   22888810.2994
      3526.2004
   3474326.47748   2697413.86344  21842827.1314   21842823.5964
     -1638.1384
  -5855999.63349  -4558265.69946  20603264.3424   20603263.3184
      2288.6444
 04  9  9 21 28 44.9980000  0  7G 3G10G 8G13G19G23G27
  -4919896.13748  -3834264.51243  22425608.8574   22425609.0574
      1446.2514
   -183076.06246   -136704.13342  23627492.0534   23627493.1004
      3577.9894
  -9046718.16847  -7024883.71144  21609377.9284   21609377.3934
      3553.3394
  -2452331.09849  -1909398.92246  19815732.6474   19815730.4434
       537.3924
  -6320345.34045  -4923450.07843  22878756.0294   22878755.0884
      3522.8594
   3498942.56348   2716595.18044  21847511.4824   21847507.5764
     -1641.0724
  -5890314.34849  -4585004.42646  20596734.6704   20596733.5254
      2287.6484
 04  9  9 21 28 59.9980000  0  7G 3G10G 8G13G19G23G27
  -4941479.19148  -3851082.46943  22421502.0534   22421501.6504
      1438.8704
   -236665.16846   -178461.85942  23617295.5144   23617295.0334
      3572.6074
  -9100004.18448  -7066405.25444  21599237.9904   21599237.3304
      3552.4014
  -2460304.66449  -1915612.09046  19814215.1934   19814213.2954
       531.5714
  -6373139.10545  -4964588.03143  22868709.2484   22868708.1824
      3519.5844
   3523601.21148   2735809.68044  21852204.0224   21852200.8074
     -1643.9104
  -5924615.50849  -4611732.59446  20590207.1394   20590206.1824
      2286.7444
 04  9  9 21 29 14.9980000  0  7G 3G10G 8G13G19G23G27
  -4962952.58647  -3867814.98843  22417415.5614   22417415.0844
      1431.5604
   -290174.47346   -220157.37142  23607112.9754   23607112.6074
      3567.2874
  -9153277.03548  -7107916.55144  21589100.5614   21589100.2134
      3551.5234
  -2468192.00449  -1921758.07846  19812714.5374   19812712.1474
       525.8234
  -6425884.50046  -5005688.30543  22858672.4124   22858671.3814
      3516.3604
   3548301.25848   2755056.43844  21856904.1004   21856900.9714
     -1646.6704
  -5958904.04749  -4638450.93446  20583682.3974   20583681.4364
      2285.9034
 04  9  9 21 29 29.9980000  0  7G 3G10G 8G13G19G23G27
  -4984314.12948  -3884460.34843  22413350.9514   22413350.4864
      1424.1034
   -343601.48446   -261788.78942  23596945.6394   23596945.6704
      3561.8014
  -9206534.51248  -7149415.86344  21578965.7484   21578965.4714
      3550.4984
  -2475990.88349  -1927835.12947  19811230.5294   19811228.1434
       519.9254
  -6478578.93746  -5046748.87943  22848645.3814   22848643.7794
      3512.9634
   3573044.64848   2774336.95744  21861612.5224   21861609.5614
     -1649.5594
  -5993178.00449  -4665157.90646  20577159.8974   20577158.9044
      2284.9304
 04  9  9 21 29 44.9980000  0  7G 3G10G 8G13G19G23G27
  -5005566.06247  -3901020.28542  22409306.6864   22409306.4594
      1416.7964
   -396948.42246   -303357.82842  23586794.5844   23586794.6274
      3556.4634
  -9259778.96148  -7190905.03944  21568834.0224   21568833.4674
      3549.6304
  -2483703.68048  -1933845.10947  19809762.7644   19809760.7014
       514.1864
  -6531224.44147  -5087771.29743  22838627.0844   22838625.5064
      3509.7004
   3597828.69148   2793649.16044  21866328.8344   21866325.6154
     -1652.2704
  -6027439.60249  -4691855.25446  20570640.0924   20570639.4944
      2284.1074
 04  9  9 21 29 59.9980000  0  7G 3G10G 8G13G19G23G27
  -5026708.05947  -3917494.57442  22405283.7404   22405282.8464
      1409.4664
   -450214.92645   -344864.15242  23576657.7174   23576657.5964
      3551.1004
  -9313010.24648  -7232383.93444  21558704.2724   21558703.7794
      3548.7524
  -2491330.07849  -1939787.76247  19808311.6004   19808309.6704
       508.4274
  -6583820.51247  -5128755.21943  22828618.6314   22828616.6044
      3506.4054
   3622653.44548   2812993.08244  21871053.1154   21871049.9394
     -1654.9844
  -6061688.69549  -4718542.85546  20564122.8184   20564121.8224
      2283.2734
 04  9  9 21 30 14.9980000  0  7G 3G10G 8G13G19G23G27
  -5047739.25447  -3933882.51642  22401280.8734   22401280.9364
      1402.0804
   -503399.51245   -386306.64142  23566536.1074   23566536.5374
      3545.6394
  -9366227.45348  -7273851.87545  21548577.3264   21548576.9044
      3547.8144
  -2498869.28949  -1945662.48046  19806877.0064   19806874.8544
       502.6144
  -6636365.89546  -5169699.64543  22818619.4514   22818617.3344
      3503.0264
   3647519.69148   2832369.34044  21875784.9984   21875781.9284
     -1657.7504
  -6095924.37949  -4745220.00846  20557608.1154   20557607.0414
      2282.3794
 04  9  9 21 30 29.9980000  0  7G 3G10G 8G13G19G23G27
  -5068658.14547  -3950182.93742  22397300.2954   22397300.2054
      1394.5934
   -556500.71145   -427684.18442  23556431.6784   23556432.3304
      3540.0804
  -9419429.18748  -7315307.76245  21538453.4594   21538452.8814
      3546.7824
  -2506319.83249  -1951468.09446  19805459.4204   19805457.0924
       496.7034
  -6688858.80146  -5210603.15643  22808630.2724   22808628.2724
      3499.5274
   3672428.66447   2851778.90244  21880524.4434   21880521.9674
     -1660.5984
  -6130145.25449  -4771885.60946  20551096.1784   20551094.9944
      2281.3924
 04  9  9 21 30 44.9980000  0  7G 3G10G 8G13G19G23G27
  -5089466.05947  -3966396.87942  22393341.3424   22393340.5724
      1387.1944
   -609519.61346   -468997.56642  23546342.6004   23546343.8574
      3534.5934
  -9472616.73048  -7356752.57045  21528332.2484   21528331.8854
      3545.8364
  -2513683.12949  -1957205.73047  19804058.2094   19804056.0534
       490.8864
  -6741300.36347  -5251466.68443  22798651.4824   22798648.7294
      3496.1044
   3697378.75848   2871220.49644  21885272.8184   21885269.9754
     -1663.3404
  -6164352.82049  -4798540.84446  20544586.5684   20544585.1394
      2280.5044
 04  9  9 21 30 59.9980000  0  7G 3G10G 8G13G19G23G27
  -5110159.86747  -3982521.93043  22389402.9514   22389402.5224
      1379.5874
   -662452.87546   -510244.23442  23536270.3034   23536270.9944
      3528.8844
  -9525786.91848  -7398183.86745  21518213.8424   21518213.7484
      3544.6794
  -2520956.01248  -1962872.92247  19802674.0454   19802671.8934
       484.8594
  -6793687.21546  -5292287.58643  22788682.4044   22788680.2134
      3492.4574
   3722372.89848   2890696.40644  21890029.3974   21890026.2014
     -1666.2764
  -6198543.86749  -4825183.22346  20538080.1544   20538078.7134
      2279.4034
 04  9  9 21 31 14.9980000  0  7G 3G10G 8G13G19G23G27
  -5130740.23847  -3998558.57443  22385487.4904   22385486.0334
      1372.0254
   -715301.14846   -551424.65642  23526212.6704   23526213.5724
      3523.2184
  -9578940.56648  -7439602.28145  21508099.2874   21508099.2324
      3543.5774
  -2528139.20349  -1968470.21947  19801307.2484   19801304.9594
       478.8794
  -6846019.77047  -5333066.17243  22778723.7564   22778721.6704
      3488.8374
   3747410.26647   2910206.00444  21894793.3814   21894791.0844
     -1669.1584
  -6232719.16049  -4851813.30946  20531576.6934   20531575.6274
      2278.3534
 04  9  9 21 31 29.9980000  0  7G 3G10G 8G13G19G23G27
  -5151208.41447  -4014507.80143  22381591.6934   22381590.9324
      1364.5454
   -768065.36746   -592539.59842  23516172.0684   23516172.4394
      3517.6154
  -9632079.07448  -7481008.89544  21497987.7324   21497986.4434
      3542.5674
  -2535234.12149  -1973998.73047  19799957.1394   19799954.4864
       472.9954
  -6898299.02047  -5373803.22343  22768775.2794   22768773.0144
      3485.2834
   3772489.21947   2929748.01244  21899565.4204   21899562.8614
     -1671.9304
  -6266880.12149  -4878432.23046  20525076.3574   20525074.7404
      2277.3974
 04  9  9 21 31 44.9980000  0  7G 3G10G 8G13G19G23G27
  -5171562.05147  -4030367.77043  22377718.3974   22377717.9474
      1356.9094
   -820742.95347   -633587.06642  23506148.3264   23506148.0104
      3511.8394
  -9685199.85248  -7522401.70345  21487878.7644   21487878.6354
      3541.3854
  -2542238.39149  -1979456.60546  19798623.7644   19798621.8384
       466.9514
  -6950522.23447  -5414496.59443  22758837.3114   22758835.5644
      3481.5484
   3797611.97348   2949324.14144  21904346.5224   21904343.6274
     -1674.8504
  -6301024.35949  -4905038.12146  20518578.5844   20518577.5844
      2276.2834
 04  9  9 21 31 59.9980000  0  7G 3G10G 8G13G19G23G27
  -5191801.87548  -4046139.05543  22373866.9754   22373867.0294
      1349.3224
   -873334.51646   -674567.47742  23496140.4754   23496140.2214
      3506.1044
  -9738303.80148  -7563781.36744  21477773.5224   21477772.6474
      3540.2634
  -2549152.78949  -1984844.44947  19797308.0534   19797306.1824
       460.9604
  -7002689.97346  -5455146.75043  22748909.6624   22748908.6274
      3477.8494
   3822777.32848   2968933.46944  21909135.5764   21909132.8974
     -1677.6904
  -6335152.77049  -4931631.68446  20512084.3814   20512083.1194
      2275.2274
 04  9  9 21 32 14.9980000  0  7G 3G10G 8G13G19G23G27
  -5211927.10947  -4061821.05943  22370037.1004   22370037.7094
      1341.6824
   -925839.01646   -715480.03542  23486148.4124   23486148.9204
      3500.3004
  -9791390.04748  -7605147.25444  21467671.5454   21467670.8144
      3539.0834
  -2555976.43049  -1990161.58247  19796010.0224   19796007.4124
       454.9094
  -7054800.99646  -5495752.72343  22738993.5224   22738991.5224
      3474.0684
   3847986.18447   2988576.69144  21913932.7954   21913930.3974
     -1680.5904
  -6369264.52749  -4958212.27746  20505593.2794   20505591.8184
      2274.1174
 04  9  9 21 32 29.9980000  0  7G 3G10G 8G13G19G23G27
  -5231939.89847  -4077415.43743  22366229.3034   22366229.4474
      1334.1864
   -978258.33246   -756326.24242  23476173.9124   23476173.3614
      3494.6214
  -9844460.65248  -7646500.95344  21457572.5294   21457571.5254
      3538.0404
  -2562711.62949  -1995409.78947  19794728.0924   19794725.7254
       449.0134
  -7106857.26647  -5536316.01243  22729087.0224   22729085.8654
      3470.4184
   3873236.11748   3008251.93044  21918737.8114   21918735.2524
     -1683.3294
  -6403361.88749  -4984781.64546  20499104.6154   20499103.4634
      2273.1574
 04  9  9 21 32 44.9980000  0  7G 3G10G 8G13G19G23G27
  -5251838.35247  -4092920.71543  22362442.3894   22362442.5024
      1326.5644
  -1030590.43446   -797104.47742  23466215.1004   23466215.2294
      3488.8074
  -9897513.78948  -7687841.03945  21447476.6784   21447475.9204
      3536.8764
  -2569356.47749  -2000587.59447  19793463.6474   19793461.4324
       442.9904
  -7158856.48047  -5576834.83243  22719192.4824   22719191.2684
      3466.6144
   3898528.74648   3027960.43844  21923550.6004   21923548.1004
     -1686.1754
  -6437442.82849  -5011338.20746  20492619.2724   20492617.7994
      2272.0634
 04  9  9 21 32 59.9980000  0  7G 3G10G 8G13G19G23G27
  -5271622.43047  -4108336.86742  22358678.1154   22358677.5534
      1318.9394
  -1082835.13746   -837814.57842  23456273.2484   23456273.7214
      3482.9804
  -9950549.60548  -7729167.64845  21437384.2724   21437384.4364
      3535.7214
  -2575911.02749  -2005695.04347  19792216.3814   19792214.1584
       436.9704
  -7210798.39847  -5617309.02743  22709308.4434   22709306.2604
      3462.7954
   3923863.87948   3047702.06644  21928371.5924   21928368.7484
     -1689.0094
  -6471507.45749  -5037882.07046  20486136.7954   20486135.9674
      2270.9754
 04  9  9 21 33 14.9980000  0  7G 3G10G 8G13G19G23G27
  -5291291.97347  -4123663.77043  22354934.7564   22354934.6934
      1311.3034
  -1134992.06646   -878456.31642  23446348.1004   23446349.4474
      3477.1294
 -10003567.99249  -7770480.65245  21427295.4674   21427294.6354
      3534.5594
  -2582375.14549  -2010732.02047  19790986.3654   19790984.1544
       430.9414
  -7262682.65247  -5657738.26643  22699434.6394   22699433.0254
      3458.9504
   3949241.32848   3067476.67644  21933201.2014   21933198.0184
     -1691.8304
  -6505555.91449  -5064413.33646  20479657.9364   20479656.4634
      2269.8974
 04  9  9 21 33 29.9980000  0  7G 3G10G 8G13G19G23G27
  -5310846.78947  -4138901.28143  22351213.2724   22351213.3184
      1303.6544
  -1187060.84446   -919029.37542  23436439.7644   23436441.2014
      3471.2524
 -10056568.79749  -7811779.96145  21417209.5844   21417208.9634
      3533.3874
  -2588748.69549  -2015698.43047  19789773.5374   19789771.3854
       424.9034
  -7314508.71147  -5698122.16843  22689572.0614   22689570.7524
      3455.0714
   3974661.15248   3087284.29744  21938038.2404   21938035.4794
     -1694.6554
  -6539587.84849  -5090931.71146  20473181.9124   20473180.4714
      2268.7964
 04  9  9 21 33 44.9980000  0  7G 3G10G 8G13G19G23G27
  -5330284.92647  -4154047.87943  22347513.7874   22347514.3734
      1295.8764
  -1239039.40646   -959532.09442  23426549.0224   23426549.1504
      3465.2384
 -10109550.01249  -7853064.00045  21407127.6314   21407127.5104
      3532.0814
  -2595029.80149  -2020592.80947  19788578.1704   19788575.9634
       418.7404
  -7366274.41047  -5738459.02743  22679722.0684   22679719.9204
      3451.0474
   4000125.00048   3107126.23044  21942883.5534   21942881.3114
     -1697.5904
  -6573601.48449  -5117435.83646  20466708.8114   20466708.1274
      2267.5764
 04  9  9 21 33 59.9980000  0  7G 3G10G 8G13G19G23G27
  -5349607.85247  -4169104.71543  22343837.2564   22343837.1864
      1288.1954
  -1290928.91046   -999965.44942  23416675.0614   23416675.1704
      3459.3004
 -10162513.05549  -7894333.88744  21397049.3264   21397048.4794
      3530.8704
  -2601219.94549  -2025416.29747  19787400.2094   19787398.2874
       412.6764
  -7417980.87147  -5778749.73843  22669882.6624   22669880.4824
      3447.0974
   4025631.26648   3127001.19144  21947737.3734   21947735.5684
     -1700.4184
  -6607598.24249  -5143926.81246  20460239.5844   20460238.6584
      2266.4514
 04  9  9 21 34 14.9980000  0  7G 3G10G 8G13G19G23G27
  -5368815.41047  -4184071.63743  22340182.9514   22340182.3774
      1280.5044
  -1342729.14146  -1040329.22742  23406817.2014   23406817.8974
      3453.3494
 -10215457.66449  -7935589.41845  21386973.8424   21386973.4514
      3529.6414
  -2607319.02349  -2030168.83647  19786239.7794   19786237.5184
       406.6054
  -7469627.64847  -5818993.93743  22660054.4284   22660052.3544
      3443.1184
   4051179.77747   3146909.08644  21952599.0144   21952597.0334
     -1703.2344
  -6641578.00049  -5170404.54746  20453773.3114   20453772.3074
      2265.3174
 04  9  9 21 34 29.9980000  0  7G 3G10G 8G13G19G23G27
  -5387908.06246  -4198949.00843  22336549.0534   22336549.2444
      1272.8434
  -1394440.16046  -1080623.53142  23396977.4364   23396977.6394
      3447.4014
 -10268384.54349  -7976831.10545  21376902.4904   21376901.8934
      3528.4594
  -2613327.32049  -2034850.63747  19785096.3344   19785094.4474
       400.5534
  -7521214.96147  -5859191.79743  22650237.5064   22650235.2564
      3439.1544
   4076769.90647   3166849.40244  21957468.5224   21957466.9434
     -1706.0094
  -6675541.24649  -5196869.41446  20447310.2404   20447309.5724
      2264.2164
 04  9  9 21 34 44.9980000  0  7G 3G10G 8G13G19G23G27
  -5406884.53947  -4213735.85943  22332937.6704   22332938.0494
      1265.0984
  -1446060.66446  -1120847.31242  23387154.6074   23387154.6934
      3441.3674
 -10321292.38349  -8018057.98845  21366834.8424   21366833.4824
      3527.1894
  -2619243.87149  -2039460.93746  19783970.5144   19783968.7364
       394.4374
  -7572741.23047  -5899342.08243  22640432.1544   22640430.3504
      3435.0854
   4102402.58247   3186822.87143  21962346.7174   21962343.7724
     -1708.8454
  -6709486.80549  -5223320.48846  20440850.9754   20440849.1894
      2263.0374
 04  9  9 21 34 59.9980000  0  7G 3G10G 8G13G19G23G27
  -5425746.19946  -4228433.25043  22329349.1784   22329348.4434
      1257.4444
  -1497591.70346  -1161001.32042  23377348.5614   23377348.2014
      3435.4034
 -10374182.68048  -8059271.17645  21356769.7484   21356769.2094
      3526.0204
  -2625070.02049  -2044000.81246  19782861.6704   19782859.8814
       388.4104
  -7624207.53547  -5939445.64543  22630638.9824   22630636.4674
      3431.0874
   4128076.41447   3206828.41844  21967232.1314   21967229.6974
     -1711.5894
  -6743416.15648  -5249758.93446  20434394.3814   20434392.9634
      2261.9574
 04  9  9 21 35 14.9980000  0  7G 3G10G 8G13G19G23G27
  -5444491.99647  -4243040.35243  22325781.7724   22325781.7054
      1249.7204
  -1549032.01646  -1201084.64542  23367557.8654   23367558.6894
      3429.3544
 -10427054.08249  -8100469.65645  21346708.4984   21346708.3774
      3524.7604
  -2630804.68749  -2048469.38346  19781770.3574   19781768.0964
       382.3114
  -7675612.52347  -5979501.44143  22620856.5454   22620854.2564
      3426.9994
   4153792.19548   3226866.65244  21972125.6784   21972122.9204
     -1714.3854
  -6777328.12149  -5276183.84046  20427940.9124   20427939.6934
      2260.7984
 04  9  9 21 35 29.9980000  0  7G 3G10G 8G13G19G23G27
  -5463121.01246  -4257556.46543  22322236.6004   22322236.3974
      1241.9344
  -1600380.50046  -1241096.40642  23357786.9984   23357787.7444
      3423.2324
 -10479905.91849  -8141652.88345  21336651.3734   21336651.1154
      3523.4564
  -2636447.03149  -2052866.02347  19780696.8814   19780694.3734
       376.1564
  -7726955.02347  -6019508.52043  22611087.1864   22611084.7684
      3422.8334
   4179550.55948   3246938.07044  21977027.3974   21977024.4474
     -1717.2244
  -6811221.92249  -5302594.58646  20421491.4674   20421490.0224
      2259.5874
 04  9  9 21 35 44.9980000  0  7G 3G10G 8G13G19G23G27
  -5481633.36347  -4271981.65643  22318713.8184   22318713.8614
      1234.1574
  -1651637.19546  -1281036.69542  23348033.4824   23348033.9794
      3417.1134
 -10532738.35249  -8182821.00045  21326597.1544   21326597.2954
      3522.1624
  -2641997.22749  -2057190.85546  19779640.5844   19779637.9204
       370.0134
  -7778234.87547  -6059466.80543  22601328.0454   22601326.3304
      3418.6574
   4205351.09848   3267042.34444  21981937.4434   21981934.1584
     -1720.0364
  -6845097.88349  -5328991.43446  20415044.9364   20415044.0494
      2258.3974
 04  9  9 21 35 59.9980000  0  7G 3G10G 8G13G19G23G27
  -5500027.80147  -4286314.97743  22315213.4044   22315213.0414
      1226.2964
  -1702800.46546  -1320904.14142  23338297.4984   23338298.2994
      3410.8854
 -10585549.86349  -8223972.81245  21316547.1934   21316547.3734
      3520.7674
  -2647453.88349  -2061442.80146  19778602.1234   19778599.9434
       363.7774
  -7829450.42647  -6099374.97343  22591581.7094   22591580.3504
      3414.3704
   4231194.98048   3287180.39844  21986855.2794   21986852.4474
     -1722.9264
  -6878954.47749  -5355373.19146  20408602.4824   20408601.0764
      2257.1064
 04  9  9 21 36 14.9980000  0  7G 3G10G 8G13G19G23G27
  -5518307.05947  -4300558.55143  22311734.7874   22311734.0684
      1218.6174
  -1753872.87146  -1360700.80542  23328578.3034   23328579.5764
      3404.8274
 -10638343.14849  -8265110.41445  21306501.4044   21306501.1114
      3519.5524
  -2652819.84049  -2065624.07846  19777581.0764   19777578.6394
       357.7304
  -7880604.03947  -6139234.87543  22581847.6784   22581846.2364
      3410.2414
   4257079.35248   3307350.00044  21991781.1934   21991777.6894
     -1725.6254
  -6912794.46949  -5381742.01246  20402162.9364   20402161.3264
      2255.9994
 04  9  9 21 36 29.9980000  0  7G 3G10G 8G13G19G23G27
  -5536468.20347  -4314710.07843  22308278.9124   22308278.3464
      1210.7434
  -1804851.34045  -1400424.23042  23318878.1234   23318878.7794
      3398.5654
 -10691115.39549  -8306231.62944  21296459.4674   21296458.3854
      3518.1504
  -2658092.25049  -2069732.45746  19776577.3974   19776575.4864
       351.4944
  -7931692.59847  -6179044.08643  22572126.2794   22572123.9394
      3405.9044
   4283006.73848   3327553.12144  21996714.5614   21996711.3894
     -1728.4924
  -6946615.02049  -5408095.69146  20395727.0064   20395725.7094
      2254.7034
 04  9  9 21 36 44.9980000  0  7G 3G10G 8G13G19G23G27
  -5554512.57847  -4328770.62943  22304845.2724   22304845.2954
      1202.9584
  -1855736.92646  -1440075.32042  23309194.7254   23309195.6824
      3392.3724
 -10743868.03549  -8347337.56244  21286420.6934   21286420.4554
      3516.8434
  -2663272.40649  -2073768.94546  19775591.9594   19775590.0414
       345.3444
  -7982717.16047  -6218803.44143  22562416.6934   22562413.7054
      3401.6374
   4308975.68448   3347788.62544  22001656.9364   22001653.0294
     -1731.2634
  -6980417.59449  -5434435.34046  20389294.5454   20389293.0414
      2253.5054
 04  9  9 21 36 59.9980000  0  7G 3G10G 8G13G19G23G27
  -5572441.09847  -4342740.91443  22301433.7324   22301433.5804
      1195.2354
  -1906530.41846  -1479654.63742  23299529.7954   23299529.9394
      3386.2334
 -10796601.93449  -8388428.90645  21276385.4594   21276384.8974
      3515.5934
  -2668361.34449  -2077734.36346  19774623.6314   19774621.6824
       339.2634
  -8033678.44147  -6258513.48043  22552718.7174   22552716.1624
      3397.4194
   4334984.99248   3368055.58643  22006605.8264   22006602.5454
     -1733.9544
  -7014203.08649  -5460761.69946  20382865.3574   20382864.1784
      2252.3664
 04  9  9 21 37 14.9980000  0  7G 3G10G 8G13G19G23G27
  -5590252.78947  -4356620.13343  22298043.8734   22298043.9714
      1187.4464
  -1957230.55546  -1519161.20342  23289881.2724   23289882.4634
      3380.0094
 -10849316.02349  -8429504.80944  21266354.3184   21266353.4984
      3514.2734
  -2673358.09049  -2081627.92646  19773672.8974   19773670.5924
       333.1164
  -8084574.97347  -6298173.07043  22543033.8344   22543031.0614
      3393.1024
   4361035.52348   3388354.65644  22011563.1864   22011559.8894
     -1736.7024
  -7047970.53149  -5487073.97746  20376439.8734   20376438.5144
      2251.1634
 04  9  9 21 37 29.9980000  0  7G 3G10G 8G13G19G23G27
  -5607946.43747  -4370407.39543  22294677.2874   22294677.4284
      1179.5774
  -2007835.93446  -1558593.95742  23280251.6544   23280251.7014
      3373.6924
 -10902009.11749  -8470564.34845  21256327.2254   21256327.1504
      3512.8734
  -2678261.53149  -2085448.79747  19772739.6934   19772737.3774
       326.8964
  -8135405.34047  -6337781.10543  22533361.0374   22533358.5964
      3388.6914
   4387128.28548   3408686.63743  22016528.5294   22016525.1044
     -1739.5174
  -7081718.67249  -5513371.23446  20370017.3654   20370016.1974
      2249.8764
 04  9  9 21 37 44.9980000  0  7G 3G10G 8G13G19G23G27
  -5625523.84848  -4384104.07443  22291332.5534   22291332.1974
      1171.8274
  -2058348.10946  -1597954.07042  23270639.1474   23270639.7954
      3367.4784
 -10954683.19149  -8511609.07045  21246303.7484   21246303.6004
      3511.6054
  -2683073.43449  -2089198.33246  19771823.9284   19771821.5764
       320.7934
  -8186171.05147  -6377338.75443  22523700.0844   22523698.3774
      3384.3814
   4413261.19547   3429049.89543  22021501.9204   22021498.3464
     -1742.1944
  -7115449.43049  -5539654.94146  20363598.6934   20363597.5494
      2248.7174
 04  9  9 21 37 59.9980000  0  7G 3G10G 8G13G19G23G27
  -5642983.97347  -4397709.35543  22288009.7254   22288009.9164
      1164.0084
  -2108765.94146  -1637240.66042  23261045.2644   23261045.8774
      3361.1894
 -11007337.09849  -8552638.07045  21236284.2404   21236283.6004
      3510.2604
  -2687792.65248  -2092875.65246  19770925.8034   19770923.7324
       314.6154
  -8236870.73447  -6416844.96943  22514052.4904   22514050.8614
      3379.9794
   4439435.03947   3449445.06343  22026482.6934   22026478.9944
     -1744.9234
  -7149161.87548  -5565924.36746  20357183.4674   20357182.1704
      2247.4964
 04  9  9 21 38 14.9980000  0  7G 3G10G 8G13G19G23G27
  -5660326.25448  -4411222.81243  22284710.4364   22284709.4794
      1156.1524
  -2159088.52746  -1676453.07042  23251469.1864   23251469.1584
      3354.8394
 -11059970.43449  -8593651.04745  21226268.3264   21226268.1744
      3508.8894
  -2692418.75849  -2096480.41846  19770045.7094   19770043.7364
       308.4074
  -8287503.59447  -6456299.09043  22504417.1864   22504415.6864
      3375.5244
   4465650.18447   3469872.40243  22031470.6234   22031468.0494
     -1747.6764
  -7182855.23849  -5592178.93446  20350771.8034   20350770.5184
      2246.2244
 04  9  9 21 38 29.9980000  0  7G 3G10G 8G13G19G23G27
  -5677552.39848  -4424645.78543  22281432.0844   22281431.7644
      1148.4104
  -2209317.41046  -1715592.41442  23241911.0374   23241911.2444
      3348.5924
 -11112584.46149  -8634648.96945  21216256.1004   21216255.7604
      3507.6024
  -2696953.56249  -2100014.03546  19769182.8264   19769180.6394
       302.3204
  -8338070.88748  -6495702.13743  22494794.9364   22494792.6504
      3371.1534
   4491904.82447   3490330.52043  22036466.8974   22036464.2484
     -1750.3094
  -7216531.36349  -5618420.05946  20344363.3424   20344362.0534
      2245.0754
 04  9  9 21 38 44.9980000  0  7G 3G10G 8G13G19G23G27
  -5694660.19948  -4437976.53543  22278176.3184   22278176.2174
      1140.5204
  -2259450.27747  -1754656.94942  23232371.2644   23232370.6074
      3342.1914
 -11165177.35949  -8675630.44145  21206248.1624   21206247.7214
      3506.1934
  -2701394.97749  -2103474.88346  19768337.7724   19768335.9004
       296.0944
  -8388570.30947  -6535052.28144  22485184.8344   22485182.8974
      3366.6284
   4518200.84447   3510820.87543  22041470.8504   22041467.8304
     -1753.0684
  -7250188.16449  -5644646.13346  20337958.6784   20337957.6894
      2243.7874
 04  9  9 21 38 59.9980000  0  7G 3G10G 8G13G19G23G27
  -5711649.17248  -4451214.68443  22274943.1864   22274943.1154
      1132.5984
  -2309486.42647  -1793646.11342  23222849.1864   23222849.2954
      3335.7434
 -11217748.25849  -8716594.74645  21196244.3264   21196243.4984
      3504.7274
  -2705742.37148  -2106862.46546  19767510.1394   19767508.0224
       289.8264
  -8439001.07447  -6574348.94543  22475587.7874   22475586.5104
      3362.0514
   4544538.54347   3531343.71143  22046483.0534   22046479.6114
     -1755.8474
  -7283825.01648  -5670856.66846  20331557.6234   20331556.7834
      2242.4574
 04  9  9 21 39 14.9980000  0  7G 3G10G 8G13G19G23G27
  -5728522.64848  -4464362.85243  22271732.3264   22271732.4474
      1124.8984
  -2359428.73046  -1832562.19142  23213344.6704   23213345.8974
      3329.4874
 -11270300.61349  -8757544.62145  21186243.9674   21186243.4864
      3503.4904
  -2709999.07448  -2110179.38346  19766700.0064   19766697.7684
       283.7804
  -8489365.95348  -6613594.26243  22466004.0924   22466002.7524
      3357.6594
   4570914.42648   3551896.31343  22051502.0294   22051499.6044
     -1758.3924
  -7317445.24648  -5697054.24246  20325159.8034   20325158.8184
      2241.3494
 04  9  9 21 39 29.9980000  0  7G 3G10G 8G13G19G23G27
  -5745278.09048  -4477419.02343  22268543.5614   22268543.5684
      1117.0294
  -2409274.54346  -1871403.07842  23203860.0144   23203860.1154
      3323.0544
 -11322831.74249  -8798477.95345  21176247.8734   21176247.0724
      3502.0754
  -2714162.56648  -2113423.68046  19765907.9904   19765905.4944
       277.5664
  -8539662.18748  -6652786.07843  22456432.8894   22456431.5844
      3353.0824
   4597330.90247   3572480.55543  22056528.5294   22056525.9824
     -1761.0984
  -7351046.32048  -5723236.88746  20318765.8974   20318764.8114
      2240.0724
 04  9  9 21 39 44.9980000  0  7G 3G10G 8G13G19G23G27
  -5761912.77748  -4490381.11743  22265378.4284   22265377.8974
      1108.9794
  -2459021.13346  -1910166.61742  23194393.8894   23194393.5724
      3316.4394
 -11375339.31649  -8839392.92245  21166255.8034   21166255.2054
      3500.5054
  -2718230.29348  -2116593.34846  19765134.0844   19765131.4364
       271.1824
  -8589886.89847  -6691922.18044  22446875.0144   22446873.7094
      3348.3144
   4623790.36347   3593098.27043  22061564.0064   22061561.7174
     -1763.9644
  -7384625.63748  -5749402.57446  20312376.2404   20312375.0534
      2238.6214
 04  9  9 21 39 59.9980000  0  7G 3G10G 8G13G19G23G27
  -5778429.21548  -4503251.07443  22262235.0614   22262234.9944
      1101.0964
  -2508670.73446  -1948854.60542  23184945.5764   23184945.6194
      3309.9734
 -11427825.50049  -8880291.23845  21156267.6394   21156267.3654
      3499.0794
  -2722204.74249  -2119690.32446  19764377.6394   19764375.2994
       264.9634
  -8640042.27748  -6731004.24643  22437331.4594   22437329.2054
      3343.6924
   4650290.13347   3613747.39843  22066606.1624   22066604.4044
     -1766.6514
  -7418185.71549  -5775553.28546  20305989.7954   20305988.6434
      2237.3394
 04  9  9 21 40 14.9980000  0  7G 3G10G 8G13G19G23G27
  -5794827.22348  -4516028.73443  22259114.6234   22259114.2994
      1093.2014
  -2558222.92646  -1987466.69142  23175516.3184   23175516.4904
      3303.4794
 -11480290.19149  -8921172.79345  21146283.8264   21146283.6544
      3497.6464
  -2726085.58649  -2122714.36346  19763639.1544   19763636.7404
       258.7234
  -8690127.74247  -6770031.84843  22427799.8574   22427798.5294
      3339.0314
   4676830.20747   3634427.93043  22071656.9044   22071654.4474
     -1769.3384
  -7451726.27049  -5801688.77746  20299606.8974   20299605.8034
      2236.0374
 04  9  9 21 40 29.9980000  0  7G 3G10G 8G13G19G23G27
  -5811108.33247  -4528715.30543  22256016.9124   22256016.0764
      1085.4074
  -2607678.97746  -2026003.83242  23166105.7644   23166105.4324
      3297.0704
 -11532734.90649  -8962038.78945  21136303.9674   21136304.0104
      3496.3144
  -2729874.66449  -2125666.90247  19762918.2954   19762915.8304
       252.6054
  -8740144.46547  -6809005.87543  22418282.4904   22418280.3304
      3334.4484
   4703408.80147   3655138.48043  22076715.4204   22076712.0494
     -1771.9064
  -7485248.91849  -5827810.31646  20293227.9124   20293226.9044
      2234.8434
 04  9  9 21 40 44.9980000  0  7G 3G10G 8G13G19G23G27
  -5827268.77747  -4541307.85942  22252941.3654   22252940.7254
      1077.3634
  -2657034.88245  -2064463.01642  23156712.6704   23156713.4394
      3290.3944
 -11585155.86349  -9002886.27745  21126329.0684   21126328.8384
      3494.7304
  -2733568.02049  -2128544.84046  19762215.2564   19762213.0844
       246.2244
  -8790088.51647  -6847923.26643  22408778.0374   22408776.3224
      3329.6034
   4730029.48047   3675881.83243  22081780.6784   22081778.2644
     -1774.7124
  -7518749.85548  -5853914.94146  20286853.1784   20286851.7794
      2233.3964
 04  9  9 21 40 59.9980000  0  8G 3G10G 8G13G19G28G23G27
  -5843309.93048  -4553807.45343  22249888.9044   22249888.4634
      1069.4104
  -2706291.90645  -2102845.04742  23147338.9284   23147340.1824
      3283.8024
 -11637554.31649  -9043716.21545  21116357.5144   21116357.7954
      3493.2304
  -2737166.96949  -2131349.22746  19761530.4284   19761528.2644
       239.9304
  -8839960.96147  -6886784.87544  22399287.7724   22399285.7294
      3324.8304
   -172404.52757   -131211.98852  23561131.0534   23561132.8894

   4756690.76647   3696656.81643  22086853.8504   22086852.0494
     -1777.4194
  -7552230.50449  -5880003.75446  20280482.0764   20280480.6894
      2232.0434
 04  9  9 21 41 14.9980000  0  8G 3G10G 8G13G19G28G23G27
  -5859234.34447  -4566216.08243  22246858.9204   22246858.7134
      1061.6284
  -2755452.25045  -2141151.77742  23137984.3734   23137985.2174
      3277.3564
 -11689932.83649  -9084530.63345  21106390.1704   21106390.4394
      3491.9014
  -2740674.29749  -2134082.21146  19760862.9594   19760860.7724
       233.8224
  -8889763.91448  -6925592.32444  22389810.4434   22389808.1824
      3320.1974
   -243829.57847   -186867.76642  23547539.0374   23547541.2524
      4761.6704
   4783389.89547   3717461.28544  22091935.6004   22091932.4634
     -1779.9424
  -7585693.33249  -5906078.67646  20274114.2094   20274113.2994
      2230.8554
 04  9  9 21 41 29.9980000  0  8G 3G10G 8G13G19G28G23G27
  -5875042.60248  -4578534.22743  22243850.1864   22243850.7214
      1053.8844
  -2804516.35546  -2179383.52342  23128648.3574   23128649.1004
      3270.9404
 -11742292.05549  -9125330.00045  21096426.5844   21096426.2644
      3490.6154
  -2744090.58649  -2136744.26246  19760212.9754   19760210.5614
       227.7534
  -8939497.69148  -6964345.89144  22380346.1234   22380343.9634
      3315.5854
   -315247.00847   -242517.64542  23533949.1234   23533950.6744
      4761.1624
   4810126.13347   3738294.66843  22097022.8264   22097020.4084
     -1782.4164
  -7619138.83649  -5932140.10946  20267749.7874   20267748.7724
      2229.7004
 04  9  9 21 41 44.9980000  0  8G 3G10G 8G13G19G28G23G27
  -5890736.18047  -4590762.99243  22240864.1544   22240864.0534
      1046.2394
  -2853485.37146  -2217541.14842  23119329.4594   23119329.4904
      3264.6014
 -11794632.97749  -9166115.12945  21086466.2484   21086466.0374
      3489.3954
  -2747417.24649  -2139336.47346  19759579.6234   19759577.5924
       221.7774
  -8989163.48447  -7003046.46144  22370895.2324   22370893.1274
      3311.0534
   -386658.16847   -298162.62142  23520359.6234   23520361.4864
      4760.7444
   4836897.69547   3759155.59843  22102116.6154   22102114.3344
     -1784.7714
  -7652568.51649  -5958189.20746  20261388.5764   20261387.3384
      2228.6454
 04  9  9 21 41 59.9980000  0  8G 3G10G 8G13G19G28G23G27
  -5906316.02748  -4602903.14543  22237898.9044   22237899.1934
      1038.6574
  -2902360.14545  -2255625.37942  23110028.6544   23110028.8264
      3258.3184
 -11846956.84849  -9206886.94945  21076509.8504   21076509.2174
      3488.2584
  -2750655.14149  -2141859.50047  19758963.7324   19758961.4284
       215.8604
  -9038761.86748  -7041694.52043  22361456.7564   22361454.6354
      3306.5594
   -458063.73047   -353803.23442  23506772.0844   23506773.3144
      4760.3714
   4863703.54747   3780043.21943  22107217.5454   22107215.7014
     -1787.0574
  -7685983.48049  -5984226.84446  20255029.6784   20255028.7054
      2227.6644
 04  9  9 21 42 14.9980000  0  8G 3G10G 8G13G19G28G23G27
  -5921781.84848  -4614954.42643  22234956.1004   22234956.2564
      1031.0554
  -2951140.14846  -2293635.74242  23100746.1154   23100746.6624
      3252.0004
 -11899263.26649  -9247645.19145  21066555.8894   21066555.1314
      3487.0954
  -2753804.13349  -2144313.27746  19758364.8114   19758362.4944
       209.9334
  -9088292.21548  -7080289.56244  22352031.9824   22352029.3934
      3302.0234
   -529463.23047   -409439.09442  23493185.1074   23493187.2444
      4759.9674
   4890543.84447   3800957.69543  22112325.6154   22112323.6824
     -1789.3534
  -7719383.22749  -6010252.60946  20248673.8504   20248672.7014
      2226.6504
 04  9  9 21 42 29.9980000  0  8G 3G10G 8G13G19G28G23G27
  -5937130.80948  -4626914.64843  22232035.8654   22232035.3384
      1023.2644
  -2999822.33245  -2331569.88342  23091481.3734   23091482.9044
      3245.4794
 -11951549.48049  -9288387.68745  21056606.1864   21056605.8694
      3485.7484
  -2756861.40248  -2146695.57446  19757782.7874   19757780.8894
       203.8184
  -9137751.44948  -7118829.19143  22342619.7484   22342617.7684
      3297.2824
   -600853.64847   -465067.88742  23479599.4044   23479601.4944
      4759.3614
   4917421.01247   3821900.90243  22117440.4044   22117438.3734
     -1791.8114
  -7752765.02048  -6036264.38746  20242321.7644   20242320.5374
      2225.4534
 04  9  9 21 42 44.9980000  0  8G 3G10G 8G13G19G28G23G27
  -5952363.27748  -4638784.11343  22229136.7874   22229136.7954
      1015.4984
  -3048406.75446  -2369427.87142  23082237.0764   23082237.4514
      3238.9614
 -12003815.73049  -9329114.61345  21046660.2794   21046659.0884
      3484.4174
  -2759827.37949  -2149006.73046  19757218.3424   19757216.3464
       197.7324
  -9187139.53148  -7157313.37544  22333222.0614   22333219.6474
      3292.5394
   -672235.14547   -520689.77342  23466016.3894   23466018.0844
      4758.7664
   4944334.64847   3842872.52343  22122562.1234   22122559.7524
     -1794.2424
  -7786129.15648  -6062262.41446  20235972.3894   20235971.7364
      2224.2764
 04  9  9 21 42 59.9980000  0  8G 3G10G 8G13G19G28G23G27
  -5967480.93048  -4650564.10543  22226260.0224   22226259.7644
      1007.8434
  -3096894.98446  -2407210.88742  23073009.9824   23073009.7874
      3232.5494
 -12056063.49649  -9369827.14845  21036717.7874   21036717.0684
      3483.1844
  -2762703.57049  -2151247.92646  19756670.9124   19756669.5184
       191.7464
  -9236457.84848  -7195743.20744  22323837.5454   22323834.7684
      3287.8884
   -743609.13747   -576305.75442  23452434.1624   23452435.5414
      4758.2664
   4971282.96547   3863871.17243  22127689.9434   22127687.7404
     -1796.5544
  -7819477.32848  -6088248.00846  20229626.6394   20229625.6354
      2223.2114
 04  9  9 21 43 14.9980000  0  8G 3G10G 8G13G19G28G23G27
  -5982480.81248  -4662252.32843  22223405.4044   22223405.5534
       999.9924
  -3145283.65646  -2444916.34842  23063802.0924   23063801.5144
      3225.9114
 -12108289.94149  -9410523.06245  21026779.0844   21026778.7994
      3481.7634
  -2765487.09049  -2153416.92247  19756141.2644   19756139.3854
       185.5684
  -9285703.16048  -7234116.13344  22314465.4754   22314463.3894
      3283.0214
   -814972.48847   -631913.51642  23438854.6004   23438854.9474
      4757.5574
   4998268.62547   3884898.91443  22132825.6314   22132823.1394
     -1799.0444
  -7852806.59849  -6114218.85246  20223284.4754   20223283.1044
      2221.9514
 04  9  9 21 43 29.9980000  0  8G 3G10G 8G13G19G28G23G27
  -5997364.03548  -4673849.64843  22220574.0534   22220573.2014
       992.2154
  -3193573.86346  -2482545.09842  23054613.3574   23054612.5254
      3219.3474
 -12160496.13749  -9451203.19945  21016844.6394   21016844.0644
      3480.4134
  -2768179.21548  -2155514.69146  19755629.1394   19755627.4084
       179.4754
  -9334876.32047  -7272432.84043  22305108.3504   22305106.1314
      3278.2114
   -886326.23447   -687513.72342  23425275.6624   23425277.2754
      4756.9164
   5025290.34447   3905954.75443  22137967.4044   22137964.8224
     -1801.4484
  -7886118.01248  -6140175.79746  20216945.2724   20216943.8384
      2220.7614
 04  9  9 21 43 44.9980000  0  8G 3G10G 8G13G19G28G23G27
  -6012128.24648  -4685354.23043  22217763.7404   22217763.4634
       984.2814
  -3241762.87145  -2520094.93442  23045443.0534   23045441.8774
      3212.6014
 -12212679.48849  -9491865.53545  21006914.7954   21006914.3614
      3478.8904
  -2770777.46549  -2157539.31646  19755135.0374   19755132.7754
       173.2174
  -9383974.53547  -7310691.15643  22295765.2484   22295762.7294
      3273.2144
   -957667.75847   -743104.42242  23411699.7564   23411701.4474
      4756.1024
   5052350.36747   3927040.44143  22143116.4044   22143114.8344
     -1804.0024
  -7919409.03148  -6166116.85546  20210610.4124   20210609.0454
      2219.4014
 04  9  9 21 43 59.9980000  0  8G 3G10G 8G13G19G28G23G27
  -6026774.71548  -4696767.07443  22214977.3114   22214976.9004
       976.4314
  -3289851.75846  -2557566.75442  23036290.9044   23036291.2684
      3205.9264
 -12264841.43449  -9532511.19145  20996988.4514   20996988.0224
      3477.4634
  -2773283.12548  -2159491.77346  19754657.8264   19754655.7324
       167.0444
  -9432998.75847  -7348891.82043  22286436.2094   22286433.7324
      3268.2824
  -1028998.05947   -798686.40242  23398126.4124   23398127.1004
      4755.3534
   5079447.19547   3948154.80143  22148273.1624   22148270.9514
     -1806.4554
  -7952681.12148  -6192043.14846  20204278.6934   20204277.5614
      2218.1394
 04  9  9 21 44 14.9980000  0  8G 3G10G 8G13G19G28G23G27
  -6041302.72748  -4708087.59443  22212212.4044   22212212.3184
       968.5344
  -3337839.67245  -2594959.91842  23027159.4284   23027159.9944
      3199.1944
 -12316981.17249  -9573139.54745  20987066.9594   20987066.6114
      3475.9834
  -2775695.59848  -2161371.62946  19754198.6004   19754196.9944
       160.8324
  -9481948.02347  -7387034.07843  22277121.2564   22277118.3654
      3263.2844
  -1100316.27347   -854258.92242  23384554.4434   23384556.0184
      4754.5484
   5106581.26647   3969298.19543  22153436.5844   22153434.6864
     -1808.9384
  -7985933.51648  -6217954.10946  20197950.9364   20197950.0374
      2216.8264
 04  9  9 21 44 29.9980000  0  8G 3G10G 8G13G19G28G23G27
  -6055711.84448  -4719315.48043  22209470.3894   22209470.1154
       960.6084
  -3385725.87946  -2632273.81642  23018046.8184   23018047.3694
      3192.4144
 -12369098.14849  -9613750.15245  20977148.9434   20977148.3814
      3474.4654
  -2778014.27349  -2163178.39846  19753757.4124   19753755.3544
       154.5784
  -9530821.52748  -7425117.29343  22267821.0454   22267818.3304
      3258.2344
  -1171621.71947   -909821.53142  23370985.8424   23370986.8344
      4753.6964
   5133752.91047   3990470.86743  22158607.2874   22158605.2874
     -1811.4434
  -8019165.68049  -6243849.29346  20191627.3424   20191626.2564
      2215.4784
 04  9  9 21 44 44.9980000  0  8G 3G10G 8G13G19G28G23G27
  -6070002.30148  -4730450.90642  22206750.9284   22206750.7404
       952.6974
  -3433510.42645  -2669508.51642  23008954.2724   23008954.2644
      3185.6364
 -12421192.60949  -9654343.23045  20967235.6314   20967235.4754
      3472.9644
  -2780239.59049  -2164912.42646  19753334.0764   19753332.0224
       148.3544
  -9579619.16047  -7463141.39143  22258534.8894   22258532.7134
      3253.1764
  -1242914.37547   -965374.15242  23357418.8264   23357419.4244
      4752.8444
   5160961.74646   4011672.50443  22163785.4284   22163782.6704
     -1813.9224
  -8052377.84849  -6269728.91046  20185307.5294   20185306.1744
      2214.1454
 04  9  9 21 44 59.9980000  0  8G 3G10G 8G13G19G28G23G27
  -6084173.49648  -4741493.39843  22204053.8974   22204053.9044
       944.7464
  -3481192.44146  -2706663.28942  22999880.5454   22999880.7254
      3178.8014
 -12473263.70749  -9694918.09045  20957327.0144   20957326.6114
      3471.4074
  -2782370.85549  -2166573.16446  19752928.4674   19752926.6894
       142.0844
  -9628339.97347  -7501105.63343  22249263.7954   22249261.5574
      3248.0544
  -1314193.28147  -1020916.10242  23343855.5374   23343854.6784
      4751.9274
   5188208.27047   4032903.52743  22168970.0534   22168966.9984
     -1816.4354
  -8085569.34848  -6295592.40646  20178991.2484   20178990.0454
      2212.7674
 04  9  9 21 45 14.9970000  0  8G 3G10G 8G13G19G28G23G27
  -6098225.46547  -4752442.99643  22201379.9624   22201380.2164
       936.7984
  -3528769.51646  -2743736.33242  22990827.2984   22990826.9234
      3171.8054
 -12525308.96949  -9735472.82845  20947423.2984   20947422.5674
      3469.6844
  -2784408.91049  -2168161.25846  19752540.6264   19752538.7434
       135.8704
  -9676981.48047  -7539008.07843  22240007.2674   22240005.2084
      3242.7674
  -1385454.71147  -1076444.42642  23330294.6184   23330294.9584
      4750.7624
   5215489.36347   4054161.49243  22174161.3534   22174158.8104
     -1818.7404
  -8118738.98449  -6321438.87146  20172679.2824   20172677.8294
      2211.3094
 04  9  9 21 45 29.9970000  0  8G 3G10G 8G13G19G28G23G27
  -6112160.54348  -4763301.49243  22198728.0404   22198728.2474
       929.0054
  -3576248.23446  -2780732.70742  22981792.2594   22981791.8844
      3165.2484
 -12577335.71149  -9776013.12945  20937523.1494   20937522.5874
      3468.4494
  -2786354.58649  -2169677.38346  19752170.3374   19752168.4274
       129.7124
  -9725550.27347  -7576853.85943  22230765.1574   22230762.7244
      3237.9204
  -1456708.46147  -1131966.72742  23316734.9624   23316736.0634
      4750.2504
   5242808.12147   4075448.79343  22179360.1574   22179357.6144
     -1821.2514
  -8151891.42649  -6347271.94546  20166370.5324   20166369.1184
      2210.1634
 04  9  9 21 45 44.9970000  0  8G 3G10G 8G13G19G28G23G27
  -6125975.69548  -4774066.55543  22196099.2594   22196098.8174
       921.0104
  -3623623.11746  -2817648.18742  22972776.7674   22972776.5364
      3158.3264
 -12629338.50049  -9816534.76645  20927627.3134   20927626.4894
      3466.8534
  -2788205.56249  -2171119.71146  19751818.2284   19751816.1614
       123.3984
  -9774040.61347  -7614638.52343  22221537.1884   22221535.0674
      3232.6894
  -1527947.25046  -1187477.34842  23303178.0564   23303179.1614
      4749.2534
   5270164.62547   4096765.52043  22184566.2904   22184564.0214
     -1823.7674
  -8185022.46549  -6373088.34046  20160065.6964   20160064.3134
      2208.7364
 04  9  9 21 45 59.9970000  0  8G 3G10G 8G13G19G28G23G27
  -6139671.63348  -4784738.72343  22193493.5634   22193492.8494
       913.0634
  -3670894.80945  -2854483.24242  22963781.7204   22963780.6384
      3151.4464
 -12681317.91449  -9857038.18445  20917736.2284   20917735.5484
      3465.2944
  -2789962.63349  -2172488.86346  19751484.0634   19751481.5754
       117.1384
  -9822452.89147  -7652362.34043  22212324.8064   22212322.5874
      3227.4854
  -1599171.68747  -1242976.83642  23289625.1494   23289625.5674
      4748.2964
   5297557.91447   4118110.89844  22189778.6494   22189776.8134
     -1826.2194
  -8218132.77049  -6398888.57046  20153765.1574   20153763.6064
      2207.3544
 04  9  9 21 46 14.9970000  0  8G 3G10G 8G13G19G28G23G27
  -6153249.70748  -4795319.04343  22190909.7984   22190909.4274
       905.2054
  -3718064.15246  -2891238.55142  22954805.3764   22954804.6774
      3144.6234
 -12733275.03149  -9897524.23045  20907848.7984   20907847.9584
      3463.8084
  -2791627.17249  -2173785.92246  19751167.4784   19751164.9354
       110.9694
  -9870788.03147  -7690026.06243  22203127.4234   22203125.1774
      3222.3434
  -1670382.82847  -1298465.93042  23276073.6884   23276073.5524
      4747.4094
   5324986.57046   4139483.82843  22194998.0874   22194995.8884
     -1828.5774
  -8251223.66049  -6424673.67646  20147468.1734   20147466.5604
      2206.0594
 04  9  9 21 46 29.9970000  0  8G 3G10G 8G13G19G28G23G27
  -6166707.80147  -4805805.87143  22188347.8764   22188348.3214
       897.2064
  -3765128.98046  -2927912.45742  22945848.9544   22945847.6304
      3137.6554
 -12785207.74249  -9937991.26245  20897966.4074   20897965.9744
      3462.1814
  -2793196.99249  -2175009.16446  19750868.6184   19750866.1304
       104.6554
  -9919043.79347  -7727627.91843  22193944.1424   22193942.2474
      3217.0514
  -1741578.41447  -1353942.95342  23262526.3214   23262525.8104
      4746.3724
   5352452.37147   4160885.70343  22200224.8604   22200222.1694
     -1831.0534
  -8284293.03149  -6450442.01646  20141175.0714   20141173.5244
      2204.6254
 04  9  9 21 46 44.9970000  0  8G 3G10G 8G13G19G28G23G27
  -6180045.01648  -4816198.50843  22185810.4784   22185810.5834
       889.1484
  -3812088.02346  -2964503.87942  22936913.2514   22936911.6734
      3130.6034
 -12837115.26249  -9978438.66445  20888088.8064   20888087.8924
      3460.5014
  -2794671.09449  -2176157.82846  19750588.0174   19750585.6654
        98.2734
  -9967218.93447  -7765166.96544  22184777.2984   22184774.8494
      3211.6764
  -1812757.19547  -1409406.85242  23248980.7044   23248980.7554
      4745.2524
   5379956.25847   4182317.27343  22205458.5714   22205455.9314
     -1833.5924
  -8317339.84849  -6476192.77346  20134886.5244   20134885.1104
      2203.1214
 04  9  9 21 46 59.9970000  0  8G 3G10G 8G13G19G28G23G27
  -6193261.66848  -4826497.19543  22183295.4624   22183295.3724
       881.1104
  -3858941.41745  -3001012.95342  22927997.2044   22927996.0604
      3123.5604
 -12888997.77749 -10018866.58645  20878215.3294   20878215.2284
      3458.8344
  -2796049.98849  -2177232.30546  19750325.3534   19750323.2744
        91.9264
 -10015313.32847  -7802643.10543  22175624.6884   22175623.3534
      3206.2934
  -1883919.32847  -1464857.80542  23235438.9384   23235438.7164
      4744.1424
   5407497.68846   4203778.09443  22210699.2594   22210697.0484
     -1836.0954
  -8350364.26249  -6501926.08246  20128602.0014   20128600.8994
      2201.6284
 04  9  9 21 47 14.9970000  0  8G 3G10G 8G13G19G28G23G27
  -6206358.85948  -4836702.80543  22180803.2904   22180803.3764
       873.1464
  -3905690.04746  -3037440.48042  22919101.4464   22919100.2514
      3116.5754
 -12940856.19149 -10059275.72345  20868347.6184   20868346.6144
      3457.2284
  -2797334.72749  -2178233.41446  19750081.2744   19750078.8254
        85.6494
 -10063327.84447  -7840056.97744  22166487.6184   22166486.1814
      3200.9684
  -1955065.72347  -1520296.43442  23221900.7044   23221900.4974
      4743.0934
   5435075.32047   4225267.10243  22215947.4074   22215945.7124
     -1838.5094
  -8383367.46549  -6527642.86746  20122321.6344   20122320.5444
      2200.2144
 04  9  9 21 47 29.9970000  0  8G 3G10G 8G13G19G28G23G27
  -6219337.38747  -4846815.94943  22178332.7984   22178333.3064
       865.2354
  -3952334.43046  -3073786.75442  22910225.6184   22910224.6734
      3109.6264
 -12992691.05149 -10099666.51645  20858483.4464   20858483.2394
      3455.6574
  -2798526.07049  -2179161.74246  19749854.2354   19749852.3294
        79.4234
 -10111262.73047  -7877408.81244  22157366.1424   22157364.4234
      3195.6594
  -2026196.81647  -1575723.18042  23208364.7594   23208364.9664
      4742.0734
   5462688.40247   4246783.73443  22221202.3684   22221199.9034
     -1840.8724
  -8416350.00849  -6553343.53946  20116045.6814   20116044.2714
      2198.8364
 04  9  9 21 47 44.9970000  0  8G 3G10G 8G13G19G28G23G27
  -6232195.32447  -4856835.11742  22175886.1734   22175886.1574
       857.1964
  -3998872.54346  -3110050.20342  22901369.3374   22901369.9274
      3102.5414
 -13044500.65249 -10140037.62145  20848624.1104   20848623.4194
      3453.9734
  -2799622.09449  -2180015.79346  19749645.7674   19749643.7044
        73.0684
 -10159115.89148  -7914696.96144  22148260.2984   22148257.7204
      3190.2114
  -2097310.61347  -1631136.41842  23194832.1264   23194832.3104
      4740.9204
   5490338.55947   4268329.26643  22226463.6494   22226461.4424
     -1843.3444
  -8449310.12149  -6579026.74246  20109773.2904   20109771.8684
      2197.3414
 04  9  9 21 47 59.9970000  0  8G 3G10G 8G13G19G28G23G27
  -6244934.94947  -4866762.11743  22173462.7044   22173461.6574
       849.3084
  -4045306.53146  -3146232.49242  22892533.3134   22892534.2244
      3095.5994
 -13096287.28949 -10180390.82445  20838769.7204   20838769.2594
      3452.4424
  -2800625.30149  -2180797.51646  19749454.8844   19749452.9384
        66.8804
 -10206889.44547  -7951923.08644  22139169.1884   22139166.7284
      3184.9044
  -2168409.18047  -1686537.82042  23181302.4784   23181302.6814
      4739.9044
   5518023.19547   4289901.66443  22231731.9464   22231729.5634
     -1845.6424
  -8482250.17249  -6604694.30946  20103505.0714   20103504.0244
      2196.0034
 04  9  9 21 48 14.9970000  0  8G 3G10G 8G13G19G28G23G27
  -6257554.18748  -4876595.27743  22171060.9154   22171060.5714
       841.2834
  -4091634.02746  -3182331.81642  22883716.7284   22883718.0214
      3088.5004
 -13148048.62949 -10220724.32045  20828919.8924   20828918.5874
      3450.7564
  -2801533.41849  -2181505.15647  19749282.0954   19749280.4784
        60.5414
 -10254580.75848  -7989085.12144  22130094.0564   22130091.3374
      3179.4214
  -2239490.16047  -1741925.53142  23167775.8764   23167776.7244
      4738.7324
   5545744.28147   4311502.48043  22237006.7514   22237004.7984
     -1848.0724
  -8515167.91849  -6630344.49646  20097241.2124   20097240.2944
      2194.5164
 04  9  9 21 48 29.9970000  0  8G 3G10G 8G13G19G28G23G27
  -6270053.03948  -4886334.64543  22168682.4624   22168682.0834
       833.2574
  -4137854.70346  -3218347.91042  22874921.2044   22874922.3994
      3081.3784
 -13199784.53949 -10261038.00445  20819074.7824   20819073.9624
      3449.0614
  -2802346.52749  -2182138.75446  19749127.2984   19749125.4114
        54.2074
 -10302189.66847  -8026182.94544  22121034.0404   22121031.6424
      3173.9274
  -2310553.42647  -1797299.41442  23154252.9074   23154253.8604
      4737.5514
   5573501.64547   4333131.54743  22242289.1264   22242286.6734
     -1850.4914
  -8548063.29349  -6655977.25846  20090981.2284   20090980.1464
      2193.0254
 04  9  9 21 48 44.9970000  0  8G 3G10G 8G13G19G28G23G27
  -6282430.81648  -4895979.66843  22166326.9074   22166326.6574
       825.1854
  -4183967.68046  -3254280.07842  22866146.5484   22866147.1034
      3074.1984
 -13251494.24649 -10301331.26245  20809234.5484   20809234.0954
      3447.3144
  -2803063.95749  -2182697.80146  19748990.7434   19748988.7554
        47.8294
 -10349715.06247  -8063215.69544  22111989.7904   22111988.0834
      3168.3604
  -2381598.01647  -1852658.73442  23140733.5174   23140734.5914
      4736.3064
   5601295.95747   4354789.39843  22247578.2354   22247576.1184
     -1852.9544
  -8580935.46149  -6681591.93446  20084725.9934   20084724.5564
      2191.4784
 04  9  9 21 48 59.9970000  0  8G 3G10G 8G13G19G28G23G27
  -6294690.78148  -4905532.88743  22163993.8214   22163993.6464
       817.3314
  -4229975.94946  -3290130.63342  22857391.5404   22857391.6774
      3067.2184
 -13303180.98849 -10341606.64545  20799398.8374   20799398.3564
      3445.7834
  -2803688.89149  -2183184.76246  19748871.7124   19748869.7824
        41.6624
 -10397159.72748  -8100185.53944  22102962.4314   22102959.4934
      3162.9784
  -2452626.79747  -1908005.73042  23127217.7284   23127218.2984
      4735.2524
   5629123.67647   4376473.29343  22252874.0174   22252871.5714
     -1855.1814
  -8613787.65649  -6707191.03946  20078474.0874   20078473.1654
      2190.1464
 04  9  9 21 49 14.9970000  0  8G 3G10G 8G13G19G28G23G27
  -6306830.23048  -4914992.20343  22161684.3534   22161683.0994
       809.2974
  -4275876.62146  -3325897.38742  22848656.5404   22848657.1814
      3060.0454
 -13354841.99649 -10381861.95345  20789568.2904   20789567.3254
      3444.0674
  -2804218.69949  -2183597.61346  19748771.0174   19748768.8024
        35.3214
 -10444520.78147  -8137090.21944  22093949.2124   22093946.7044
      3157.4044
  -2523636.91847  -1963338.20342  23113704.6104   23113705.9034
      4734.0084
   5656987.40647   4398185.24643  22258176.2204   22258173.9504
     -1857.5824
  -8646617.12548  -6732772.43746  20072227.0874   20072226.0634
      2188.6314
 04  9  9 21 49 29.9970000  0  8G 3G10G 8G13G19G28G23G27
  -6318849.68748  -4924358.01642  22159396.8604   22159396.0754
       801.2974
  -4321669.89846  -3361580.44142  22839941.8604   22839942.8254
      3052.8854
 -13406477.78149 -10422097.61745  20779741.9544   20779741.4074
      3442.3864
  -2804653.78549  -2183936.65246  19748688.4934   19748686.0324
        29.0064
 -10491798.34847  -8173929.85944  22084952.7594   22084950.1304
      3151.8384
  -2594628.75447  -2018656.42242  23100194.6184   23100196.3724
      4732.7894
   5684886.43847   4419924.72343  22263485.0014   22263483.2204
     -1859.9354
  -8679424.26649  -6758336.43746  20065983.9784   20065982.9384
      2187.1434
 04  9  9 21 49 44.9970000  0  8G 3G10G 8G13G19G28G23G27
  -6330749.32847  -4933630.45342  22157132.0634   22157132.2044
       793.3094
  -4367355.73046  -3397179.78142  22831248.7044   22831249.2864
      3045.7224
 -13458088.41049 -10462313.67245  20769921.0564   20769920.0994
      3440.7094
  -2804994.32049  -2184202.01246  19748623.6494   19748621.1264
        22.7024
 -10538992.23847  -8210704.28544  22075972.0954   22075969.5874
      3146.2594
  -2665602.14547  -2073960.27042  23086688.6814   23086690.1464
      4731.5594
   5712820.56647   4441691.52043  22268800.8064   22268798.8064
     -1862.2754
  -8712209.33649  -6783883.24646  20059745.2434   20059744.2554
      2185.6714
 04  9  9 21 49 59.9970000  0  8G 3G10G 8G13G19G28G23G27
  -6342528.04748  -4942808.68443  22154891.3134   22154890.8804
       785.2484
  -4412932.80546  -3432694.35942  22822576.4624   22822576.0284
      3038.4724
 -13509672.36749 -10502508.95345  20760105.0484   20760104.0754
      3438.9304
  -2805239.17249  -2184392.81246  19748576.7434   19748574.8724
        16.3234
 -10586101.07447  -8247412.42644  22067007.4934   22067004.7284
      3140.5894
  -2736555.66847  -2129248.65642  23073186.8844   23073187.4934
      4730.2354
   5740790.63747   4463486.32843  22274123.2904   22274121.8024
     -1864.6714
  -8744971.02749  -6809411.82446  20053510.8764   20053509.6304
      2184.1134
 04  9  9 21 50 14.9970000  0  8G 3G10G 8G13G19G28G23G27
  -6354185.10547  -4951892.10543  22152672.6264   22152673.1034
       777.1374
  -4458400.25846  -3468123.51242  22813923.8764   22813924.4504
      3031.1644
 -13561229.10549 -10542683.02045  20750293.9154   20750293.4704
      3437.1164
  -2805387.77749  -2184508.62146  19748548.5874   19748546.7634
         9.9074
 -10633123.86348  -8284053.54744  22058059.2124   22058056.9704
      3134.8534
  -2807488.55947  -2184520.95342  23059689.8454   23059689.9354
      4728.8594
   5768797.21947   4485309.58643  22279452.0484   22279451.2044
     -1867.1054
  -8777708.57849  -6834921.60246  20047280.9704   20047280.0674
      2182.5034
 04  9  9 21 50 29.9970000  0  8G 3G10G 8G13G19G28G23G27
  -6365722.80948  -4960882.51243  22150477.1884   22150477.5284
       769.1804
  -4503760.11347  -3503468.84042  22805291.8134   22805292.8494
      3023.9904
 -13612760.71549 -10582837.50845  20740487.3374   20740486.7044
      3435.4414
  -2805442.31249  -2184551.12146  19748538.5014   19748536.1034
         3.6364
 -10680062.43448  -8320629.02344  22049127.2044   22049124.9424
      3129.2384
  -2878402.80147  -2239778.71542  23046194.0404   23046195.4974
      4727.6164
   5796837.81347   4507159.36343  22284788.6814   22284786.8214
     -1869.3734
  -8810424.25049  -6860414.32446  20041055.6964   20041054.6534
      2181.0454
 04  9  9 21 50 44.9970000  0  8G 3G10G 8G13G19G28G23G27
  -6377142.02048  -4969780.60243  22148304.5634   22148303.7784
       761.2814
  -4549013.00446  -3538730.83242  22796680.3994   22796681.3564
      3016.8594
 -13664267.97349 -10622973.02045  20730686.3134   20730685.6064
      3433.8174
  -2805403.71949  -2184521.05946  19748545.8604   19748544.0484
        -2.5734
 -10726917.37947  -8357139.35244  22040211.2124   22040208.1264
      3123.6634
  -2949298.95347  -2295022.38742  23032702.8844   23032703.7554
      4726.4104
   5824911.50047   4529034.91443  22290131.7204   22290129.2514
     -1871.5794
  -8843118.67649  -6885890.51246  20034833.9464   20034832.9664
      2179.6284
 04  9  9 21 50 59.9970000  0  8G 3G10G 8G13G19G28G23G27
  -6388440.56648  -4978584.65643  22146154.6104   22146154.1224
       753.2364
  -4594156.29746  -3573907.41042  22788090.1574   22788090.0564
      3009.5534
 -13715748.55149 -10663087.74645  20720889.5954   20720889.0564
      3432.0394
  -2805269.64549  -2184416.58646  19748571.2124   19748569.1924
        -8.9384
 -10773685.95747  -8393582.37144  22031311.4854   22031308.9234
      3117.9054
  -3020174.31247  -2350249.85542  23019216.6654   23019216.6814
      4725.0244
   5853020.45747   4550937.94143  22295480.5404   22295478.2044
     -1873.9304
  -8875789.53149  -6911348.31246  20028616.9784   20028615.6384
      2178.0574
 04  9  9 21 51 14.9970000  0  8G 3G10G 8G13G19G28G23G27
  -6399619.42247  -4987295.45343  22144026.5794   22144027.2824
       745.2574
  -4639190.92245  -3608999.31242  22779520.0244   22779520.2434
      3002.3084
 -13767203.36749 -10703182.38345  20711098.8134   20711097.4464
      3430.3214
  -2805041.18449  -2184238.56646  19748614.5174   19748612.1924
       -15.2314
 -10820368.99647  -8429958.73844  22022427.9624   22022425.0874
      3112.2034
  -3091030.01247  -2405462.00842  23005732.6574   23005733.2244
      4723.7134
   5881163.43447   4572867.48443  22300835.8684   22300833.5914
     -1876.1984
  -8908437.94149  -6936788.63346  20022404.3764   20022403.1384
      2176.5614
 04  9  9 21 51 29.9970000  0  8G 3G10G 8G13G19G28G23G27
  -6410677.91848  -4995912.47343  22141922.6494   22141922.9314
       737.2334
  -4684115.92647  -3644005.78542  22770971.0244   22770971.8764
      2995.0004
 -13818631.71149 -10743256.41045  20701312.0014   20701310.8334
      3428.5564
  -2804717.82449  -2183986.60946  19748676.1814   19748674.3254
       -21.5574
 -10866965.56648  -8466267.72344  22013560.5794   22013557.8724
      3106.4384
  -3161865.12547  -2460658.12942  22992253.2594   22992254.8494
      4722.3414
   5909340.75847   4594823.78943  22306198.4074   22306195.4934
     -1878.4884
  -8941063.17649  -6962210.89546  20016196.0634   20016194.6814
      2175.0164
 04  9  9 21 51 44.9970000  0  8G 3G10G 8G13G19G28G23G27
  -6421615.61348  -5004435.34843  22139841.1344   22139841.5604
       729.1804
  -4728930.66046  -3678926.34442  22762443.6814   22762443.8804
      2987.6494
 -13870033.15249 -10783309.45745  20691530.5874   20691529.7474
      3426.7634
  -2804298.96949  -2183660.23846  19748755.7904   19748753.7714
       -27.9244
 -10913474.80147  -8502508.65244  22004709.8764   22004707.3064
      3100.6164
  -3232678.85547  -2515837.57442  22978777.7984   22978779.0834
      4720.9154
   5937552.91047   4616807.23843  22311566.8684   22311564.0874
     -1880.8104
  -8973664.60549  -6987614.59446  20009991.9854   20009990.6774
      2173.4294
 04  9  9 21 51 59.9970000  0  8G 3G10G 8G13G19G28G23G27
  -6432431.34048  -5012863.19143  22137782.6424   22137783.2744
       721.0484
  -4773633.69546  -3713759.85242  22753937.0794   22753936.9194
      2980.2024
 -13921406.55549 -10823340.66845  20681754.5174   20681752.9504
      3424.8934
  -2803783.53549  -2183258.60546  19748854.0014   19748852.1104
       -34.3624
 -10959895.12948  -8538680.30544  21995876.8844   21995873.8644
      3094.6894
  -3303469.86347  -2570999.33642  22965306.2124   22965307.5214
      4719.4014
   5965800.82847   4638818.55943  22316941.5404   22316939.5054
     -1883.1954
  -9006241.11349  -7012998.88746  20003792.7674   20003791.3214
      2171.7674
 04  9  9 21 52 14.9970000  0  8G 3G10G 8G13G19G28G23G27
  -6443127.22348  -5021197.64143  22135747.8374   22135747.6614
       713.0594
  -4818226.87546  -3748507.77742  22745451.3924   22745451.3924
      2972.8794
 -13972753.59449 -10863351.33245  20671983.1884   20671982.3494
      3423.1364
  -2803173.51649  -2182783.27346  19748969.9154   19748968.1064
       -40.6684
 -11006228.37148  -8574784.09843  21987059.9314   21987056.7984
      3088.8834
  -3374239.96947  -2626144.77742  22951839.3684   22951840.4814
      4718.0074
   5994082.23447   4660855.97343  22322323.5874   22322320.6144
     -1885.4274
  -9038794.53949  -7038365.18746  19997597.9704   19997597.0014
      2170.2284
 04  9  9 21 52 29.9970000  0  8G 3G10G 8G13G19G28G23G27
  -6453702.50448  -5029438.10543  22133734.9934   22133735.5244
       705.0194
  -4862709.31646  -3783169.39542  22736986.4384   22736986.7394
      2965.4964
 -14024073.49249 -10903340.84045  20662217.5954   20662216.6224
      3421.3274
  -2802468.09049  -2182233.59846  19749104.3134   19749102.4584
       -47.0284
 -11052473.45348  -8610819.19544  21978260.1344   21978256.8644
      3083.0054
  -3444988.27047  -2681273.25842  22938376.1424   22938377.5054
      4716.5534
   6022397.82847   4682920.03543  22327711.7434   22327709.7554
     -1887.7064
  -9071324.18049  -7063712.95746  19991407.7434   19991406.5714
      2168.6434
 04  9  9 21 52 44.9970000  0  8G 3G10G 8G13G19G28G23G27
  -6464156.76648  -5037584.30143  22131746.0714   22131745.6344
       696.9514
  -4907080.54746  -3817744.37142  22728542.2204   22728542.7044
      2958.0824
 -14075365.67649 -10943308.77045  20652456.8454   20652455.8454
      3419.4794
  -2801667.16449  -2181609.50046  19749256.8994   19749254.8884
       -53.3954
 -11098629.65247  -8646785.05544  21969475.8604   21969472.9894
      3077.0804
  -3515714.11747  -2736384.24242  22924917.5564   22924918.1264
      4715.0574
   6050747.77347   4705010.85243  22333107.2204   22333104.3454
     -1889.9964
  -9103829.48849  -7089041.76646  19985222.8064   19985221.1034
      2167.0214
 04  9  9 21 52 59.9970000  0  8G 3G10G 8G13G19G28G23G27
  -6474490.73848  -5045636.73843  22129779.9784   22129779.7824
       688.9324
  -4951340.88346  -3852232.94542  22720119.8924   22720119.7204
      2950.6894
 -14126630.75449 -10983255.56645  20642701.4544   20642700.4934
      3417.6724
  -2800771.16049  -2180911.32046  19749427.4154   19749425.1854
       -59.7344
 -11144697.28548  -8682681.89144  21960709.7674   21960706.5954
      3071.1764
  -3586417.77347  -2791477.93042  22911463.5174   22911464.2314
      4713.5774
   6079131.26247   4727127.80543  22338508.5404   22338505.6494
     -1892.2334
  -9136311.12149  -7114352.12146  19979041.2744   19979039.8804
      2165.4424
 04  9  9 21 53 14.9970000  0  8G 3G10G 8G13G19G28G23G27
  -6484703.65648  -5053594.86343  22127835.6264   22127836.1144
       680.8614
  -4995489.23446  -3886634.24242  22711719.2044   22711718.9584
      2943.2234
 -14177867.85549 -11023180.54745  20632951.4464   20632950.5054
      3415.8074
  -2799779.26249  -2180138.42646  19749615.9854   19749614.0994
       -66.1274
 -11190675.04747  -8718508.68743  21951960.1814   21951957.9194
      3065.1844
  -3657098.14547  -2846553.47342  22898013.3294   22898013.4154
      4712.0254
   6107549.05547   4749271.49243  22343915.6424   22343913.8564
     -1894.5204
  -9168768.11349  -7139643.28946  19972864.7284   19972863.4744
      2163.7994
 04  9  9 21 53 29.9970000  0  8G 3G10G 8G13G19G28G23G27
  -6494796.30548  -5061459.28543  22125915.6734   22125914.9424
       672.8434
  -5039526.12146  -3920948.70742  22703338.7354   22703339.7674
      2935.7924
 -14229077.73049 -11063084.34445  20623206.6034   20623205.2084
      3413.9924
  -2798692.32849  -2179291.47346  19749823.1344   19749820.7944
       -72.4624
 -11236563.57848  -8754265.96943  21943227.6264   21943225.7634
      3059.2354
  -3727755.90647  -2901611.42642  22884567.6424   22884567.5444
      4710.5174
   6136000.14847   4771441.11743  22349329.8604   22349327.6144
     -1896.7404
  -9201201.23449  -7164915.84446  19966693.3764   19966691.7554
      2162.2084
 04  9  9 21 53 44.9970000  0  8G 3G10G 8G13G19G28G23G27
  -6504768.39548  -5069229.72343  22124018.5404   22124017.2354
       664.8064
  -5083451.05946  -3955175.89142  22694979.8214   22694980.8214
      2928.3294
 -14280259.70749 -11102966.38345  20613467.3294   20613466.6694
      3412.1324
  -2797510.08249  -2178370.25446  19750047.6654   19750045.7784
       -78.8164
 -11282362.27348  -8789953.24244  21934512.6494   21934510.6654
      3053.2464
  -3798390.53947  -2956651.33642  22871125.7984   22871126.3764
      4708.9764
   6164484.70347   4793636.82043  22354750.5014   22354748.5484
     -1898.9704
  -9233610.12549  -7190169.52046  19960525.9314   19960524.4464
      2160.5934
 04  9  9 21 53 59.9970000  0  8G 3G10G 8G13G19G28G23G27
  -6514618.29748  -5076904.98043  22122143.3684   22122142.8534
       656.6604
  -5127262.27746  -3989314.48042  22686642.8214   22686643.3214
      2920.7484
 -14331412.30949 -11142825.53945  20603733.0244   20603732.1064
      3410.1734
  -2796230.87549  -2177373.46946  19750291.4074   19750289.4384
       -85.2804
 -11328069.24248  -8825569.03144  21925814.9784   21925813.0284
      3047.1314
  -3869000.23847  -3011671.83642  22857689.2594   22857690.1224
      4707.3134
   6193004.22347   4815859.76243  22360177.6184   22360175.8994
     -1901.3014
  -9265993.00449  -7215402.92646  19954363.9854   19954362.1104
      2158.8594
 04  9  9 21 54 14.9970000  0  8G 3G10G 8G13G19G28G23G27
  -6524348.52048  -5084486.96943  22120291.4314   22120291.2204
       648.6824
  -5170961.92646  -4023366.14542  22678327.0094   22678327.1774
      2913.3104
 -14382537.96549 -11182663.68446  20594004.0714   20594003.5014
      3408.3774
  -2794857.25849  -2176303.12546  19750552.6184   19750550.2594
       -91.5744
 -11373686.50047  -8861114.92644  21917134.0634   21917131.9354
      3041.1514
  -3939587.13747  -3066674.55942  22844257.2284   22844258.2204
      4705.7934
   6221555.96547   4838107.82843  22365610.6574   22365608.8964
     -1903.4494
  -9298352.21549  -7240617.90246  19948206.0564   19948205.0284
      2157.2814
 04  9  9 21 54 29.9970000  0  8G 3G10G 8G13G19G28G23G27
  -6533958.34448  -5091975.16443  22118463.2354   22118462.2824
       640.6554
  -5214549.05546  -4057330.11742  22670032.9384   22670033.3024
      2905.8094
 -14433635.67249 -11222480.08245  20584280.2674   20584279.9584
      3406.5144
  -2793388.53149  -2175158.67246  19750832.2824   19750830.7594
       -97.9154
 -11419213.00848  -8896590.09844  21908470.7044   21908468.2784
      3035.1014
  -4010150.26647  -3121658.77042  22830828.9544   22830829.8644
      4704.2094
   6250140.55147   4860381.48843  22371050.4154   22371048.5404
     -1905.6394
  -9330687.14549  -7265813.93446  19942052.8994   19942051.6344
      2155.6624
 04  9  9 21 54 44.9970000  0  8G 3G10G 8G13G19G28G23G27
  -6543446.81248  -5099368.78143  22116657.2514   22116656.3134
       632.5654
  -5258022.55946  -4091205.57442  22661760.3764   22661760.6344
      2898.2344
 -14484704.04349 -11262273.60246  20574562.4234   20574561.4354
      3404.5584
  -2791823.66449  -2173939.30946  19751129.9384   19751128.1774
      -104.3244
 -11464647.38348  -8931993.47344  21899824.5484   21899822.4664
      3028.9584
  -4080688.34448  -3176623.44142  22817406.2204   22817406.7634
      4702.5394
   6278758.78147   4882681.36343  22376496.2984   22376494.2474
     -1907.8824
  -9362996.49649  -7290990.05147  19935904.4704   19935903.4584
      2153.9574
 04  9  9 21 54 59.9970000  0  8G 3G10G 8G13G19G28G23G27
  -6552815.19948  -5106668.80543  22114874.9074   22114873.9544
       624.5594
  -5301383.44547  -4124993.25442  22653509.1264   22653509.6814
      2890.7264
 -14535744.64849 -11302045.48446  20564849.1964   20564848.8684
      3402.7074
  -2790163.85249  -2172645.94546  19751445.8684   19751443.8764
      -110.6544
 -11509990.63348  -8967325.84444  21891196.1494   21891193.8644
      3022.8834
  -4151202.51247  -3231569.48842  22803987.9234   22803988.0324
      4700.9454
   6307409.30948   4905006.39543  22381948.8214   22381946.6694
     -1910.0354
  -9395281.62549  -7316147.29347  19929760.8604   19929760.0364
      2152.3424
 04  9  9 21 55 14.9970000  0  8G 3G10G 8G13G19G28G23G27
  -6562062.17648  -5113874.24643  22113114.9154   22113114.5674
       616.4654
  -5344630.14146  -4158691.98442  22645278.9234   22645279.0444
      2883.1134
 -14586756.11749 -11341794.66845  20555142.3924   20555141.7714
      3400.7654
  -2788407.77049  -2171277.58646  19751779.7744   19751777.9464
      -117.0724
 -11555241.09848  -9002585.93444  21882586.3844   21882582.9354
      3016.6984
  -4221691.10247  -3286495.62542  22790573.8374   22790574.0444
      4699.2394
   6336093.35947   4927357.56643  22387406.8604   22387405.1224
     -1912.2704
  -9427540.99249  -7341284.45746  19923622.2434   19923621.1344
      2150.6244
 04  9  9 21 55 29.9970000  0  8G 3G10G 8G13G19G28G23G27
  -6571188.59848  -5120985.75443  22111377.7514   22111378.4274
       608.4284
  -5387763.35245  -4192302.25042  22637071.1964   22637071.6304
      2875.5474
 -14637739.03149 -11381521.60245  20545440.6734   20545439.9624
      3398.8614
  -2786556.34049  -2169834.93046  19752132.1574   19752130.0014
      -123.4294
 -11600399.22748  -9037774.05544  21873992.3374   21873989.9584
      3010.5424
  -4292154.74247  -3341402.30142  22777165.5244   22777165.7204
      4697.5764
   6364809.87948   4949734.02043  22392871.6184   22392869.2714
     -1914.4354
  -9459775.44149  -7366402.20746  19917488.0634   19917486.9584
      2148.9634
 04  9  9 21 55 44.9970000  0  8G 3G10G 8G13G19G28G23G27
  -6580194.77748  -5128003.55543  22109664.7204   22109664.4074
       600.4124
  -5430782.98846  -4225824.05142  22628884.4784   22628885.3374
      2867.9764
 -14688693.48049 -11421226.34445  20535744.1574   20535743.4034
      3396.9634
  -2784609.89549  -2168318.23846  19752502.7204   19752500.2824
      -129.7634
 -11645464.89148  -9072890.13744  21865416.7674   21865414.4234
      3004.3784
  -4362593.43448  -3396289.53142  22763761.5714   22763760.7984
      4695.9134
   6393558.49647   4972135.50443  22398342.2744   22398340.2314
     -1916.5744
  -9491985.04349  -7391500.59846  19911358.6424   19911357.6344
      2147.3074
 04  9  9 21 55 59.9970000  0  8G 3G10G 8G13G19G28G23G27
  -6589080.06248  -5134927.18443  22107973.9464   22107973.6924
       592.3524
  -5473688.18446  -4259256.66042  22620720.5404   22620720.5954
      2860.3464
 -14739618.70749 -11460908.32445  20526053.1734   20526053.2674
      3395.0154
  -2782567.70749  -2166726.93446  19752891.2904   19752888.9194
      -136.1464
 -11690437.21948  -9107933.48444  21856858.8604   21856856.3604
      2998.1554
  -4433006.28947  -3451156.65242  22750362.0714   22750362.5364
      4694.1904
   6422339.77047   4994562.40243  22403819.1104   22403817.2004
     -1918.7524
  -9524169.02349  -7416579.02346  19905234.3764   19905233.0174
      2145.5994
 04  9  9 21 56 14.9970000  0  8G 3G10G 8G13G19G28G23G27
  -6597843.46148  -5141755.80143  22106305.8684   22106306.3804
       584.2274
  -5516477.83645  -4292599.23442  22612577.7204   22612577.8764
      2852.6434
 -14790513.67649 -11500566.73445  20516368.6104   20516367.9074
      3392.9984
  -2780428.69549  -2165060.18046  19753298.1494   19753296.2004
      -142.6014
 -11735314.82848  -9142903.02744  21848318.8214   21848315.8564
      2991.8414
  -4503392.07448  -3506002.67242  22736967.9624   22736968.3964
      4692.3864
   6451154.41847   5017015.32843  22409302.5634   22409300.8104
     -1920.9774
  -9556326.44949  -7441636.74246  19899115.0094   19899113.8414
      2143.8284
 04  9  9 21 56 29.9970000  0  8G 3G10G 8G13G19G28G23G27
  -6606487.33248  -5148491.27743  22104660.9464   22104661.2714
       576.2584
  -5559153.91046  -4325853.30142  22604456.7434   22604456.9544
      2845.0724
 -14841380.39549 -11540203.12945  20506688.8064   20506688.7084
      3391.1154
  -2778195.23849  -2163319.83646  19753723.5404   19753721.4854
      -148.8974
 -11780099.69148  -9177800.30544  21839797.0794   21839793.4584
      2985.6584
  -4573752.80947  -3560829.18042  22723579.0094   22723578.8564
      4690.7164
   6479999.99247   5039492.34843  22414791.1104   22414790.4114
     -1923.0384
  -9588459.33649  -7466675.35546  19893000.3844   19892998.9814
      2142.1924
 04  9  9 21 56 44.9970000  0  8G 3G10G 8G13G19G28G23G27
  -6615009.78147  -5155132.16043  22103039.1814   22103039.5284
       568.1634
  -5601714.45346  -4359017.33242  22596357.4314   22596358.2434
      2837.3704
 -14892217.08649 -11579816.10945  20497015.1964   20497014.6034
      3389.1134
  -2775865.65649  -2161504.58246  19754166.9854   19754164.7084
      -155.3054
 -11824789.80548  -9212623.74244  21831292.1424   21831289.4744
      2979.3414
  -4644086.52047  -3615634.62142  22710194.3764   22710194.1064
      4688.9144
   6508878.03147   5061994.66043  22420286.8924   22420285.0364
     -1925.2034
  -9620565.96149  -7491693.49646  19886890.5244   19886889.0014
      2140.4424
 04  9  9 21 56 59.9970000  0  8G 3G10G 8G13G19G28G23G27
  -6623411.16048  -5161678.69942  22101440.9704   22101440.7314
       560.0924
  -5644159.33646  -4392091.22742  22588280.1034   22588280.8804
      2829.6594
 -14943023.77349 -11619405.72746  20487346.8534   20487346.2864
      3387.1134
  -2773440.06249  -2159614.52046  19754628.3924   19754626.5244
      -161.7064
 -11869384.87948  -9247373.14544  21822806.2044   21822803.3684
      2973.0054
  -4714393.12547  -3670418.93442  22696815.5794   22696815.4464
      4687.1074
   6537788.40247   5084522.16443  22425788.7744   22425787.0564
     -1927.3584
  -9652646.40249  -7516691.23846  19880786.0404   19880784.1384
      2138.6964
 04  9  9 21 57 14.9970000  0  8G 3G10G 8G13G19G28G23G27
  -6631691.93448  -5168131.26243  22099865.0564   22099864.6854
       552.0524
  -5686489.07446  -4425075.43442  22580225.6814   22580226.4354
      2821.9834
 -14993801.11349 -11658972.46945  20477683.8374   20477683.5604
      3385.1564
  -2770919.05149  -2157650.10546  19755107.6494   19755106.3024
      -168.0674
 -11913885.19548  -9282048.68044  21814337.8374   21814335.2124
      2966.6884
  -4784672.94548  -3725182.38742  22683442.1424   22683441.8724
      4685.3214
   6566730.43447   5107074.34043  22431295.5174   22431294.0284
     -1929.4694
  -9684701.00449  -7541668.85546  19874686.2514   19874684.5754
      2136.9734
 04  9  9 21 57 29.9970000  0  8G 3G10G 8G13G19G28G23G27
  -6639850.84047  -5174488.87142  22098312.2674   22098312.1494
       543.9274
  -5728701.81246  -4457968.43742  22572192.4464   22572193.2354
      2814.1834
 -15044547.31249 -11698514.94945  20468027.1884   20468026.5714
      3383.0804
  -2768301.19549  -2155610.23846  19755606.4544   19755604.4354
      -174.5244
 -11958288.95748  -9316649.00044  21805888.2674   21805885.8884
      2960.2514
  -4854924.09447  -3779923.48842  22670073.1814   22670073.4894
      4683.4104
   6595705.43447   5129652.20743  22436810.0324   22436808.0014
     -1931.6674
  -9716728.29749  -7566625.18046  19868591.7514   19868589.8924
      2135.1534
 04  9  9 21 57 44.9970000  0  8G 3G10G 8G13G19G28G23G27
  -6647889.74248  -5180752.94942  22096782.9464   22096782.0874
       535.9274
  -5770799.32846  -4490771.69542  22564181.8374   22564181.9974
      2806.5014
 -15095264.10949 -11738034.52346  20458376.1184   20458375.6614
      3381.1204
  -2765588.41449  -2153496.40646  19756122.4464   19756120.5564
      -180.8524
 -12002597.60548  -9351175.19144  21797456.5094   21797454.4034
      2953.9104
  -4925148.39547  -3834643.67642  22656710.6184   22656710.1574
      4681.6204
   6624711.44547   5152254.24643  22442329.6344   22442328.0484
     -1933.7344
  -9748729.96149  -7591561.54346  19862501.9544   19862500.3604
      2133.4444
 04  9  9 21 57 59.9970000  0  8G 3G10G 8G13G19G28G23G27
  -6655808.74647  -5186923.60942  22095274.5094   22095275.0954
       527.9344
  -5812781.50846  -4523485.08242  22556193.7434   22556193.2044
      2798.8124
 -15145951.76649 -11777531.37946  20448731.0954   20448730.1854
      3379.1774
  -2762780.54749  -2151308.47746  19756656.7904   19756654.9464
      -187.1914
 -12046811.04348  -9385627.19544  21789042.9384   21789040.9894
      2947.5634
  -4995345.46147  -3889342.63342  22643352.2044   22643352.1614
      4679.8044
   6653748.01247   5174880.08643  22447854.7204   22447853.1034
     -1935.7714
  -9780706.07049  -7616477.98446  19856417.0564   19856415.7474
      2131.7414
 04  9  9 21 58 14.9970000  0  8G 3G10G 8G13G19G28G23G27
  -6663607.18447  -5193000.33243  22093791.3924   22093790.7864
       519.8964
  -5854647.48846  -4556107.90242  22548226.5874   22548226.7204
      2791.0654
 -15196609.14549 -11817004.64145  20439090.8844   20439090.1774
      3377.1594
  -2759877.03149  -2149046.00046  19757209.3684   19757207.3804
      -193.5684
 -12090928.32048  -9420004.27044  21780647.6184   21780645.4424
      2941.1524
  -5065514.55148  -3944019.78542  22629999.6884   22629999.6654
      4677.9394
   6682815.71947   5197530.20343  22453386.3924   22453384.5564
     -1937.8474
  -9812655.81249  -7641373.88346  19850337.2354   19850335.8024
      2129.9834
 04  9  9 21 58 29.9970000  0  8G 3G10G 8G13G19G28G23G27
  -6671285.57847  -5198983.49642  22092329.6814   22092330.5054
       511.8934
  -5896397.31246  -4588640.21942  22540281.1884   22540281.6384
      2783.3224
 -15247236.67649 -11856454.64845  20429457.0324   20429456.3494
      3375.1694
  -2756878.40649  -2146709.42646  19757780.1344   19757778.0214
      -199.9084
 -12134949.42248  -9454306.40644  21772270.4784   21772268.4814
      2934.7404
  -5135655.92247  -3998675.34442  22616651.5324   22616651.2714
      4676.0914
   6711914.05147   5220204.17243  22458922.7744   22458921.9744
     -1939.8894
  -9844579.55149  -7666249.52346  19844262.0174   19844260.9234
      2128.2494
 04  9  9 21 58 44.9970000  0  8G 3G10G 8G13G19G28G23G27
  -6678843.82047  -5204873.04342  22090892.1264   22090892.4424
       503.8834
  -5938030.93446  -4621081.99242  22532358.5794   22532359.4624
      2775.5754
 -15297834.12149 -11895881.21946  20419828.4464   20419827.4234
      3373.1634
  -2753784.69149  -2144298.73846  19758368.7904   19758366.8214
      -206.2484
 -12178873.97348  -9488533.30544  21763912.1654   21763909.7474
      2928.3034
  -5205769.18048  -4053308.99642  22603309.6264   22603308.9154
      4674.2174
   6741042.84047   5242901.86343  22464466.9544   22464465.2594
     -1941.9194
  -9876477.12149  -7691104.76646  19838192.0634   19838190.6344
      2126.5054
 04  9  9 21 58 59.9970000  0  8G 3G10G 8G13G19G28G23G27
  -6686281.07047  -5210668.31243  22089477.4784   22089477.6694
       495.8174
  -5979547.13746  -4653432.26642  22524458.6964   22524458.4354
      2767.7474
 -15348400.48849 -11935283.57445  20410206.2354   20410205.4814
      3371.0914
  -2750594.83249  -2141813.14146  19758975.7124   19758973.9194
      -212.6574
 -12222700.84048  -9522684.09044  21755572.3924   21755569.4384
      2921.7914
  -5275853.18048  -4107919.85242  22589973.4544   22589972.6424
      4672.2674
   6770202.91048   5265623.94543  22470016.2594   22470013.6184
     -1944.0054
  -9908347.62549  -7715938.92246  19832127.1814   19832126.1884
      2124.7004
 04  9  9 21 59 14.9970000  0  8G 3G10G 8G13G19G28G23G27
  -6693597.59847  -5216369.50843  22088084.7204   22088084.7394
       487.7684
  -6020946.09846  -4685691.16042  22516580.7044   22516581.0094
      2759.9314
 -15398936.16849 -11974662.01645  20400589.7204   20400588.9814
      3369.0454
  -2747309.25849  -2139252.96546  19759601.1264   19759599.0484
      -219.0384
 -12266429.93448  -9556758.67244  21747250.5014   21747248.3134
      2915.2734
  -5345908.04347  -4162508.00842  22576641.6344   22576641.9544
      4670.3244
   6799393.83247   5288370.06343  22475570.7434   22475568.6694
     -1946.0614
  -9940191.06249  -7740751.98446  19826067.9544   19826066.7284
      2122.8964
 04  9  9 21 59 29.9970000  0  8G 3G10G 8G13G19G28G23G27
  -6700794.03948  -5221977.14143  22086715.4704   22086715.4704
       479.7634
  -6062228.19147  -4717859.00842  22508724.8294   22508724.6814
      2752.1404
 -15449441.30949 -12014016.66045  20390978.5714   20390977.7354
      3367.0094
  -2743928.57449  -2136618.67646  19760244.2124   19760241.9664
      -225.3794
 -12310061.62148  -9590757.36744  21738948.0874   21738945.3844
      2908.7794
  -5415934.05547  -4217073.65642  22563316.1964   22563316.7944
      4668.4014
   6828614.61748   5311139.45743  22481130.8214   22481129.8884
     -1948.0524
  -9972008.08649  -7765544.46946  19820013.3844   19820011.9704
      2121.1354
 04  9  9 21 59 44.9970000  0  8G 3G10G 8G13G19G28G23G27
  -6707868.79748  -5227489.93443  22085369.2744   22085369.0214
       471.6514
  -6103391.40247  -4749934.24242  22500893.0324   22500891.8174
      2744.2144
 -15499914.27749 -12053346.23445  20381374.0484   20381373.5174
      3364.8654
  -2740451.09449  -2133908.96946  19760906.1814   19760904.0444
      -231.8324
 -12353593.83248  -9624678.54744  21730664.4154   21730661.2354
      2902.1474
  -5485929.20348  -4271615.26642  22549996.9314   22549996.7204
      4666.3434
   6857867.05547   5333933.50842  22486697.2514   22486695.7594
     -1950.1624
 -10003796.86349  -7790314.94546  19813963.8844   19813962.9504
      2119.2524
 04  9  9 21 59 59.9970000  0  8G 3G10G 8G13G19G28G23G27
  -6714823.55147  -5232909.23843  22084045.4384   22084046.2904
       463.6504
  -6144437.31246  -4781918.06242  22493081.6424   22493081.0244
      2736.3944
 -15550356.82449 -12092652.09846  20371775.2514   20371774.2204
      3362.8364
  -2736878.56649  -2131125.19946  19761585.9154   19761584.3994
      -238.1684
 -12397027.91848  -9658523.26644  21722398.7354   21722395.8924
      2895.6064
  -5555895.06248  -4326134.05942  22536682.4624   22536682.7824
      4664.3914
   6887149.32047   5356750.82043  22492270.0634   22492267.9154
     -1952.1514
 -10035558.96149  -7815064.62146  19807919.7674   19807918.8024
      2117.4734
 04  9  9 22  0 14.9970000  0  8G 3G10G 8G13G19G28G23G27
  -6721656.93047  -5238233.95342  22082745.2674   22082745.5284
       455.5594
  -6185364.19947  -4813809.12142  22485293.1494   22485292.6884
      2728.4594
 -15600767.07449 -12131932.80545  20362182.3214   20362181.7474
      3360.6834
  -2733209.50449  -2128266.21146  19762284.0404   19762282.1144
      -244.6044
 -12440362.09048  -9692290.12944  21714152.6884   21714149.6424
      2888.9454
  -5625829.89848  -4380628.68442  22523375.1104   22523374.6884
      4662.3224
   6916462.57047   5379592.25043  22497847.8844   22497846.2864
     -1954.2174
 -10067292.82849  -7839792.31646  19801881.3604   19801879.8684
      2115.5914
 04  9  9 22  0 29.9970000  0  8G 3G10G 8G13G19G28G23G27
  -6728370.43448  -5243465.26242  22081467.7354   22081467.9664
       447.5674
  -6226173.45746  -4845608.54342  22477527.4074   22477526.9624
      2720.6174
 -15651146.49249 -12171189.48445  20352595.5794   20352594.6694
      3358.6284
  -2729445.52049  -2125333.24246  19763000.2984   19762998.5564
      -250.9324
 -12483597.52348  -9725980.05144  21705925.4544   21705922.0244
      2882.3624
  -5695734.93447  -4435100.07842  22510072.3764   22510072.1464
      4660.3364
   6945805.37547   5402456.71543  22503431.4934   22503430.2284
     -1956.1874
 -10098999.89849  -7864499.11746  19795847.8844   19795846.5284
      2113.8054
 04  9  9 22  0 44.9970000  0  8G 3G10G 8G13G19G28G23G27
  -6734964.39147  -5248603.41842  22080212.8844   22080213.0174
       439.5974
  -6266865.12546  -4877316.33242  22469784.0634   22469783.8684
      2712.7784
 -15701495.25449 -12210422.26646  20343014.3924   20343013.4504
      3356.5844
  -2725586.82449  -2122326.48046  19763735.0954   19763732.8534
      -257.2464
 -12526734.18448  -9759593.01244  21697716.7904   21697713.3334
      2875.7774
  -5765610.21147  -4489548.26242  22496775.1884   22496774.8764
      4658.3524
   6975177.32047   5425343.90243  22509021.1184   22509019.8994
     -1958.1304
 -10130680.12149  -7889185.00046  19789819.2354   19789817.8414
      2112.0154
 04  9  9 22  0 59.9970000  0  8G 3G10G 8G13G19G28G23G27
  -6741438.11347  -5253647.87142  22078981.1884   22078980.4814
       431.5824
  -6307438.32446  -4908931.78542  22462062.9314   22462063.3374
      2704.8804
 -15751812.31649 -12249630.35945  20333439.3764   20333438.5954
      3354.4714
  -2721632.69149  -2119245.35246  19764487.0794   19764484.8884
      -263.6094
 -12569771.06648  -9793128.21944  21689526.9784   21689523.9744
      2869.1264
  -5835454.75447  -4543972.52742  22483484.4624   22483484.2514
      4656.3034
   7004578.71947   5448254.01242  22514615.6494   22514614.4854
     -1960.0934
 -10162332.93449  -7913849.52746  19783795.6654   19783794.8374
      2110.1884
 04  9  9 22  1 14.9970000  0  8G 3G10G 8G13G19G28G23G27
  -6747790.82047  -5258598.03942  22077772.4854   22077771.6064
       423.5144
  -6347891.93445  -4940454.08242  22454364.3294   22454365.0214
      2696.9074
 -15802096.98049 -12288813.19545  20323870.3684   20323869.5604
      3352.3114
  -2717582.20349  -2116089.15246  19765257.8214   19765256.0954
      -270.0334
 -12612706.77048  -9826584.59444  21681356.2674   21681353.6264
      2862.3804
  -5905267.39847  -4598371.93042  22470199.2284   22470199.5564
      4654.1764
   7034010.42647   5471187.75042  22520216.4624   22520214.8294
     -1962.1144
 -10193957.28549  -7938491.87946  19777777.7984   19777776.7554
      2108.2904
 04  9  9 22  1 29.9970000  0  8G 3G10G 8G13G19G28G23G27
  -6754021.00847  -5263452.73842  22076586.2984   22076586.4034
       415.3464
  -6388224.02746  -4971881.66442  22446689.7044   22446690.2084
      2688.8064
 -15852347.34849 -12327969.30946  20314308.0404   20314307.5484
      3350.0244
  -2713433.81249  -2112856.65646  19766047.2044   19766045.3174
      -276.5594
 -12655539.53148  -9859960.75444  21673205.9154   21673203.2514
      2855.5174
  -5975046.37947  -4652745.09842  22456920.7354   22456920.7244
      4651.9324
   7063473.87147   5494146.22742  22525823.2904   22525822.2004
     -1964.2304
 -10225551.52049  -7963110.76646  19771765.7434   19771764.6034
      2106.2824
 04  9  9 22  1 44.9970000  0  8G 3G10G 8G13G19G28G23G27
  -6760130.26247  -5268213.20342  22075424.1034   22075423.2554
       407.2844
  -6428436.22746  -5003215.82042  22439037.4544   22439037.8994
      2680.8134
 -15902564.81249 -12367099.79746  20304752.1884   20304750.6654
      3347.8314
  -2709189.11749  -2109549.12146  19766855.1884   19766853.0054
      -282.9804
 -12698270.70348  -9893257.75044  21665073.7984   21665071.6264
      2848.7454
  -6044792.97347  -4707093.02342  22443648.1964   22443647.9974
      4649.7734
   7092967.39147   5517128.12143  22531435.6964   22531434.6494
     -1966.2354
 -10257116.96949  -7987707.21546  19765759.0484   19765757.5564
      2104.3634
 04  9  9 22  1 59.9970000  0  8G 3G10G 8G13G19G28G23G27
  -6766120.44147  -5272880.87542  22074283.9544   22074283.6344
       399.3454
  -6468530.19146  -5034457.84042  22431408.0484   22431408.6104
      2672.9314
 -15952751.41849 -12406206.23445  20295201.9154   20295201.0174
      3345.7744
  -2704850.23849  -2106168.18746  19767680.7284   19767679.0214
      -289.2594
 -12740901.86748  -9926476.81644  21656961.4314   21656959.1814
      2842.0784
  -6114508.89547  -4761417.04342  22430381.2674   22430381.3994
      4647.7284
   7122488.93047   5540131.86342  22537053.5174   22537052.5404
     -1968.1034
 -10288655.55549  -8012282.73446  19759757.5634   19759756.1464
      2102.5724
 04  9  9 22  2 14.9970000  0  8G 3G10G 8G13G19G28G23G27
  -6771989.31646  -5277454.03142  22073167.3994   22073166.6424
       391.2584
  -6508503.25446  -5065605.68042  22423801.6184   22423801.6224
      2664.8714
 -16002904.60549 -12445286.62146  20285658.3604   20285657.3844
      3343.5464
  -2700414.75449  -2102711.97346  19768524.6814   19768523.3454
      -295.6994
 -12783430.49648  -9959615.97744  21648868.6344   21648866.0994
      2835.2424
  -6184191.55147  -4815715.16042  22417121.4074   22417121.0754
      4645.5104
   7152040.59047   5563159.08642  22542677.2514   22542675.5014
     -1970.1114
 -10320164.77349  -8036835.36746  19753761.5484   19753760.2904
      2100.6154
 04  9  9 22  2 29.9970000  0  8G 3G10G 8G13G19G28G23G27
  -6777736.07847  -5281932.03942  22072073.8844   22072073.3454
       383.1174
  -6548354.42647  -5096658.52042  22416218.6964   22416218.0874
      2656.7454
 -16053023.36749 -12484340.18446  20276121.2354   20276119.7394
      3341.2514
  -2695881.77349  -2099179.79746  19769387.6184   19769385.7594
      -302.1994
 -12825855.19148  -9992674.16044  21640795.7514   21640792.5874
      2828.3134
  -6253839.80547  -4869986.48843  22403867.8134   22403867.3254
      4643.2174
   7181623.11747   5586210.35242  22548306.0404   22548304.9584
     -1972.1684
 -10351643.69549  -8061364.40246  19747771.1574   19747769.8414
      2098.5954
 04  9  9 22  2 44.9970000  0  8G 3G10G 8G13G19G28G23G27
  -6783362.66447  -5286316.40642  22071003.1034   22071002.5714
       375.1064
  -6588085.37947  -5127617.69142  22408657.2744   22408656.8024
      2648.7304
 -16103109.32849 -12523368.19546  20266589.5634   20266588.7354
      3339.0644
  -2691253.17249  -2095573.10946  19770268.3454   19770266.3884
      -308.5734
 -12868177.46948 -10025652.53944  21632741.6344   21632739.2514
      2821.4854
  -6323455.28547  -4924232.26642  22390620.6104   22390620.7824
      4641.0324
   7211234.69947   5609284.25043  22553941.6034   22553940.3024
     -1974.1054
 -10383093.90649  -8085871.05146  19741786.3994   19741785.0714
      2096.6814
 04  9  9 22  2 59.9970000  0  8G 3G10G 8G13G19G28G23G27
  -6788867.00846  -5290605.50442  22069954.8134   22069955.5674
       366.9564
  -6627693.71946  -5158481.31242  22401119.6034   22401119.9354
      2640.5564
 -16153160.13349 -12562368.82446  20257065.5324   20257064.4854
      3336.7204
  -2686526.84049  -2091890.26646  19771167.7284   19771165.9424
      -315.0894
 -12910394.90648 -10058549.21944  21624708.0174   21624705.6184
      2814.4964
  -6393035.53947  -4978450.57842  22377380.0244   22377380.0214
      4638.6844
   7240877.19547   5632382.25042  22559582.2044   22559581.0134
     -1976.1664
 -10414513.19949  -8110353.61346  19735807.4704   19735806.0094
      2094.6204
 04  9  9 22  3 14.9960000  0  8G 3G10G 8G13G19G28G23G27
  -6794248.79747  -5294799.12142  22068931.2314   22068930.8324
       358.7864
  -6667176.84846  -5189247.36742  22393607.3484   22393606.6294
      2632.2094
 -16203172.66049 -12601339.60546  20247547.9024   20247547.2314
      3334.1684
  -2681703.32049  -2088131.69546  19772085.5204   19772083.8594
      -321.5684
 -12952504.52348 -10091361.89144  21616695.4814   21616692.6994
      2807.3084
  -6462575.85947  -5032637.77742  22364146.3634   22364146.5554
      4636.0214
   7270548.30947   5655502.54343  22565228.6134   22565227.3134
     -1978.0744
 -10445899.53149  -8134810.49646  19729834.8014   19729833.1954
      2092.4224
 04  9  9 22  3 29.9960000  0  8G 3G10G 8G13G19G28G23G27
  -6799508.12947  -5298897.29342  22067930.8094   22067929.9104
       350.6224
  -6706539.00047  -5219919.16842  22386116.5744   22386116.3364
      2624.1434
 -16253152.55949 -12640284.97746  20238037.3794   20238036.4924
      3331.9934
  -2676781.27749  -2084296.35546  19773022.3874   19773020.1724
      -328.1364
 -12994510.93048 -10124094.13744  21608700.9734   21608699.0004
      2800.4274
  -6532084.50847  -5086800.28142  22350919.4964   22350919.7424
      4633.9104
   7300252.67247   5678648.74242  22570881.0664   22570880.2154
     -1980.2914
 -10477256.34849  -8159244.37946  19723867.6214   19723866.3244
      2090.4544
 04  9  9 22  3 44.9960000  0  8G 3G10G 8G13G19G28G23G27
  -6804646.04347  -5302900.86342  22066952.5824   22066951.9924
       342.5284
  -6745778.73847  -5250495.57042  22378649.0984   22378649.7384
      2615.9834
 -16303097.60249 -12679203.17246  20228532.9414   20228532.0554
      3329.6704
  -2671762.25049  -2080385.44546  19773977.2704   19773975.5664
      -334.6024
 -13036412.10248 -10156744.38344  21600727.6214   21600725.6524
      2793.4114
  -6601557.88747  -5140935.33643  22337699.2154   22337699.0824
      4631.5594
   7329986.84847   5701818.17642  22576538.7854   22576539.1884
     -1982.2784
 -10508582.58249  -8183654.43446  19717906.7544   19717905.4924
      2088.4164
 04  9  9 22  3 59.9960000  0  8G 3G10G 8G13G19G28G23G27
  -6809662.73447  -5306809.98442  22065998.5124   22065997.5044
       334.4464
  -6784896.02346  -5280976.55542  22371205.2234   22371206.3444
      2607.8194
 -16353007.98449 -12718094.37146  20219035.5744   20219034.6914
      3327.3594
  -2666646.37549  -2076399.07046  19774950.7464   19774948.6994
      -341.0584
 -13078208.12948 -10189312.68744  21592774.4184   21592772.0124
      2786.4024
  -6670995.96947  -5195042.87142  22324485.0904   22324485.8324
      4629.2054
   7359750.37547   5725010.48043  22582203.5904   22582202.7464
     -1984.2354
 -10539878.46149  -8208040.83246  19711951.0044   19711949.5554
      2086.3924
 04  9  9 22  4 14.9960000  0  8G 3G10G 8G13G19G28G23G27
  -6814560.14147  -5310626.15642  22065066.5984   22065065.7854
       326.4944
  -6823892.58246  -5311363.47742  22363785.1844   22363785.5824
      2599.7714
 -16402885.44549 -12756959.90646  20209544.0354   20209543.4574
      3325.1644
  -2661435.78949  -2072338.88346  19775942.3324   19775940.8054
      -347.3724
 -13119900.70748 -10221800.39844  21584840.1214   21584837.8874
      2779.5054
  -6740400.44547  -5249124.20343  22311277.8014   22311278.3954
      4626.9654
   7389541.30947   5748224.13342  22587871.9494   22587871.3984
     -1986.0624
 -10571145.68449  -8232404.89846  19706001.2314   19705999.9304
      2084.4824
 04  9  9 22  4 29.9960000  0  8G 3G10G 8G13G19G28G23G27
  -6819337.05147  -5314348.41042  22064157.0274   22064156.2974
       318.4614
  -6862766.87147  -5341655.11742  22356387.5124   22356388.4304
      2591.6194
 -16452728.59849 -12795798.71546  20200058.7074   20200058.7384
      3322.8774
  -2656129.06249  -2068203.78546  19776952.1524   19776950.3874
      -353.7824
 -13161488.11748 -10254206.14844  21576926.3244   21576923.8484
      2772.4944
  -6809769.70747  -5303178.13343  22298078.0904   22298078.0634
      4624.6174
   7419360.72347   5771459.97742  22593546.9734   22593546.0744
     -1987.9614
 -10602382.75849  -8256745.46946  19700056.8874   19700055.3204
      2082.4724
 04  9  9 22  4 44.9960000  0  8G 3G10G 8G13G19G28G23G27
  -6823993.75447  -5317977.03543  22063271.4494   22063270.5084
       310.4474
  -6901519.09846  -5371851.65242  22349012.3874   22349013.0784
      2583.4824
 -16502537.84849 -12834611.10246  20190580.8164   20190580.1914
      3320.6174
  -2650726.55949  -2063994.05546  19777979.8714   19777978.1604
      -360.1674
 -13202970.29748 -10286529.91844  21569032.2074   21569030.3874
      2765.4794
  -6879103.87947  -5357204.70743  22284884.0744   22284883.8404
      4622.2784
   7449208.34047   5794717.80543  22599226.5434   22599225.8244
     -1989.8414
 -10633590.01249  -8281062.80146  19694118.5744   19694117.0124
      2080.4844
 04  9  9 22  4 59.9960000  0  8G 3G10G 8G13G19G28G23G27
  -6828529.80547  -5321511.61343  22062408.1214   22062407.8204
       302.4034
  -6940148.42647  -5401952.42642  22341661.9964   22341662.3524
      2575.2894
 -16552311.87549 -12873396.05146  20181108.9264   20181108.1414
      3318.2684
  -2645227.65649  -2059709.19946  19779026.5354   19779024.9184
      -366.5934
 -13244346.36748 -10318770.98044  21561159.4344   21561156.9884
      2758.4054
  -6948402.01647  -5411203.20343  22271696.8714   22271697.2314
      4619.8764
   7479084.62947   5817997.95342  22604912.5514   22604910.8054
     -1991.7534
 -10664766.62149  -8305356.26246  19688185.8324   19688184.6524
      2078.4414
 04  9  9 22  5 14.9960000  0  8G 3G10G 8G13G19G28G23G27
  -6832945.80547  -5324952.65643  22061567.6064   22061567.6604
       294.4004
  -6978655.24647  -5431957.74242  22334334.9104   22334333.8634
      2567.1214
 -16602051.63349 -12912154.29346  20171643.8324   20171643.4024
      3315.9844
  -2639633.03149  -2055349.75846  19780091.2314   19780089.6094
      -372.9754
 -13285616.62148 -10350929.60544  21553305.5204   21553303.4064
      2751.3504
  -7017664.55947  -5465173.96543  22258516.4184   22258516.8714
      4617.5034
   7508988.74247   5841299.82842  22610602.8094   22610600.8094
     -1993.6084
 -10695913.10949  -8329626.25446  19682258.7934   19682257.3524
      2076.4334
 04  9  9 22  5 29.9960000  0  8G 3G10G 8G13G19G28G23G27
  -6837241.03547  -5328299.58643  22060750.3564   22060750.5864
       286.3494
  -7017038.66447  -5461866.87542  22327030.0274   22327030.2974
      2558.8954
 -16651755.94149 -12950884.90646  20162185.6684   20162184.9924
      3313.6214
  -2633941.95349  -2050915.16446  19781173.9344   19781172.2734
      -379.4054
 -13326779.99248 -10383004.93444  21545472.4884   21545470.2584
      2744.2254
  -7086890.37947  -5519116.10243  22245342.3404   22245343.9224
      4615.0554
   7538921.20347   5864623.76642  22616298.7154   22616297.5354
     -1995.4974
 -10727028.58649  -8353872.06646  19676337.8954   19676336.3094
      2074.3654
 04  9  9 22  5 44.9960000  0  8G 3G10G 8G13G19G28G23G27
  -6841416.28547  -5331553.04343  22059956.0434   22059956.3714
       278.3504
  -7055299.14547  -5491680.23042  22319749.8094   22319749.7424
      2550.6994
 -16701425.48449 -12989588.43446  20152733.8244   20152732.8984
      3311.3034
  -2628155.21149  -2046406.03146  19782275.4264   19782273.1994
      -385.7834
 -13367836.85548 -10414997.25444  21537659.6994   21537656.7584
      2737.1244
  -7156079.92646  -5573029.99243  22232176.1604   22232176.6844
      4612.6364
   7568881.21947   5887969.16442  22621999.4814   22621999.0704
     -1997.3344
 -10758113.57049  -8378094.13746  19670422.4654   19670421.3324
      2072.3324
 04  9  9 22  5 59.9960000  0  8G 3G10G 8G13G19G28G23G27
  -6845472.58247  -5334713.80943  22059183.8874   22059184.1024
       270.4204
  -7093437.53147  -5521398.44142  22312492.5904   22312491.9104
      2542.5594
 -16751061.16849 -13028265.57846  20143288.2464   20143287.7774
      3309.0464
  -2622273.82849  -2041823.15646  19783394.4344   19783392.7274
      -392.0924
 -13408787.96548 -10446907.20744  21529866.8014   21529864.3404
      2730.0744
  -7225234.04747  -5626916.27743  22219017.4884   22219016.9454
      4610.2754
   7598867.79347   5911335.25842  22627706.2464   22627705.5744
     -1999.1054
 -10789169.04749  -8402293.20746  19664512.9814   19664511.1564
      2070.3654
 04  9  9 22  6 14.9960000  0  8G 3G10G 8G13G19G28G23G27
  -6849411.22347  -5337782.86743  22058433.9884   22058434.7234
       262.5764
  -7131454.86347  -5551022.32042  22305257.9024   22305257.2774
      2534.4894
 -16800663.93049 -13066917.07046  20133849.4414   20133848.6914
      3306.8514
  -2616298.94549  -2037167.41846  19784531.3094   19784529.8954
      -398.3264
 -13449634.15648 -10478735.38744  21522094.0274   21522091.6064
      2723.0794
  -7294353.73047  -5680775.71143  22205864.1294   22205863.8444
      4607.9794
   7628879.55147   5934720.98442  22633417.8164   22633415.7854
     -2000.7844
 -10820195.98449  -8426470.04346  19658608.0594   19658607.1644
      2068.4634
 04  9  9 22  6 29.9960000  0  8G 3G10G 8G13G19G28G23G27
  -6853229.64146  -5340758.27743  22057707.8484   22057707.8444
       254.5614
  -7169348.47747  -5580549.79342  22298046.4734   22298047.5394
      2526.2414
 -16850231.08249 -13105540.80146  20124417.4814   20124416.0744
      3304.4774
  -2610228.13349  -2032436.93746  19785686.9104   19785685.2504
      -404.7214
 -13490372.61748 -10510479.62544  21514341.5744   21514339.0824
      2715.8974
  -7363436.09047  -5734606.07842  22192717.9414   22192718.1414
      4605.4914
   7658918.77047   5958128.11742  22639133.8324   22639131.9024
     -2002.6154
 -10851191.81249  -8450622.62946  19652710.3564   19652708.7774
      2066.3894
 04  9  9 22  6 44.9960000  0  8G 3G10G 8G13G19G28G23G27
  -6856927.80147  -5343639.96943  22057003.7074   22057004.3634
       246.5444
  -7207117.90647  -5609980.51642  22290858.7154   22290860.4384
      2517.9624
 -16899762.50049 -13144136.71546  20114991.3874   20114990.5474
      3302.0954
  -2604061.27049  -2027631.60246  19786860.5434   19786858.6954
      -411.1244
 -13531002.85948 -10542139.53944  21506610.1684   21506607.4384
      2708.6834
  -7432480.77347  -5788407.08643  22179579.4814   22179579.3444
      4602.9794
   7688985.52347   5981556.68843  22644855.3404   22644854.1564
     -2004.4504
 -10882156.23049  -8474750.73846  19646817.8634   19646816.8164
      2064.2954
 04  9  9 22  6 59.9960000  0  8G 3G10G 8G13G19G28G23G27
  -6860506.04747  -5346428.21542  22056322.8404   22056323.1764
       238.5504
  -7244763.40646  -5639314.66442  22283695.0984   22283696.3244
      2509.7004
 -16949258.32449 -13182704.87146  20105572.4884   20105571.6484
      3299.7224
  -2597798.53549  -2022751.58246  19788052.2154   19788050.8564
      -417.5164
 -13571524.92248 -10573715.15244  21498899.3164   21498896.2974
      2701.4714
  -7501487.83647  -5842178.78143  22166447.3954   22166447.4384
      4600.4714
   7719079.46947   6005006.43842  22650581.9814   22650580.3204
     -2006.2634
 -10913089.32449  -8498854.44946  19640931.1374   19640930.3054
      2062.2064
 04  9  9 22  7 14.9960000  0  8G 3G10G 8G13G19G28G23G27
  -6863964.81247  -5349123.36743  22055665.3014   22055664.6064
       230.5844
  -7282284.92646  -5668552.21942  22276554.8564   22276556.0204
      2501.4354
 -16998718.57049 -13221245.30546  20096160.7934   20096159.7774
      3297.3504
  -2591440.38749  -2017797.19546  19789262.0984   19789260.1884
      -423.8774
 -13611938.76648 -10605206.44144  21491208.6524   21491205.5084
      2694.2564
  -7570457.23847  -5895921.14143  22153322.8014   22153323.2154
      4597.9604
   7749200.15647   6028477.03542  22656314.1134   22656311.9304
     -2008.0464
 -10943991.37949  -8522933.97346  19635051.0904   19635049.4924
      2060.1374
 04  9  9 22  7 29.9960000  0  8G 3G10G 8G13G19G28G23G27
  -6867303.63347  -5351725.04743  22055029.7774   22055028.9884
       222.5884
  -7319681.94147  -5697692.74242  22269438.6844   22269438.7704
      2493.1344
 -17048142.63349 -13259757.54746  20086755.8324   20086754.7114
      3294.9384
  -2584986.32449  -2012768.06646  19790490.2464   19790488.6914
      -430.2714
 -13652243.57848 -10636612.77344  21483538.6604   21483535.8484
      2686.9884
  -7639388.30547  -5949633.63343  22140205.7774   22140205.3564
      4595.4044
   7779347.81347   6051968.66042  22662051.0744   22662048.9614
     -2009.8444
 -10974861.64549  -8546988.72746  19629176.7774   19629175.1214
      2058.0184
 04  9  9 22  7 44.9960000  0  8G 3G10G 8G13G19G28G23G27
  -6870523.67247  -5354234.16843  22054416.7464   22054417.2314
       214.6694
  -7356955.20347  -5726736.84442  22262346.1294   22262345.6604
      2484.8844
 -17097531.37149 -13298242.27346  20077357.7934   20077356.4494
      3292.5834
  -2578437.41049  -2007665.02746  19791736.3164   19791734.8364
      -436.5944
 -13692440.13748 -10667934.73844  21475889.2624   21475886.7074
      2679.7714
  -7708281.80547  -6003316.83242  22127095.8404   22127094.9304
      4592.9004
   7809521.21947   6075480.34842  22667792.9814   22667791.1914
     -2011.5604
 -11005701.20749  -8571019.54746  19623308.3404   19623306.8564
      2055.9714
 04  9  9 22  7 59.9960000  0  8G 3G10G 8G13G19G28G23G27
  -6873625.65247  -5356651.30942  22053826.3954   22053826.4104
       206.7994
  -7394105.35547  -5755684.99642  22255276.7154   22255275.5944
      2476.6774
 -17146885.46549 -13336699.99246  20067965.7234   20067964.5594
      3290.2734
  -2571794.34849  -2002488.63746  19793000.5274   19792998.7974
      -442.8714
 -13732528.94548 -10699172.74644  21468260.3714   21468258.0084
      2672.5874
  -7777138.26647  -6056971.16042  22113992.5354   22113992.8404
      4590.4314
   7839719.56647   6099011.44542  22673539.3714   22673537.5394
     -2013.2234
 -11036510.53149  -8595026.80946  19617445.6844   19617443.6804
      2053.9554
 04  9  9 22  8 14.9960000  0  8G 3G10G 8G13G19G28G23G27
  -6876609.68047  -5358976.52042  22053259.1214   22053258.5474
       198.9354
  -7431132.14147  -5784537.01242  22248230.8874   22248229.6914
      2468.4524
 -17196204.69549 -13375130.54346  20058580.6524   20058579.2114
      3287.9494
  -2565057.21549  -1997238.94146  19794282.8244   19794281.1094
      -449.1424
 -13772509.54348 -10730326.44544  21460653.1914   21460649.3204
      2665.3734
  -7845957.37147  -6110596.39543  22100897.3714   22100896.8714
      4587.9404
   7869942.75847   6122561.91442  22679290.9104   22679288.6994
     -2014.8794
 -11067289.53949  -8619010.44946  19611587.8634   19611586.8754
      2051.9344
 04  9  9 22  8 29.9960000  0  8G 3G10G 8G13G19G28G23G27
  -6879474.02347  -5361208.48042  22052713.7544   22052713.3054
       190.9564
  -7468033.80147  -5813291.52742  22241208.7704   22241208.1134
      2460.1114
 -17245486.98849 -13413532.32846  20049202.1374   20049200.7584
      3285.4864
  -2558224.47749  -1991914.74646  19795583.0744   19795580.9614
      -455.5164
 -13812379.97748 -10761394.29744  21453066.1454   21453062.7974
      2658.0294
  -7914737.12948  -6164190.98843  22087808.6844   22087808.6604
      4585.3174
   7900192.47747   6146133.06342  22685046.8954   22685045.5594
     -2016.6484
 -11098036.38749  -8642969.02346  19605737.4184   19605735.6374
      2049.7904
 04  9  9 22  8 44.9960000  0  8G 3G10G 8G13G19G28G23G27
  -6882220.89848  -5363348.91842  22052191.0044   22052191.0664
       183.1254
  -7504812.22347  -5841950.05142  22234209.8014   22234210.0864
      2451.8954
 -17294734.62149 -13451907.09445  20039830.4814   20039829.5664
      3283.1764
  -2551298.16049  -1986517.64146  19796900.8954   19796899.3204
      -461.7544
 -13852142.04348 -10792377.71144  21445498.7544   21445496.2814
      2650.8044
  -7983479.50847  -6217756.43443  22074727.3634   22074727.7194
      4582.8254
   7930466.20747   6169722.95342  22690808.0514   22690806.7154
     -2018.2494
 -11128753.04749  -8666904.07846  19599892.0434   19599890.5514
      2047.7774
 04  9  9 22  8 59.9960000  0  8G 3G10G 8G13G19G28G23G27
  -6884848.30547  -5365396.25442  22051690.7934   22051691.1064
       175.1604
  -7541465.12547  -5870510.74643  22227234.9344   22227236.3284
      2443.5274
 -17343945.49649 -13490253.20746  20030466.3484   20030464.9654
      3280.7254
  -2544276.20349  -1981046.00446  19798237.3874   19798235.8134
      -468.1304
 -13891793.37948 -10823274.84044  21437953.6764   21437950.9844
      2643.4224
  -8052182.15647  -6271290.92242  22061653.8404   22061652.9694
      4580.1774
   7960766.04347   6193333.12942  22696573.6294   22696572.6804
     -2019.9894
 -11159437.29349  -8690813.88746  19594052.8874   19594051.7814
      2045.6164
 04  9  9 22  9 14.9960000  0  8G 3G10G 8G13G19G28G23G27
  -6887356.34447  -5367350.57442  22051213.7464   22051213.9024
       167.2034
  -7577992.41047  -5898973.56642  22220284.4654   22220284.2234
      2435.1524
 -17393119.05549 -13528570.26646  20021108.9964   20021107.5824
      3278.2374
  -2537158.69549  -1975499.92646  19799591.8484   19799589.7424
      -474.5014
 -13931333.68448 -10854085.45744  21430429.2624   21430426.5824
      2636.0204
  -8120844.77047  -6324794.21943  22048587.7544   22048586.9224
      4577.5084
   7991091.89147   6216963.57842  22702344.2704   22702342.8954
     -2021.7234
 -11190089.03149  -8714698.34846  19588220.4494   19588218.9304
      2043.4494
 04  9  9 22  9 29.9960000  0  8G 3G10G 8G13G19G28G23G27
  -6889747.39848  -5369213.74242  22050759.6064   22050758.7074
       159.4044
  -7614396.11347  -5927340.08242  22213357.0904   22213357.0634
      2426.9144
 -17442257.59449 -13566860.03146  20011758.0984   20011756.7074
      3275.9034
  -2529947.88749  -1969881.12546  19800963.6844   19800961.9184
      -480.7214
 -13970764.91848 -10884811.07444  21422925.6064   21422923.3324
      2628.7494
  -8189469.37547  -6378267.89143  22035528.8014   22035527.9414
      4574.9744
   8021441.28147   6240612.38742  22708120.2074   22708118.8244
     -2023.2934
 -11220710.29749  -8738559.07046  19582393.1064   19582392.1644
      2041.4184
 04  9  9 22  9 44.9960000  0  8G 3G10G 8G13G19G28G23G27
  -6892020.05148  -5370984.64142  22050326.2544   22050326.3954
       151.5104
  -7650674.59447  -5955609.02042  22206453.3164   22206453.2234
      2418.5654
 -17491359.59049 -13605121.31246  20002414.1454   20002412.9224
      3273.4664
  -2522642.40649  -1964188.55946  19802353.9414   19802351.8404
      -487.0324
 -14010085.36348 -10915450.36344  21415443.9024   21415440.4734
      2621.3634
  -8258054.23847  -6431710.59043  22022477.6844   22022476.7854
      4572.3244
   8051815.55547   6264280.58242  22713899.8714   22713898.8594
     -2024.9524
 -11251299.69149  -8762394.96146  19576572.3634   19576570.7624
      2039.2934
 04  9  9 22  9 59.9960000  0  8G 3G10G 8G13G19G28G23G27
  -6894174.22348  -5372663.21542  22049916.7384   22049916.3794
       143.6114
  -7686827.55547  -5983780.16042  22199573.8164   22199573.2464
      2410.1974
 -17540424.69549 -13643353.85246  19993077.2704   19993076.0744
      3271.0074
  -2515242.22749  -1958422.20346  19803762.5124   19803760.5434
      -493.3454
 -14049294.71148 -10946003.08244  21407982.0824   21407979.7544
      2613.9574
  -8326599.11347  -6485122.15243  22009433.6684   22009433.1484
      4569.6584
   8082214.59047   6287968.06642  22719684.7774   22719684.1064
     -2026.6024
 -11281856.81249  -8786205.69946  19570757.3634   19570756.1564
      2037.1414
 04  9  9 22 10 14.9960000  0  8G 3G10G 8G13G19G28G23G27
  -6896211.07447  -5374250.38743  22049528.0044   22049528.8364
       135.7904
  -7722856.04347  -6011854.31243  22192718.1454   22192717.8484
      2401.8994
 -17589453.83249 -13681558.36346  19983747.2314   19983746.1254
      3268.6094
  -2507748.34049  -1952582.84046  19805188.4814   19805186.9384
      -499.5924
 -14088393.71548 -10976469.80944  21400542.3404   21400539.7624
      2606.6004
  -8395104.82847  -6538503.18043  21996397.6764   21996396.5984
      4567.0484
   8112637.23847   6311673.96142  22725475.0514   22725473.5594
     -2028.1774
 -11312382.67649  -8809992.09046  19564948.5434   19564947.4064
      2035.0584
 04  9  9 22 10 29.9960000  0  8G 3G10G 8G13G19G28G23G27
  -6898129.52747  -5375745.27742  22049163.3244   22049163.3954
       127.8974
  -7758758.60247  -6039830.33642  22185885.9024   22185885.7734
      2393.5044
 -17638445.84849 -13719733.94946  19974424.2774   19974423.3794
      3266.1344
  -2500159.63749  -1946669.58646  19806632.6684   19806631.0204
      -505.9144
 -14127380.87948 -11006849.40644  21393123.1844   21393120.1644
      2599.1444
  -8463569.86347  -6591852.51243  21983369.0904   21983368.2814
      4564.3364
   8143084.39547   6335398.96542  22731269.0354   22731267.5084
     -2029.8104
 -11342876.01249  -8833753.12146  19559145.8164   19559144.4414
      2032.8894
 04  9  9 22 10 44.9960000  0  8G 3G10G 8G13G19G28G23G27
  -6899930.92647  -5377148.98043  22048820.5594   22048821.2314
       120.0934
  -7794536.33247  -6067709.07042  22179077.3794   22179077.7314
      2385.1824
 -17687401.65649 -13757881.32046  19965108.3404   19965107.3834
      3263.7214
  -2492477.46549  -1940683.49646  19808094.3714   19808092.9104
      -512.1454
 -14166257.12548 -11037142.56244  21385725.0904   21385722.6994
      2591.7504
  -8531995.28147  -6645170.98043  21970348.4264   21970347.1844
      4561.6954
   8173554.91447   6359142.15242  22737066.9264   22737066.0354
     -2031.3684
 -11373337.78549  -8857489.56246  19553349.2544   19553347.9884
      2030.7854
 04  9  9 22 10 59.9960000  0  8G 3G10G 8G13G19G28G23G27
  -6901614.76647  -5378461.06642  22048500.4104   22048500.5704
       112.2564
  -7830188.52047  -6095489.99643  22172293.0664   22172293.8984
      2376.8134
 -17736320.60949 -13795999.97746  19955799.5824   19955799.2114
      3261.2644
  -2484701.25449  -1934624.14146  19809574.3324   19809572.2974
      -518.4144
 -14205021.52748 -11067348.57044  21378348.1684   21378346.1484
      2584.2934
  -8600380.17247  -6698457.86343  21957335.2234   21957334.5204
      4558.9934
   8204049.10547   6382903.78942  22742869.1374   22742868.7464
     -2032.9464
 -11403767.34849  -8881200.91046  19547558.5274   19547557.2974
      2028.6384
 04  9  9 22 11 14.9960000  0  8G 3G10G 8G13G19G28G23G27
  -6903181.02047  -5379681.52742  22048202.4734   22048202.6564
       104.4174
  -7865714.85948  -6123172.84843  22165532.8714   22165533.0204
      2368.4234
 -17785202.35249 -13834089.63346  19946497.5904   19946497.1294
      3258.7834
  -2476830.98849  -1928491.48046  19811071.6524   19811070.1844
      -524.6844
 -14243673.73048 -11097467.15644  21370992.5744   21370990.8324
      2576.8144
  -8668724.19547  -6751712.89543  21944329.5434   21944328.8404
      4556.2684
   8234566.96146   6406683.86742  22748677.0984   22748676.3754
     -2034.5244
 -11434164.45349  -8904886.96146  19541774.2774   19541772.8984
      2026.4744
 04  9  9 22 11 29.9960000  0  8G 3G10G 8G13G19G28G23G27
  -6904628.69547  -5380809.60542  22047926.8874   22047927.2544
        96.5124
  -7901114.25448  -6150756.77342  22158796.2544   22158796.1914
      2359.9604
 -17834045.80149 -13872149.45346  19937203.2934   19937202.8054
      3256.2304
  -2468865.54349  -1922284.65246  19812587.5904   19812586.1564
      -531.0304
 -14282212.51248 -11127497.35244  21363659.1844   21363656.9774
      2569.2524
  -8737026.09047  -6804935.09843  21931332.5274   21931331.4694
      4553.4604
   8265109.37547   6430483.07842  22754488.9964   22754488.5354
     -2036.1614
 -11464527.98849  -8928546.85546  19535996.1994   19535994.7664
      2024.2364
 04  9  9 22 11 44.9960000  0  8G 3G10G 8G13G19G28G23G27
  -6905958.88347  -5381846.11742  22047674.2384   22047674.2974
        88.6794
  -7936387.54747  -6178242.44542  22152082.6914   22152083.0004
      2351.5534
 -17882851.78549 -13910180.08646  19927915.6374   19927915.0944
      3253.7324
  -2460806.00849  -1916004.51246  19814121.2074   19814119.6524
      -537.3024
 -14320638.55148 -11157439.69944  21356346.7464   21356344.4064
      2561.7364
  -8805286.65648  -6858125.11743  21918342.3094   21918341.5274
      4550.7044
   8295675.30947   6454300.61742  22760306.0354   22760305.2934
     -2037.7294
 -11494858.74649  -8952181.21546  19530224.2464   19530223.1604
      2022.0514
 04  9  9 22 11 59.9960000  0  8G 3G10G 8G13G19G28G23G27
  -6907172.17247  -5382791.54342  22047443.1064   22047442.7154
        80.8864
  -7971535.03147  -6205630.07042  22145395.1994   22145394.2384
      2343.1664
 -17931620.40249 -13948181.59046  19918635.0044   19918634.7384
      3251.2414
  -2452652.86749  -1909651.43746  19815672.6374   19815671.2074
      -543.5434
 -14358952.04748 -11187294.36344  21349056.2074   21349053.4774
      2554.2334
  -8873506.18748  -6911283.14143  21905360.7934   21905359.9924
      4547.9694
   8326264.02347   6478135.91842  22766126.0664   22766125.9494
     -2039.2484
 -11525157.19549  -8975790.39146  19524458.6214   19524457.5634
      2019.8974
 04  9  9 22 12 14.9960000  0  8G 3G10G 8G13G19G28G23G27
  -6908268.74647  -5383646.03542  22047234.4104   22047234.2774
        73.1054
  -8006556.66847  -6232919.65642  22138730.7234   22138730.1374
      2334.7764
 -17980352.19149 -13986154.39846  19909362.0824   19909361.2154
      3248.7864
  -2444406.55949  -1903225.75846  19817242.0124   19817240.5434
      -549.7544
 -14397152.95748 -11217061.27044  21341786.4024   21341783.9844
      2546.7274
  -8941684.47748  -6964409.02743  21892386.6684   21892385.6684
      4545.2194
   8356875.16847   6501988.68842  22771951.1994   22771951.1374
     -2040.7434
 -11555423.14849  -8999374.24246  19518699.3634   19518697.6134
      2017.7304
 04  9  9 22 12 29.9960000  0  8G 3G10G 8G13G19G28G23G27
  -6909249.02347  -5384409.90242  22047048.3634   22047047.9384
        65.3524
  -8041452.66047  -6260111.34442  22132090.9024   22132090.9104
      2326.3994
 -18029047.07049 -14024098.45346  19900095.3954   19900094.7154
      3246.3254
  -2436067.18749  -1896727.56646  19818828.9344   19818827.4534
      -555.9584
 -14435241.13348 -11246740.35944  21334538.1764   21334536.0354
      2539.2124
  -9009821.53548  -7017502.78943  21879420.8244   21879419.5514
      4542.4714
   8387508.40646   6525858.68842  22777780.8634   22777780.8364
     -2042.2164
 -11585656.96149  -9022933.05946  19512946.3094   19512944.6684
      2015.5884
 04  9  9 22 12 44.9960000  0  8G 3G10G 8G13G19G28G23G27
  -6910112.25047  -5385082.57042  22046883.2384   22046883.9694
        57.5484
  -8076221.91047  -6287204.27043  22125473.8794   22125475.0784
      2317.9504
 -18077703.66849 -14062012.68046  19890836.4184   19890835.6414
      3243.7734
  -2427633.91849  -1890156.19946  19820433.8244   19820431.9884
      -562.2184
 -14473215.39848 -11276330.68444  21327312.4344   21327310.3134
      2531.6184
  -9077916.25848  -7070563.57443  21866462.5274   21866461.6764
      4539.6484
   8418164.48446   6549746.45342  22783613.9184   22783614.5274
     -2043.7394
 -11615857.50049  -9046465.94146  19507198.9884   19507197.4734
      2013.3694
 04  9  9 22 12 59.9960000  0  8G 3G10G 8G13G19G28G23G27
  -6910858.38346  -5385663.96142  22046741.3634   22046741.4814
        49.7424
  -8110864.16047  -6314198.21943  22118882.2234   22118883.4184
      2309.4834
 -18126322.01649 -14099897.08646  19881585.0514   19881583.6884
      3241.2234
  -2419106.68749  -1883511.61746  19822056.3794   19822054.3484
      -568.4824
 -14511075.42648 -11305831.98444  21320108.1454   21320105.7934
      2524.0024
  -9145968.37148  -7123591.14843  21853512.6134   21853512.2934
      4536.8084
   8448843.44546   6573652.03942  22789451.9414   22789452.7734
     -2045.2644
 -11646024.45749  -9069972.65646  19501458.5904   19501457.5234
      2011.1304
 04  9  9 22 13 14.9960000  0  8G 3G10G 8G13G19G28G23G27
  -6911488.80946  -5386155.21542  22046621.0664   22046621.1844
        42.0284
  -8145380.57047  -6341094.12143  22112313.2234   22112315.0704
      2301.0944
 -18174903.19949 -14137752.55146  19872340.1454   19872338.8484
      3238.7464
  -2410487.05549  -1876795.03946  19823696.8404   19823695.1294
      -574.6424
 -14548822.25448 -11335245.08244  21312924.8564   21312922.5704
      2516.4554
  -9213978.81648  -7176586.24243  21840570.5984   21840570.4884
      4534.0304
   8479543.60246   6597574.14842  22795294.6134   22795295.0704
     -2046.6774
 -11676159.19949  -9093454.27346  19495724.0204   19495722.6334
      2008.9834
 04  9  9 22 13 29.9960000  0  8G 3G10G 8G13G19G28G23G27
  -6912001.59447  -5386554.81642  22046522.7464   22046524.0824
        34.1864
  -8179768.98047  -6367890.27742  22105769.5434   22105769.8094
      2292.5614
 -18223445.34449 -14175577.58646  19863102.7384   19863101.5824
      3236.1434
  -2401772.98049  -1870004.86746  19825354.8094   19825353.5824
      -580.9384
 -14586453.69948 -11364568.26644  21305764.3714   21305761.4384
      2508.7634
  -9281945.53148  -7229547.27043  21827637.2704   21827636.4414
      4531.1144
   8510266.89846   6621514.33642  22801141.1844   22801141.5274
     -2048.2204
 -11706259.52049  -9116909.06646  19489996.4344   19489995.0004
      2006.6884
 04  9  9 22 13 44.9960000  0  8G 3G10G 8G13G19G28G23G27
  -6912397.35946  -5386863.21542  22046449.0664   22046448.0354
        26.3844
  -8214029.81647  -6394587.02342  22099250.7154   22099249.5314
      2284.0564
 -18271948.36749 -14213372.14546  19853873.2384   19853871.9534
      3233.5354
  -2392964.94149  -1863141.48846  19827031.2074   19827029.4614
      -587.2034
 -14623969.84048 -11393801.60244  21298625.2074   21298621.8284
      2501.0764
  -9349868.55948  -7282474.27043  21814711.8164   21814710.6954
      4528.2024
   8541012.73846   6645472.07842  22806991.9414   22806992.1254
     -2049.7234
 -11736325.64849  -9140337.20746  19484274.9024   19484273.2624
      2004.4094
 04  9  9 22 13 59.9960000  0  8G 3G10G 8G13G19G28G23G27
  -6912675.35546  -5387079.84042  22046396.0514   22046394.8284
        18.5334
  -8248161.94547  -6421183.46943  22092755.6374   22092755.0664
      2275.4754
 -18320411.21549 -14251135.38346  19844651.0824   19844649.8094
      3230.8574
  -2384061.95749  -1856204.11745  19828725.2154   19828723.7504
      -593.5324
 -14661369.60248 -11422944.24644  21291507.5744   21291505.3284
      2493.3174
  -9417746.79748  -7335366.34443  21801794.9884   21801794.4024
      4525.2164
   8571781.88346   6669447.94942  22812846.8244   22812847.1094
     -2051.2764
 -11766356.61349  -9163737.95346  19478560.2464   19478558.3094
      2002.0644
 04  9  9 22 14 14.9960000  0  8G 3G10G 8G13G19G28G23G27
  -6912838.76247  -5387207.18742  22046364.8714   22046364.2894
        10.8944
  -8282168.49647  -6447682.07843  22086284.4574   22086284.0594
      2267.1034
 -18368836.96149 -14288869.73846  19835435.5274   19835434.4534
      3228.3834
  -2375067.44149  -1849195.42646  19830437.0274   19830435.4104
      -599.6344
 -14698655.81648 -11451998.42244  21284412.3564   21284409.6414
      2485.7484
  -9485583.29347  -7388225.92243  21788885.6994   21788885.1374
      4522.4334
   8602571.19946   6693439.53542  22818706.3404   22818706.4534
     -2052.6214
 -11796355.45749  -9187113.67647  19472851.3014   19472850.0354
      1999.9234
 04  9  9 22 14 29.9960000  0  8G 3G10G 8G13G19G28G23G27
  -6912886.32046  -5387244.25042  22046355.4964   22046355.3244
         3.1714
  -8316047.96547  -6474081.65643  22079837.0744   22079836.8954
      2258.6314
 -18417224.26649 -14326574.11746  19826227.7774   19826226.9494
      3225.8204
  -2365980.10949  -1842114.41046  19832166.3324   19832164.3594
      -605.8224
 -14735826.80948 -11480962.80944  21277339.0434   21277336.6334
      2478.0664
  -9553376.39548  -7441051.67643  21775985.0744   21775984.7734
      4519.5404
   8633381.71946   6717447.65642  22824569.0744   22824569.3794
     -2054.0354
 -11826320.62949  -9210463.16046  19467149.3714   19467147.9454
      1997.6784
 04  9  9 22 14 44.9960000  0  8G 3G10G 8G13G19G28G23G27
  -6912818.44146  -5387191.39142  22046368.4654   22046368.5554
        -4.5254
  -8349800.40246  -6500382.25042  22073413.6524   22073414.3524
      2250.1634
 -18465573.28149 -14364248.66046  19817027.3094   19817026.2624
      3223.2684
  -2356800.32049  -1834961.35246  19833912.8164   19833911.0634
      -611.9864
 -14772882.67248 -11509837.50444  21270287.7704   21270285.1684
      2470.3914
  -9621126.22748  -7493843.70743  21763092.8014   21763091.9574
      4516.6554
   8664213.01246   6741471.95742  22830436.9884   22830436.0044
     -2055.4204
 -11856252.33649  -9233786.56246  19461453.5354   19461452.0634
      1995.4474
 04  9  9 22 14 59.9960000  0  8G 3G10G 8G13G19G28G23G27
  -6912635.00446  -5387048.47742  22046403.5204   22046402.9614
       -12.2294
  -8383425.53146  -6526583.66042  22067015.3404   22067015.4814
      2241.6754
 -18513883.64549 -14401893.09046  19807834.1844   19807833.0704
      3220.6914
  -2347527.71949  -1827735.96946  19835677.6454   19835675.8564
      -618.1734
 -14809822.84848 -11538622.03544  21263258.2154   21263255.6484
      2462.6784
  -9688832.17648  -7546601.53943  21750208.5514   21750208.1844
      4513.7304
   8695065.20746   6765512.56642  22836307.4414   22836307.2034
     -2056.8134
 -11886150.17249  -9257083.58246  19455763.9264   19455762.7034
      1993.1894
 04  9  9 22 15 14.9960000  0  8G 3G10G 8G13G19G28G23G27
  -6912336.18746  -5386815.64142  22046461.0204   22046460.1254
       -19.9214
  -8416923.48447  -6552685.95342  22060640.9264   22060640.9964
      2233.1974
 -18562155.29349 -14439507.35946  19798648.2544   19798647.2544
      3218.1104
  -2338162.59449  -1820438.48846  19837459.5744   19837457.9844
      -624.3424
 -14846647.33648 -11567316.41844  21256250.8954   21256248.0234
      2454.9664
  -9756494.07048  -7599325.05143  21737333.1064   21737332.8094
      4510.7934
   8725937.88346   6789569.11742  22842182.4654   22842181.8634
     -2058.1784
 -11916014.27049  -9280354.30147  19450081.2314   19450080.1174
      1990.9404
 04  9  9 22 15 29.9960000  0  7G 3G10G 8G13G19G28G27
  -6911921.73447  -5386492.69142  22046539.7464   22046538.8714
       -27.6304
  -8450293.49647  -6578688.56243  22054291.0274   22054290.7814
      2224.6674
 -18610387.56649 -14477090.93446  19789469.7624   19789468.7734
      3215.4854
  -2328704.51249  -1813068.57445  19839259.3244   19839257.7814
      -630.5394
 -14883355.32848 -11595920.02744  21249265.6524   21249262.7274
      2447.1994
  -9824111.46548  -7652013.89543  21724465.9734   21724464.8754
      4507.8264
 -11945843.80149  -9303598.09047  19444405.1214   19444403.3364
      1988.6354
 04  9  9 22 15 44.9960000  0  7G 3G10G 8G13G19G28G27
  -6911391.95747  -5386079.90642  22046640.4964   22046640.1484
       -35.3184
  -8483535.65247  -6604591.51642  22047964.4414   22047964.7194
      2216.1444
 -18658580.34049 -14514643.74246  19780299.1134   19780298.4414
      3212.8524
  -2319153.76649  -1805626.46145  19841077.0044   19841075.3324
      -636.7164
 -14919946.87548 -11624432.90244  21242302.0514   21242299.6024
      2439.4364
  -9891684.31248  -7704668.02043  21711606.7624   21711606.6094
      4504.8574
 -11975639.03149  -9326815.15246  19438735.3324   19438733.4884
      1986.3494
 04  9  9 22 15 59.9960000  0  7G 3G10G 8G13G19G28G27
  -6910745.22746  -5385575.95742  22046762.8404   22046762.9534
       -43.1154
  -8516648.17647  -6630393.46142  22041663.6134   22041663.7114
      2207.5024
 -18706731.97749 -14552164.48446  19771136.2074   19771135.2464
      3210.1094
  -2309508.75449  -1798110.87945  19842912.3164   19842910.6484
      -643.0014
 -14956419.92648 -11652853.46544  21235361.8484   21235359.3204
      2431.5374
  -9959210.57048  -7757285.85243  21698757.5824   21698757.0824
      4501.7514
 -12005398.11749  -9350004.04747  19433072.1374   19433070.6294
      1983.9394
 04  9  9 22 16 14.9960000  0  7G 3G10G 8G13G19G28G27
  -6909982.98846  -5384982.02342  22046908.2704   22046907.6094
       -50.8164
  -8549632.31646  -6656095.37942  22035386.9024   22035387.6454
      2198.9434
 -18754843.71149 -14589654.13346  19761981.2624   19761979.6214
      3207.4494
  -2299770.98449  -1790523.02346  19844765.4654   19844763.6294
      -649.1854
 -14992775.59448 -11681182.53944  21228443.6914   21228441.1884
      2423.7114
 -10026691.35248  -7809868.23043  21685916.1764   21685915.6604
      4498.7194
 -12035122.13749  -9373165.62146  19427415.8404   19427414.1334
      1981.6014
 04  9  9 22 16 29.9960000  0  7G 3G10G 8G13G19G28G27
  -6909102.98846  -5384296.32042  22047075.7544   22047075.2734
       -58.6674
  -8582485.64547  -6681695.37542  22029135.4734   22029135.4734
      2190.2224
 -18802912.98849 -14627110.70746  19752833.3634   19752832.6254
      3204.6184
  -2289938.21949  -1782861.14145  19846636.6454   19846634.9734
      -655.5184
 -15029011.30548 -11709418.13744  21221547.9574   21221545.6334
      2415.7144
 -10094124.10248  -7862413.21543  21673083.8954   21673083.7384
      4495.5174
 -12064808.73449  -9396298.03546  19421766.6374   19421764.9924
      1979.1074
 04  9  9 22 16 44.9960000  0  7G 3G10G 8G13G19G28G27
  -6908102.91446  -5383517.08642  22047265.7624   22047265.5984
       -66.6724
  -8615205.44947  -6707191.32442  22022908.5514   22022908.5474
      2181.3204
 -18850937.19549 -14664532.16846  19743694.7624   19743694.0904
      3201.6144
  -2280007.76649  -1775123.14145  19848526.3404   19848524.5354
      -662.0304
 -15065124.32048 -11737558.14844  21214676.2854   21214673.6524
      2407.5344
 -10161506.19548  -7914918.70343  21660260.9734   21660261.3674
      4492.1404
 -12094455.25449  -9419399.22346  19416125.2314   19416123.5864
      1976.4354
 04  9  9 22 16 59.9960000  0  7G 3G10G 8G13G19G28G27
  -6906983.43047  -5382644.75442  22047478.6214   22047478.9104
       -74.6324
  -8647792.15247  -6732583.56242  22016707.4024   22016708.1294
      2172.4474
 -18898916.75849 -14701918.82446  19734564.7464   19734563.4734
      3198.6374
  -2269980.33649  -1767309.57845  19850434.2544   19850432.9814
      -668.4954
 -15101114.91848 -11765602.75044  21207826.8794   21207824.7934
      2399.3734
 -10228837.84448  -7967384.87543  21647448.5824   21647448.1764
      4488.7774
 -12124062.12149  -9442469.50447  19410491.2464   19410489.3594
      1973.7914
 04  9  9 22 17 14.9960000  0  7G 3G10G 8G13G19G28G27
  -6905745.44247  -5381680.12942  22047714.4884   22047714.7384
       -82.5334
  -8680246.62547  -6757872.76242  22010531.9344   22010531.7624
      2163.6324
 -18946852.28549 -14739271.17246  19725443.0904   19725441.7854
      3195.7024
  -2259856.90249  -1759421.20745  19852360.5744   19852359.2624
      -674.8964
 -15136983.82848 -11793552.52744  21201001.4344   21200999.7584
      2391.2614
 -10296119.70748  -8019812.27743  21634645.8244   21634644.8674
      4485.4584
 -12153630.10549  -9465509.48846  19404864.5904   19404863.3164
      1971.1994
 04  9  9 22 17 29.9960000  0  7G 3G10G 8G13G19G28G27
  -6904390.12547  -5380624.02042  22047972.6214   22047972.4614
       -90.3544
  -8712569.75847  -6783059.61342  22004381.2154   22004380.8404
      2154.8764
 -18994744.71549 -14776589.94146  19716329.3954   19716328.4264
      3192.8294
  -2249638.57049  -1751458.89145  19854305.1684   19854303.4224
      -681.2224
 -15172731.65248 -11821407.95344  21194199.1604   21194196.5784
      2383.1884
 -10363352.50448  -8072201.43743  21621851.0904   21621850.6564
      4482.1864
 -12183159.98449  -9488519.78546  19399245.1764   19399243.6914
      1968.6594
 04  9  9 22 17 44.9960000  0  7G 3G10G 8G13G19G28G27
  -6902916.77047  -5379475.98442  22048252.3324   22048253.4534
       -98.2244
  -8744760.52746  -6808143.31642  21998255.8794   21998255.0204
      2146.0514
 -19042593.10249 -14813874.39146  19707224.0044   19707223.1064
      3189.8924
  -2239324.66449  -1743422.09845  19856267.8634   19856266.4414
      -687.5944
 -15208357.46148 -11849168.30944  21187419.5514   21187416.9224
      2375.0544
 -10430535.26248  -8124551.60543  21609066.6684   21609065.9384
      4478.8514
 -12212650.89849  -9511499.70746  19393633.2154   19393631.9614
      1966.0614
 04  9  9 22 17 59.9960000  0  7G 3G10G 8G13G19G28G27
  -6901327.12947  -5378237.30942  22048555.6844   22048555.9964
      -105.9764
  -8776820.46547  -6833125.06242  21992154.8484   21992154.5514
      2137.3294
 -19090399.00049 -14851125.73846  19698127.0274   19698126.3244
      3187.0604
  -2228916.75049  -1735312.05945  19858248.7384   19858247.2734
      -693.8614
 -15243862.50848 -11876834.57844  21180663.3244   21180660.1024
      2367.0034
 -10497669.30948  -8176863.81243  21596291.4414   21596291.3324
      4475.6034
 -12242104.32049  -9534450.43046  19388028.1994   19388027.1374
      1963.5614
 04  9  9 22 18 14.9960000  0  7G 3G10G 8G13G19G28G27
  -6899620.88347  -5376907.78942  22048880.8874   22048880.6954
      -113.7504
  -8808749.03547  -6858004.47743  21986079.1134   21986079.2974
      2128.5714
 -19138161.55949 -14888343.29746  19689037.9184   19689037.3754
      3184.1714
  -2218414.46949  -1727128.48045  19860246.8954   19860245.2624
      -700.1524
 -15279246.21548 -11904406.28144  21173930.2384   21173927.0084
      2358.9144
 -10564754.10948  -8229137.66443  21583525.8564   21583524.8954
      4472.3204
 -12271519.62149  -9557371.44146  19382430.8634   19382429.4734
      1961.0204
 04  9  9 22 18 29.9960000  0  7G 3G10G 8G13G19G28G27
  -6897798.82447  -5375488.01642  22049227.1374   22049227.2424
      -121.4714
  -8840546.66847  -6882781.84843  21980028.2544   21980029.2774
      2119.8424
 -19185881.46549 -14925527.63346  19679957.0824   19679956.2814
      3181.3274
  -2207818.49649  -1718871.90245  19862263.4264   19862261.6484
      -706.3984
 -15314508.79348 -11931883.60544  21167219.4264   21167216.3204
      2350.8394
 -10631790.02048  -8281373.39843  21570769.3324   21570768.4574
      4469.0614
 -12300897.29349  -9580263.12546  19376840.4734   19376839.2154
      1958.5114
 04  9  9 22 18 44.9960000  0  7G 3G10G 8G13G19G28G27
  -6895860.90647  -5373977.97742  22049595.8634   22049595.7424
      -129.1954
  -8872213.28947  -6907457.13743  21974002.5824   21974003.3164
      2111.1084
 -19233558.43049 -14962678.50446  19670884.7464   19670883.8914
      3178.4644
  -2197128.90649  -1710542.36746  19864297.7154   19864296.5204
      -712.6394
 -15349650.06248 -11959266.39844  21160532.7934   21160528.9574
      2342.7514
 -10698776.70748  -8333570.78943  21558022.2234   21558020.8054
      4465.7794
 -12330237.07849  -9603125.29746  19371257.0204   19371256.0314
      1955.9864
 04  9  9 22 18 59.9960000  0  7G 3G10G 8G13G19G28G27
  -6893807.38747  -5372377.83642  22049986.0434   22049986.8164
      -136.9014
  -8903748.83247  -6932030.25843  21968001.0274   21968001.8324
      2102.3704
 -19281192.34449 -14999795.82046  19661820.1684   19661819.3794
      3175.5944
  -2186345.79749  -1702139.96545  19866349.6844   19866348.1454
      -718.8744
 -15384669.78948 -11986554.48044  21153868.4024   21153865.3014
      2334.6484
 -10765713.85948  -8385729.57443  21545284.6764   21545283.2194
      4462.4774
 -12359538.96549  -9625957.93047  19365681.2544   19365680.3054
      1953.4594
 04  9  9 22 19 14.9960000  0  7G 3G10G 8G13G19G28G27
  -6891637.00847  -5370686.67242  22050400.3244   22050400.1094
      -144.6924
  -8935151.82047  -6956500.12142  21962025.1134   21962025.0984
      2093.5334
 -19328781.75049 -15036878.47346  19652763.6844   19652763.0004
      3172.6274
  -2175467.93449  -1693663.72345  19868419.3094   19868418.2274
      -725.1914
 -15419566.52748 -12013746.72744  21147227.8324   21147224.9224
      2326.4494
 -10832600.01248  -8437848.62543  21532556.2384   21532556.0634
      4459.0774
 -12388801.52049  -9648759.92246  19360112.8714   19360111.8524
      1950.8374
 04  9  9 22 19 29.9960000  0  7G 3G10G 8G13G19G28G27
  -6889353.07447  -5368907.00442  22050834.2624   22050834.0354
      -152.2624
  -8966425.24247  -6980869.00443  21956073.4414   21956074.0204
      2084.8954
 -19376329.59049 -15073928.72746  19643715.8484   19643714.8984
      3169.8564
  -2164498.55149  -1685116.17646  19870507.2384   19870505.6804
      -731.2924
 -15454343.07047 -12040845.32844  21140610.0274   21140607.0234
      2318.4364
 -10899438.11348  -8489930.23443  21519837.8874   21519836.8444
      4455.8734
 -12418027.62149  -9671533.50846  19354551.2624   19354550.1684
      1948.4074
 04  9  9 22 19 44.9960000  0  7G 3G10G 8G13G19G28G27
  -6886954.04347  -5367037.62542  22051290.1604   22051290.2814
      -159.9354
  -8997567.44948  -7005135.65242  21950147.6684   21950147.9774
      2076.1474
 -19423834.10249 -15110945.21946  19634676.1684   19634674.9654
      3166.9674
  -2153435.98849  -1676496.01645  19872612.1214   19872610.7384
      -737.5044
 -15488997.48848 -12067848.76644  21134015.7314   21134012.3444
      2310.2954
 -10966226.23048  -8541972.90643  21507128.4574   21507127.6414
      4452.5414
 -12447215.45349  -9694277.27047  19348997.3874   19348996.0394
      1945.8554
 04  9  9 22 19 59.9960000  0  7G 3G10G 8G13G19G28G27
  -6884439.96547  -5365078.61342  22051768.8564   22051769.4384
      -167.6054
  -9028578.37547  -7029299.98042  21944246.6684   21944246.6884
      2067.3954
 -19471295.01649 -15147927.73446  19625644.7854   19625643.3594
      3164.0614
  -2142280.39549  -1667803.37145  19874734.7544   19874733.6724
      -743.7064
 -15523529.64548 -12094756.92644  21127443.9964   21127441.2074
      2302.1444
 -11032964.15248  -8593976.43743  21494428.5434   21494427.8524
      4449.1954
 -12476364.94549  -9716991.15247  19343449.7854   19343448.6954
      1943.2994
 04  9  9 22 20 14.9950000  0  7G 3G10G 8G13G19G28G27
  -6881810.23447  -5363029.50442  22052269.6164   22052269.8084
      -175.3154
  -9059454.89847  -7053359.63742  21938371.0154   21938371.4834
      2058.4354
 -19518708.15249 -15184873.02046  19616622.2654   19616620.9874
      3160.8764
  -2131031.66449  -1659038.14845  19876875.7574   19876874.5194
      -749.9154
 -15557936.02748 -12121567.08244  21120897.0934   21120893.9374
      2293.7594
 -11099646.40248  -8645936.59843  21481739.2264   21481738.4404
      4445.4834
 -12505473.12949  -9739672.85947  19337910.8514   19337909.6754
      1940.5464
 04  9  9 22 20 29.9950000  0  7G 3G10G 8G13G19G28G27
  -6879067.49247  -5360892.30942  22052791.0304   22052791.9444
      -182.8494
  -9090203.71147  -7077319.75442  21932519.5854   21932520.5654
      2049.9214
 -19566082.32849 -15221787.96146  19607606.9214   19607606.1634
      3158.2784
  -2119690.99649  -1650201.27745  19879033.8354   19879032.1514
      -756.0454
 -15592223.73848 -12148284.76644  21114372.0464   21114369.2024
      2285.8474
 -11166284.24248  -8697862.15243  21469058.7024   21469057.7534
      4442.5234
 -12534546.38749  -9762327.34046  19332378.2734   19332377.3434
      1938.2174
 04  9  9 22 20 44.9950000  0  7G 3G10G 8G13G19G28G27
  -6876211.56647  -5358666.93442  22053334.3744   22053335.3044
      -190.3954
  -9120822.45747  -7101178.49242  21926692.6484   21926693.4994
      2041.2504
 -19613414.13749 -15258669.88346  19598600.4684   19598598.9764
      3155.4544
  -2108258.94949  -1641293.20345  19881209.1874   19881207.6164
      -762.1364
 -15626389.86348 -12174907.71144  21107870.6404   21107867.3984
      2277.7424
 -11232872.72348  -8749749.24243  21456387.1404   21456386.4834
      4439.2324
 -12563582.43749  -9784952.82846  19326852.8904   19326851.8984
      1935.7374
 04  9  9 22 20 59.9950000  0  7G 3G10G 8G13G19G28G27
  -6873242.99647  -5356353.78142  22053900.0624   22053899.7614
      -197.9054
  -9151311.13347  -7124935.89143  21920891.6084   21920891.2614
      2032.5784
 -19660703.55549 -15295518.75846  19589601.4444   19589600.5034
      3152.6284
  -2096735.89149  -1632314.20745  19883402.2734   19883400.6904
      -768.2044
 -15660434.50848 -12201435.98844  21101391.6794   21101389.0304
      2269.6434
 -11299411.74648  -8801597.80144  21443725.1794   21443724.1514
      4435.9354
 -12592581.23449  -9807549.29746  19321334.4684   19321333.8784
      1933.2534
 04  9  9 22 21 14.9950000  0  7G 3G10G 8G13G19G28G27
  -6870163.73047  -5353954.35942  22054486.1084   22054485.9954
      -205.2844
  -9181671.44947  -7148593.27342  21915113.8514   21915114.1084
      2024.0214
 -19707952.17249 -15332335.85546  19580610.3584   19580609.1204
      3149.9084
  -2085123.81649  -1623265.84445  19885611.8434   19885610.5034
      -774.1384
 -15694359.18747 -12227870.78544  21094935.9294   21094933.5034
      2261.6454
 -11365903.05548  -8853409.17244  21431072.4994   21431071.8234
      4432.7544
 -12621544.59849  -9830118.14846  19315823.2024   19315822.0424
      1930.8914
 04  9  9 22 21 29.9950000  0  7G 3G10G 8G13G19G28G27
  -6866970.00847  -5351465.78142  22055093.5074   22055094.3154
      -212.9154
  -9211899.69547  -7172147.72343  21909362.1244   21909361.8824
      2015.2164
 -19755156.05949 -15369118.09446  19571627.7334   19571626.8274
      3146.9264
  -2073418.85949  -1614145.11745  19887839.0774   19887837.6794
      -780.3304
 -15728159.93048 -12254209.02044  21088504.4444   21088501.6404
      2253.3834
 -11432342.59848  -8905180.20343  21418428.7804   21418428.2304
      4429.3034
 -12650468.44149  -9852656.21146  19310318.9914   19310317.9254
      1928.2564
 04  9  9 22 21 44.9950000  0  7G 3G10G 8G13G19G28G27
  -6863664.37147  -5348889.96942  22055722.4914   22055722.5774
      -220.3764
  -9241998.13347  -7195601.06643  21903633.8124   21903634.2454
      2006.5634
 -19802317.57849 -15405867.31646  19562653.2884   19562652.2184
      3144.1014
  -2061623.64149  -1604954.06245  19890083.6714   19890082.0464
      -786.3484
 -15761838.96948 -12280452.41444  21082095.0464   21082092.3944
      2245.2694
 -11498732.57448  -8956912.60943  21405795.8514   21405794.8784
      4425.9984
 -12679355.13349  -9875165.30946  19304821.8664   19304821.0074
      1925.7794
 04  9  9 22 21 59.9950000  0  7G 3G10G 8G13G19G28G27
  -6860246.30947  -5346226.57042  22056373.3274   22056373.4054
      -227.8714
  -9271965.88347  -7218952.57042  21897930.6714   21897930.8824
      1997.8504
 -19849435.65249 -15442582.70346  19553686.8274   19553685.6904
      3141.2054
  -2049737.42249  -1595692.07845  19892345.6484   19892344.0934
      -792.4154
 -15795395.30148 -12306600.19944  21075709.6244   21075706.8274
      2237.0894
 -11565071.97748  -9008605.62144  21393171.9374   21393170.8554
      4422.6274
 -12708203.82449  -9897644.79746  19299332.5074   19299331.0424
      1923.2464
 04  9  9 22 22 14.9950000  0  7G 3G10G 8G13G19G28G27
  -6856715.11747  -5343475.02342  22057044.9134   22057045.5974
      -235.4134
  -9301802.10247  -7242201.58243  21892254.0774   21892253.4954
      1989.0814
 -19896509.35949 -15479263.49246  19544729.0304   19544727.7694
      3138.2474
  -2037759.49249  -1586358.64145  19894624.8514   19894623.0304
      -798.5294
 -15828828.02748 -12332651.64844  21069347.8434   21069344.4374
      2228.8484
 -11631359.84448  -9060258.46143  21380557.0544   21380556.8434
      4419.1914
 -12737013.52349  -9920093.92246  19293850.2414   19293849.1204
      1920.6474
 04  9  9 22 22 29.9950000  0  7G 3G10G 8G13G19G28G27
  -6853071.89148  -5340636.12942  22057738.8824   22057738.5114
      -242.8824
  -9331507.74647  -7265348.82442  21886602.1084   21886600.0694
      1980.3764
 -19943539.70748 -15515910.50046  19535779.3584   19535778.2654
      3135.3574
  -2025690.81248  -1576954.49245  19896921.3514   19896920.0734
      -804.5794
 -15862137.70748 -12358607.23844  21063008.9684   21063005.9564
      2220.6454
 -11697596.82048  -9111871.66843  21367952.5074   21367951.9014
      4415.7984
 -12765785.09449  -9942513.32046  19288375.3044   19288373.8824
      1918.1054
 04  9  9 22 22 44.9950000  0  7G 3G10G 8G13G19G28G27
  -6849315.94548  -5337709.42242  22058453.2184   22058452.6754
      -250.3964
  -9361081.79347  -7288393.52042  21880973.7104   21880972.4334
      1971.6034
 -19990525.61749 -15552522.89546  19526838.6164   19526837.0734
      3132.3944
  -2013530.82848  -1567479.19145  19899235.4214   19899233.9054
      -810.6664
 -15895323.40647 -12384466.20744  21056693.7104   21056691.2374
      2212.3804
 -11763782.05548  -9163444.53143  21355358.2804   21355357.2844
      4412.3494
 -12794517.53549  -9964902.23446  19282907.4684   19282905.8824
      1915.4964
 04  9  9 22 22 59.9950000  0  7G 3G10G 8G13G19G28G27
  -6845449.46147  -5334696.58642  22059189.2494   22059189.0894
      -257.7664
  -9390526.25447  -7311337.23442  21875369.8354   21875369.6124
      1962.9644
 -20037469.22749 -15589102.32046  19517905.2494   19517904.1484
      3129.5744
  -2001281.64549  -1557934.39145  19901566.2654   19901564.9334
      -816.6124
 -15928386.95747 -12410230.00844  21050401.5544   21050399.7374
      2204.2374
 -11829917.18748  -9214978.36744  21342772.6324   21342772.1984
      4409.0094
 -12823212.77749  -9987262.16046  19277446.9524   19277445.6714
      1913.0164
 04  9  9 22 23 14.9950000  0  7G 3G10G 8G13G19G28G27
  -6841470.13748  -5331595.82842  22059946.9684   22059946.8394
      -265.2884
  -9419838.59047  -7334178.02742  21869792.2964   21869792.5504
      1954.1564
 -20084367.66849 -15625646.55946  19508980.9914   19508979.6904
      3126.5634
  -1988940.94149  -1548318.27345  19903914.9374   19903913.2224
      -822.7144
 -15961325.73447 -12435896.58644  21044133.6404   21044131.1944
      2195.9184
 -11895999.73048  -9266471.22344  21330197.8354   21330197.2064
      4405.5034
 -12851868.21549 -10009591.07046  19271993.8354   19271992.6634
      1910.3634
 04  9  9 22 23 29.9950000  0  7G 3G10G 8G13G19G28G27
  -6837380.42647  -5328409.05142  22060724.2414   22060725.0304
      -272.6474
  -9449021.06246  -7356917.61743  21864239.1634   21864239.0504
      1945.4984
 -20131223.30549 -15662157.43746  19500064.2104   19500063.1484
      3123.7094
  -1976511.14849  -1538632.73845  19906280.2264   19906278.6794
      -828.6534
 -15994141.90647 -12461467.60944  21037889.2734   21037886.1444
      2187.7454
 -11962031.74648  -9317924.71143  21317631.9294   21317631.2144
      4402.1344
 -12880486.13349 -10031890.74246  19266548.1554   19266546.8314
      1907.8614
 04  9  9 22 23 44.9950000  0  7G 3G10G 8G13G19G28G27
  -6833179.53948  -5325135.64142  22061523.8274   22061524.2304
      -280.0594
  -9478072.59045  -7379555.16843  21858710.7654   21858710.3474
      1936.7684
 -20178034.77349 -15698633.89546  19491156.3194   19491155.6054
      3120.7654
  -1963991.28948  -1528877.02045  19908662.7184   19908661.1904
      -834.6574
 -16026834.11748 -12486942.04744  21031668.1874   21031665.0894
      2179.4814
 -12028011.96148  -9369337.82843  21305076.5774   21305075.7844
      4398.6814
 -12909065.24648 -10054160.18046  19261109.6874   19261108.3664
      1905.2744
 04  9  9 22 23 59.9950000  0  7G 3G10G 8G13G19G28G27
  -6828867.44548  -5321775.59842  22062345.1244   22062344.7734
      -287.4734
  -9506992.93046  -7402090.48042  21853207.6554   21853206.9764
      1928.0234
 -20224801.58249 -15735075.55146  19482257.2104   19482256.0934
      3117.7874
  -1951381.21148  -1519051.00845  19911062.1404   19911061.0194
      -840.6724
 -16059401.93447 -12512319.57044  21025470.5544   21025468.1484
      2171.1884
 -12093939.89848  -9420710.22343  21292531.2574   21292530.4134
      4395.1964
 -12937605.23848 -10076399.12546  19255678.7104   19255677.3394
      1902.6664
 04  9  9 22 24 14.9950000  0  7G 3G10G 8G13G19G28G27
  -6824444.43447  -5318329.12542  22063186.3904   22063186.2224
      -294.8674
  -9535782.18046  -7424523.65642  21847728.9214   21847728.2804
      1919.2834
 -20271524.00848 -15771482.62946  19473365.9994   19473364.8904
      3114.8284
  -1938681.19548  -1509154.90645  19913478.9294   19913477.5894
      -846.6684
 -16091845.31648 -12537600.10544  21019296.9134   21019294.3084
      2162.8924
 -12159815.59448  -9472041.88343  21279995.3664   21279994.5854
      4391.7134
 -12966106.18048 -10098607.64546  19250255.1554   19250253.7264
      1900.0634
 04  9  9 22 24 29.9950000  0  7G 3G10G 8G13G19G28G27
  -6819910.73447  -5314796.37942  22064048.6014   22064048.7304
      -302.2474
  -9564440.32445  -7446854.66442  21842275.2654   21842274.7804
      1910.5434
 -20318201.90648 -15807855.01246  19464483.8194   19464482.3434
      3111.8604
  -1925891.37548  -1499188.83645  19915912.6944   19915911.6904
      -852.6554
 -16124164.24248 -12562783.67244  21013146.8124   21013144.2574
      2154.5954
 -12225638.92248  -9523332.75443  21267469.5234   21267468.6284
      4388.2224
 -12994567.95348 -10120785.65646  19244838.9214   19244837.6124
      1897.4524
 04  9  9 22 24 44.9950000  0  7G 3G10G 8G13G19G28G27
  -6815268.52748  -5311179.09042  22064932.7024   22064932.4374
      -309.4804
  -9592969.52745  -7469085.23942  21836846.8514   21836846.4294
      1901.9474
 -20364837.27749 -15844194.25046  19455609.0544   19455608.1204
      3109.0254
  -1913014.11748  -1489154.62945  19918363.2804   19918362.0424
      -858.4844
 -16156360.56647 -12587871.71544  21007019.8354   21007017.7334
      2146.4224
 -12291411.68048  -9574584.22743  21254953.1014   21254952.3194
      4384.8514
 -13022992.68448 -10142934.79346  19239429.8194   19239428.4294
      1894.9824
 04  9  9 22 24 59.9950000  0  7G 3G10G 8G13G19G28G27
  -6810515.07847  -5307475.13742  22065837.1794   22065837.0694
      -316.8974
  -9621366.68746  -7491212.85943  21831443.0854   21831443.3584
      1893.1444
 -20411426.88348 -15880497.84046  19446743.6944   19446742.4254
      3105.9744
  -1900046.59449  -1479050.08645  19920830.6944   19920829.7104
      -864.5024
 -16188431.15247 -12612861.78144  21000916.9604   21000914.7454
      2138.0394
 -12357130.90648  -9625793.98044  21242447.3274   21242446.3514
      4381.2824
 -13051377.20348 -10165052.59446  19234028.3664   19234027.1594
      1892.3014
 04  9  9 22 25 14.9950000  0  7G 3G10G 8G13G19G28G27
  -6805651.91447  -5303685.66442  22066761.6874   22066762.6594
      -324.2114
  -9649632.94945  -7513238.53143  21826063.8824   21826063.8784
      1884.4174
 -20457972.00049 -15916766.74646  19437886.1244   19437884.8984
      3103.0084
  -1886990.05148  -1468876.18045  19923315.4604   19923314.7454
      -870.4364
 -16220377.16848 -12637754.76244  20994838.1944   20994835.7454
      2129.7344
 -12422797.55548  -9676962.76644  21229951.4914   21229950.4444
      4377.7774
 -13079722.53948 -10187139.87146  19228634.6554   19228633.0344
      1889.6894
 04  9  9 22 25 29.9950000  0  7G 3G10G 8G13G19G28G27
  -6800678.00447  -5299809.89842  22067708.4294   22067709.0384
      -331.5944
  -9677767.22746  -7535161.31242  21820710.4914   21820709.4444
      1875.6184
 -20504471.26248 -15952999.93446  19429037.5304   19429036.6594
      3099.9514
  -1873843.49248  -1458632.13745  19925817.0854   19925815.7024
      -876.4374
 -16252197.14147 -12662549.53544  20988783.0074   20988780.8124
      2121.3324
 -12488410.17648  -9728089.45744  21217466.2184   21217465.1514
      4374.1754
 -13108027.49248 -10209195.67646  19223248.4444   19223247.1364
      1886.9974
 04  9  9 22 25 44.9950000  0  7G 3G10G 8G13G19G28G27
  -6795594.09847  -5295848.42242  22068676.5074   22068676.4334
      -338.9274
  -9705770.10545  -7556981.76242  21815380.9054   21815380.2614
      1866.8594
 -20550925.13749 -15989197.76246  19420197.6874   19420196.5234
      3096.9254
  -1860607.73448  -1448318.57845  19928335.7334   19928335.0074
      -882.3844
 -16283891.57848 -12687246.50044  20982752.0624   20982748.9484
      2112.9634
 -12553969.35948  -9779174.50844  21204990.3434   21204989.9174
      4370.6124
 -13136292.61748 -10231220.44946  19217869.7804   19217868.5384
      1884.3424
 04  9  9 22 25 59.9950000  0  7G 3G10G 8G13G19G28G27
  -6790400.72747  -5291801.66842  22069664.0304   22069664.6084
      -346.2254
  -9733641.96546  -7578700.07442  21810077.2734   21810076.5264
      1858.1244
 -20597334.31249 -16025360.74646  19411366.3514   19411365.3354
      3093.9454
  -1847283.27349  -1437935.90645  19930871.2884   19930870.5194
      -888.2974
 -16315460.78148 -12711845.87144  20976744.1244   20976741.2734
      2104.6144
 -12619475.47748  -9830218.19944  21192524.8584   21192524.2654
      4367.0744
 -13164518.25048 -10253214.44546  19212498.4604   19212496.9684
      1881.7094
 04  9  9 22 26 14.9950000  0  7G 3G10G 8G13G19G28G27
  -6785097.38747  -5287669.19942  22070673.1404   22070673.6054
      -353.5564
  -9761382.07845  -7600315.73442  21804798.1714   21804796.9954
      1849.3414
 -20643697.26249 -16061487.71146  19402543.6874   19402542.4954
      3090.8634
  -1833869.49249  -1427483.63345  19933423.5694   19933422.8004
      -894.2524
 -16346903.85248 -12736346.94944  20970760.6324   20970758.2694
      2096.2054
 -12684927.38348  -9881219.64544  21180069.3744   21180069.1244
      4363.4604
 -13192703.52048 -10275176.99246  19207135.2334   19207134.1164
      1879.0184
 04  9  9 22 26 29.9950000  0  7G 3G10G 8G13G19G28G27
  -6779684.28147  -5283451.21542  22071703.6404   22071704.8394
      -360.8744
  -9788990.28546  -7621828.62142  21799544.6714   21799543.4444
      1840.5474
 -20690014.09449 -16097578.74246  19393729.7414   19393728.7264
      3087.7894
  -1820366.25049  -1416961.64545  19935994.0074   19935992.3784
      -900.2164
 -16378220.48048 -12760749.50844  20964801.7804   20964799.2844
      2087.7754
 -12750324.85548  -9932178.68043  21167625.1014   21167624.4874
      4359.8324
 -13220848.18049 -10297107.89546  19201779.2734   19201777.9094
      1876.3114
 04  9  9 22 26 44.9950000  0  7G 3G10G 8G13G19G28G27
  -6774163.34847  -5279149.21542  22072753.9994   22072755.0234
      -368.0624
  -9816468.26247  -7643240.05142  21794316.3194   21794315.3624
      1831.8654
 -20736286.68449 -16133635.30146  19384924.7024   19384923.6904
      3084.8394
  -1806775.79349  -1406371.69145  19938580.1874   19938578.6984
      -906.0304
 -16409412.35248 -12785054.85244  20958866.5624   20958863.2574
      2079.4584
 -12815669.46948  -9983096.52744  21155190.2184   21155189.6794
      4356.3084
 -13248953.89849 -10319008.44946  19196431.1714   19196429.7734
      1873.7154
 04  9  9 22 26 59.9950000  0  7G 3G10G 8G13G19G28G27
  -6768534.49247  -5274763.09842  22073825.1164   22073825.7654
      -375.2574
  -9843815.84447  -7664549.85942  21789112.3664   21789111.4334
      1823.1724
 -20782514.41449 -16169656.89846  19376127.9604   19376126.3584
      3081.8494
  -1793097.90249  -1395713.61745  19941182.4914   19941181.1364
      -911.8594
 -16440478.82048 -12809262.48044  20952954.1244   20952951.2374
      2071.0984
 -12880960.80548 -10033972.86344  21142765.2804   21142764.8784
      4352.7564
 -13277020.21949 -10340878.31246  19191090.1634   19191088.8234
      1871.0884
 04  9  9 22 27 14.9950000  0  7G 3G10G 8G13G19G28G27
  -6762796.94547  -5270292.32042  22074917.3434   22074918.0774
      -382.5034
  -9871031.98046  -7685757.22743  21783933.4834   21783932.3824
      1814.4094
 -20828696.22749 -16205642.71946  19367339.5624   19367338.4404
      3078.7884
  -1779331.76249  -1384986.77345  19943802.5544   19943801.3584
      -917.7434
 -16471418.98047 -12833371.68444  20947066.4604   20947063.0694
      2062.6774
 -12946197.66848 -10084806.74244  21130351.3274   21130350.5504
      4349.1244
 -13305046.16449 -10362716.70746  19185757.2414   19185755.7844
      1868.3964
 04  9  9 22 27 29.9950000  0  7G 3G10G 8G13G19G28G27
  -6756952.16047  -5265737.94942  22076029.6634   22076029.9764
      -389.6524
  -9898117.87147  -7706863.10542  21778778.3984   21778778.1404
      1805.7264
 -20874833.10249 -16241593.53146  19358560.2334   19358559.0264
      3075.7924
  -1765478.58649  -1374192.12545  19946438.2024   19946437.4804
      -923.5454
 -16502233.88748 -12857383.29744  20941203.1404   20941199.3864
      2054.3274
 -13011381.16448 -10135599.04344  21117947.2184   21117946.7414
      4345.5664
 -13333032.81249 -10384524.48446  19180431.6014   19180430.0344
      1865.7774
 04  9  9 22 27 44.9950000  0  7G 3G10G 8G13G19G28G27
  -6750998.05148  -5261098.39842  22077162.9444   22077162.5654
      -396.9414
  -9925071.16447  -7727865.67242  21773649.5934   21773649.1244
      1796.8864
 -20920922.66049 -16277507.46146  19349789.5384   19349788.3824
      3072.6374
  -1751536.21549  -1363327.96145  19949091.8354   19949090.1164
      -929.4914
 -16532921.11347 -12881295.41044  20935362.8044   20935359.8044
      2045.8154
 -13076508.84448 -10186347.86343  21105554.0544   21105553.1084
      4341.8454
 -13360977.76249 -10406299.76646  19175113.8824   19175112.1754
      1862.9974
 04  9  9 22 27 59.9950000  0  7G 3G10G 8G13G19G28G27
  -6744936.73848  -5256375.30143  22078316.4214   22078316.1944
      -404.0874
  -9951893.81248  -7748766.42642  21768545.9994   21768545.5654
      1788.1774
 -20966966.90649 -16313386.09046  19341027.3904   19341026.2224
      3069.6164
  -1737506.77049  -1352395.93445  19951761.6164   19951759.9684
      -935.2964
 -16563482.35547 -12905109.35544  20929547.1794   20929543.9254
      2037.4164
 -13141582.53148 -10237054.59844  21093170.6324   21093169.9644
      4338.2464
 -13388882.84449 -10428043.98846  19169803.4834   19169802.1674
      1860.3394
 04  9  9 22 28 14.9950000  0  7G 3G10G 8G13G19G28G27
  -6738768.16048  -5251568.65642  22079490.5384   22079490.1484
      -411.2394
  -9978585.79348  -7769565.39142  21763465.8354   21763465.3824
      1779.4654
 -21012965.42649 -16349229.08646  19332274.3824   19332273.2734
      3066.5684
  -1723390.24248  -1341396.05945  19954447.6554   19954446.3904
      -941.1024
 -16593917.38347 -12928824.94944  20923755.7964   20923752.5774
      2029.0024
 -13206601.80148 -10287718.92244  21080798.0854   21080797.2374
      4334.6184
 -13416747.82449 -10449756.95346  19164500.9294   19164499.1834
      1857.6654
 04  9  9 22 28 29.9950000  0  7G 3G10G 8G13G19G28G27
  -6732490.68748  -5246677.12142  22080685.1324   22080684.7184
      -418.4984
 -10005145.17648  -7790260.99243  21758412.3434   21758411.4604
      1770.6264
 -21058916.37949 -16385035.02046  19323530.4764   19323529.2494
      3063.3974
  -1709185.06649  -1330327.11345  19957150.8584   19957149.0774
      -947.0124
 -16624224.15648 -12952440.60544  20917988.4374   20917985.6594
      2020.4524
 -13271564.62948 -10338339.28143  21068435.7574   21068434.8904
      4330.8554
 -13444570.70349 -10471437.11346  19159206.6164   19159205.0544
      1854.8594
 04  9  9 22 28 44.9950000  0  7G 3G10G 8G13G19G28G27
  -6726106.43448  -5241702.40642  22081899.8984   22081899.6874
      -425.6174
 -10031573.75048  -7810854.68043  21753383.0304   21753382.0344
      1761.9054
 -21104821.36749 -16420805.12546  19314794.8274   19314793.9014
      3060.3334
  -1694893.09848  -1319190.54345  19959870.7574   19959868.8154
      -952.7984
 -16654404.35247 -12975957.63744  20912245.1164   20912242.5934
      2012.0134
 -13336472.66048 -10388916.93744  21056085.1484   21056083.4994
      4327.2024
 -13472353.19949 -10493085.81246  19153919.5154   19153918.2574
      1852.1664
 04  9  9 22 28 59.9950000  0  7G 3G10G 8G13G19G28G27
  -6719615.32048  -5236644.41843  22083135.4134   22083135.1324
      -432.7414
 -10057871.20747  -7831346.20342  21748378.7654   21748377.9684
      1753.1644
 -21150679.85949 -16456539.00446  19306068.0384   19306066.8744
      3057.2334
  -1680514.27749  -1307986.29745  19962606.5384   19962605.2534
      -958.5884
 -16684457.58647 -12999375.73444  20906526.4294   20906523.6054
      2003.5494
 -13401325.44548 -10439451.54744  21043743.2414   21043742.5894
      4323.5194
 -13500094.94149 -10514702.73846  19148640.6324   19148639.3584
      1849.4494
 04  9  9 22 29 14.9950000  0  7G 3G10G 8G13G19G28G27
  -6713017.93048  -5231503.60242  22084390.4374   22084390.2374
      -439.8264
 -10084037.89847  -7851735.84042  21743399.1164   21743398.3904
      1744.4464
 -21196492.13748 -16492236.88346  19297350.2494   19297349.5154
      3054.1524
  -1666049.06248  -1296714.71945  19965359.6634   19965357.6674
      -964.3484
 -16714384.00447 -13022695.02344  20900831.5934   20900829.0424
      1995.0954
 -13466123.27048 -10489943.30943  21031412.6084   21031411.7414
      4319.8554
 -13527796.12549 -10536288.07846  19143369.3434   19143367.8554
      1846.7464
 04  9  9 22 29 29.9950000  0  7G 3G10G 8G13G19G28G27
  -6706315.08247  -5226280.61342  22085665.3984   22085666.2224
      -446.8574
 -10110074.65648  -7872024.19543  21738444.5624   21738443.9834
      1735.7844
 -21242258.93449 -16527899.30946  19288641.2334   19288640.3004
      3051.1204
  -1651498.36748  -1285376.53545  19968128.4604   19968126.6054
      -970.0464
 -16744184.28547 -13045916.01244  20895161.1014   20895158.2734
      1986.6854
 -13530866.74248 -10540392.75043  21019092.4374   21019091.8234
      4316.2324
 -13555457.45349 -10557842.35546  19138105.7184   19138104.0854
      1844.0894
 04  9  9 22 29 44.9950000  0  7G 3G10G 8G13G19G28G27
  -6699504.09447  -5220973.34442  22086961.7494   22086961.8154
      -454.0664
 -10135978.41848  -7892208.94543  21733515.3984   21733514.8904
      1726.9174
 -21287977.11749 -16563523.85946  19279941.3824   19279940.1794
      3047.8794
  -1636859.23848  -1273969.44545  19970914.3044   19970912.4374
      -975.9424
 -16773855.26647 -13069036.24644  20889513.9914   20889512.0114
      1978.0654
 -13595552.53148 -10590797.22744  21006783.3514   21006781.8704
      4312.3864
 -13583075.72349 -10579363.08646  19132850.0694   19132848.1904
      1841.2184
 04  9  9 22 29 59.9950000  0  7G 3G10G 8G13G19G28G27
  -6692587.44547  -5215583.78542  22088278.0624   22088277.9014
      -461.1104
 -10161751.49247  -7912291.86343  21728610.9444   21728610.0584
      1718.2054
 -21333648.86349 -16599112.22346  19271250.2024   19271249.1204
      3044.7834
  -1622134.10948  -1262495.34045  19973715.8984   19973714.4604
      -981.6754
 -16803399.19547 -13092057.48044  20883892.4914   20883889.7804
      1969.5954
 -13660182.82848 -10641158.46944  20994484.5234   20994483.6364
      4308.6864
 -13610653.22349 -10600852.04346  19127602.1874   19127600.6714
      1838.5004
 04  9  9 22 30 14.9950000  0  7G 3G10G 8G13G19G28G27
  -6685565.45747  -5210112.11742  22089614.2024   22089614.2064
      -468.1334
 -10187393.89847  -7932272.94542  21723731.4834   21723730.1324
      1709.4944
 -21379274.11349 -16634664.35246  19262567.9914   19262566.8744
      3041.6834
  -1607323.33648  -1250954.50845  19976534.7804   19976532.4874
      -987.3854
 -16832815.94547 -13114979.60944  20878294.4524   20878291.8864
      1961.1174
 -13724757.59048 -10691476.43444  20982196.1014   20982195.3944
      4304.9844
 -13638189.95349 -10622309.23846  19122361.7414   19122360.4174
      1835.7824
 04  9  9 22 30 29.9950000  0  7G 3G10G 8G13G19G28G27
  -6678436.35547  -5204556.98442  22090971.2804   22090970.7764
      -475.2734
 -10212903.77747  -7952150.77742  21718877.4604   21718875.5894
      1700.6594
 -21424850.96149 -16670178.77346  19253894.8984   19253894.0424
      3038.4574
  -1592425.21148  -1239345.60545  19979369.4834   19979368.0074
      -993.2084
 -16862103.44548 -13137801.03144  20872721.3354   20872718.9374
      1952.5004
 -13789274.71948 -10741749.48844  20969919.4214   20969917.9134
      4301.1424
 -13665683.69549 -10643732.93746  19117130.3434   19117128.2574
      1832.9164
 04  9  9 22 30 44.9950000  0  7G 3G10G 8G13G19G28G27
  -6671201.50847  -5198919.45742  22092347.2414   22092347.3824
      -482.3234
 -10238282.17247  -7971926.13742  21714047.3434   21714046.1124
      1691.8934
 -21470380.28548 -16705656.16046  19245231.0854   19245229.7764
      3035.2884
  -1577440.93748  -1227669.57445  19982221.0934   19982219.8664
      -998.9524
 -16891262.64547 -13160522.47744  20867172.7334   20867170.5544
      1943.9474
 -13853735.09048 -10791978.33244  20957651.9764   20957651.3314
      4297.3584
 -13693135.57449 -10665124.00846  19111906.2184   19111904.3984
      1830.1254
 04  9  9 22 30 59.9950000  0  7G 3G10G 8G13G19G28G27
  -6663861.77347  -5193200.21942  22093743.9994   22093744.0114
      -489.3164
 -10263529.71948  -7991599.55542  21709243.4134   21709242.4724
      1683.1704
 -21515862.25848 -16741096.64146  19236576.2574   19236574.9054
      3032.1324
  -1562371.08648  -1215926.85545  19985088.7264   19985087.3824
     -1004.6574
 -16920294.00048 -13183144.30944  20861648.7334   20861645.0304
      1935.4244
 -13918139.18448 -10842163.29344  20945396.8584   20945396.3044
      4293.6064
 -13720546.07449 -10686482.84046  19106690.0304   19106688.5974
      1827.3674
 04  9  9 22 31 14.9950000  0  7G 3G10G 8G13G19G28G27
  -6656416.81247  -5187398.95342  22095160.6484   22095160.9724
      -496.3314
 -10288646.08647  -8011170.75842  21704463.7334   21704463.2764
      1674.4244
 -21561296.66849 -16776500.06646  19227930.3044   19227928.9484
      3028.9614
  -1547215.48448  -1204117.32045  19987973.1554   19987971.1634
     -1010.3734
 -16949196.97348 -13205666.09044  20856147.8434   20856144.8784
      1926.8654
 -13982486.26648 -10892303.85944  20933151.5384   20933150.7334
      4289.8054
 -13747914.66849 -10707809.01646  19101481.7884   19101480.4374
      1824.5734
 04  9  9 22 31 29.9950000  0  7G 3G10G 8G13G19G28G27
  -6648867.25447  -5181516.21542  22096597.9444   22096597.9444
      -503.3044
 -10313631.66047  -8030640.07442  21699709.3514   21699709.1444
      1665.7054
 -21606683.73449 -16811866.60246  19219293.4604   19219292.2534
      3025.8044
  -1531974.64848  -1192241.36345  19990873.3124   19990871.5034
     -1016.0564
 -16977971.85548 -13228088.07444  20850672.4054   20850669.4174
      1918.3264
 -14046776.88748 -10942400.42244  20920917.6324   20920916.3124
      4286.0414
 -13775241.55549 -10729102.69146  19096282.0854   19096280.4954
      1821.7924
 04  9  9 22 31 44.9950000  0  7G 3G10G 8G13G19G28G27
  -6641211.71147  -5175550.88342  22098054.8124   22098054.6514
      -510.3704
 -10338484.78947  -8050006.14142  21694979.9294   21694978.7534
      1656.8754
 -21652021.46949 -16847194.71546  19210665.7024   19210664.7614
      3022.5164
  -1516647.23048  -1180297.95345  19993790.0154   19993788.4954
     -1021.8284
 -17006616.89148 -13250408.85944  20845221.1324   20845218.3904
      1909.6694
 -14111009.03148 -10992451.41444  20908694.7804   20908693.7764
      4282.1434
 -13802525.05549 -10750362.55946  19091090.2884   19091088.5034
      1818.9004
 04  9  9 22 31 59.9950000  0  7G 3G10G 8G13G19G28G27
  -6633451.23047  -5169503.77042  22099531.0074   22099531.2694
      -517.3654
 -10363206.29347  -8069269.63742  21690275.0624   21690274.9294
      1648.1004
 -21697310.96548 -16882485.21546  19202047.8984   19202046.8044
      3019.3004
  -1501234.19548  -1168287.82845  19996722.5234   19996721.6364
     -1027.5364
 -17035132.79348 -13272629.03544  20839794.3984   20839792.0774
      1901.0604
 -14175183.30548 -11042457.30944  20896482.5384   20896481.7964
      4278.2854
 -13829765.83649 -10771589.14146  19085905.9994   19085904.9684
      1816.0524
 04  9  9 22 32 14.9950000  0  7G 3G10G 8G13G19G28G27
  -6625585.14847  -5163374.37142  22101028.3434   22101027.9874
      -524.4054
 -10387795.38347  -8088429.94542  21685596.2414   21685595.7064
      1639.2734
 -21742550.90249 -16917737.10246  19193438.6714   19193437.7804
      3015.9964
  -1485734.80948  -1156210.40645  19999672.2964   19999671.4684
     -1033.2924
 -17063518.50847 -13294747.75444  20834393.5304   20834390.2534
      1892.3814
 -14239298.79348 -11092417.39844  20884282.3514   20884281.1754
      4274.3664
 -13856962.95349 -10792781.70746  19080730.7414   19080729.4374
      1813.1414
 04  9  9 22 32 29.9950000  0  7G 3G10G 8G13G19G28G27
  -6617616.32047  -5157164.91442  22102545.1554   22102544.7494
      -531.2554
 -10412254.65247  -8107489.13342  21680941.7734   21680941.8664
      1630.6184
 -21787744.03149 -16952952.52346  19184838.5304   19184837.6754
      3012.8754
  -1470151.82848  -1144067.84845  20002637.6634   20002636.5304
     -1038.8654
 -17091776.50448 -13316766.97744  20829016.1944   20829013.0774
      1883.8664
 -14303357.97348 -11142333.62544  20872092.0464   20872091.0654
      4270.6124
 -13884118.90649 -10813942.18446  19075563.2104   19075561.9684
      1810.3974
 04  9  9 22 32 44.9950000  0  7G 3G10G 8G13G19G28G27
  -6609542.29348  -5150873.49642  22104082.0154   22104081.3514
      -538.2684
 -10436581.45747  -8126445.07842  21676312.4834   21676311.9994
      1621.7874
 -21832887.43049 -16988129.18046  19176248.5694   19176246.8904
      3009.5604
  -1454482.70348  -1131858.16045  20005619.4054   20005617.9564
     -1044.6084
 -17119904.15648 -13338684.62544  20823663.1014   20823660.7024
      1875.1774
 -14367358.05948 -11192203.78144  20859913.1794   20859912.0114
      4266.6724
 -13911231.00849 -10835068.49646  19070404.1714   19070402.9764
      1807.4734
 04  9  9 22 32 59.9950000  0  7G 3G10G 8G13G19G28G27
  -6601364.81247  -5144501.43442  22105637.3274   22105637.8234
      -545.1654
 -10460777.34047  -8145299.01243  21671707.7804   21671707.7334
      1613.0594
 -21877982.49649 -17023268.18446  19167667.0624   19167665.3704
      3006.3384
  -1438728.98048  -1119582.55544  20008617.2654   20008616.0774
     -1050.2484
 -17147902.69548 -13360501.65244  20818335.8354   20818332.4684
      1866.5694
 -14431300.17248 -11242028.76244  20847745.1404   20847744.7614
      4262.8084
 -13938300.42249 -10856161.55146  19065252.8514   19065251.9524
      1804.6284
 04  9  9 22 33 14.9950000  0  7G 3G10G 8G13G19G28G27
  -6593083.76247  -5138048.68442  22107213.7104   22107213.0894
      -552.0704
 -10484842.10247  -8164050.77742  21667128.8984   21667128.4214
      1604.3174
 -21923028.80149 -17058369.18746  19159094.8904   19159093.6754
      3003.0874
  -1422890.77748  -1107241.12545  20011631.0934   20011630.2654
     -1055.8804
 -17175771.91048 -13382217.91444  20813032.4684   20813029.0584
      1857.9484
 -14495183.99248 -11291808.32044  20835588.5774   20835587.4764
      4258.9214
 -13965326.96949 -10877221.18746  19060110.2494   19060108.6404
      1801.7704
 04  9  9 22 33 29.9950000  0  7G 3G10G 8G13G19G28G27
  -6584699.28947  -5131515.35942  22108808.8434   22108808.4564
      -558.9654
 -10508775.73848  -8182700.35943  21662574.3354   21662574.5854
      1595.5764
 -21968026.15649 -17093432.05946  19150532.4214   19150531.0114
      2999.8244
  -1406968.37149  -1094834.08645  20014661.2264   20014660.0774
     -1061.4944
 -17203511.55148 -13403833.20344  20807753.6084   20807750.3784
      1849.3094
 -14559009.36748 -11341542.34844  20823443.1084   20823441.3394
      4255.0254
 -13992310.44949 -10898247.27746  19054975.0624   19054973.8124
      1798.8994
 04  9  9 22 33 44.9950000  0  7G 3G10G 8G13G19G28G27
  -6576211.87147  -5124901.79342  22110424.0774   22110423.9374
      -565.8284
 -10532578.18447  -8201247.70743  21658044.5934   21658045.2964
      1586.8304
 -22012974.56649 -17128456.78146  19141978.6554   19141977.7764
      2996.5614
  -1390961.78948  -1082361.44945  20017707.3044   20017705.8824
     -1067.1054
 -17231121.50048 -13425347.43744  20802500.0464   20802496.8664
      1840.6634
 -14622776.29348 -11391230.82043  20811308.4374   20811307.0344
      4251.1284
 -14019250.82049 -10919239.77346  19049848.5624   19049847.2964
      1796.0254
 04  9  9 22 33 59.9950000  0  7G 3G10G 8G13G19G28G27
  -6567620.48447  -5118207.21542  22112058.3434   22112058.9054
      -572.7594
 -10556248.46148  -8219692.07442  21653540.4054   21653540.9134
      1578.0184
 -22057872.73049 -17163442.35546  19133435.1944   19133433.8084
      2993.2114
  -1374869.94548  -1069822.37144  20020769.1404   20020768.2884
     -1072.7904
 -17258600.56648 -13446759.69944  20797270.3904   20797267.5894
      1831.9384
 -14686483.30148 -11440872.60544  20799185.1244   20799183.9134
      4247.1344
 -14046146.79349 -10940197.67246  19044730.1014   19044729.0074
      1793.0654
 04  9  9 22 34 14.9950000  0  7G 3G10G 8G13G19G28G27
  -6558925.68447  -5111432.08642  22113713.8514   22113713.6754
      -579.6534
 -10579786.85248  -8238033.67643  21649061.3124   21649062.0074
      1569.2264
 -22102720.79749 -17198388.89146  19124900.4764   19124899.7104
      2989.8714
  -1358693.35548  -1057217.26245  20023847.5624   20023846.2804
     -1078.4394
 -17285948.94548 -13468070.11344  20792066.4684   20792063.3194
      1823.2254
 -14750130.58248 -11490467.85244  20787073.6164   20787072.3154
      4243.1524
 -14072998.59849 -10961121.16046  19039620.4134   19039619.2104
      1790.1204
 04  9  9 22 34 29.9950000  0  7G 3G10G 8G13G19G28G27
  -6550128.93747  -5104577.48042  22115386.7184   22115388.0384
      -586.4504
 -10603194.57048  -8256273.44943  21644607.2494   21644607.5424
      1560.5154
 -22147519.77749 -17233297.18746  19116375.5934   19116374.4054
      2986.5994
  -1342433.44549  -1044547.23445  20026941.5384   20026940.4014
     -1083.9944
 -17313167.77348 -13489279.58644  20786886.6634   20786883.8234
      1814.5894
 -14813719.31648 -11540017.47744  20774973.0384   20774971.6324
      4239.2494
 -14099807.35549 -10982011.09846  19034519.1874   19034517.6284
      1787.2514
 04  9  9 22 34 44.9950000  0  7G 3G10G 8G13G19G28G27
  -6541230.13347  -5097643.35542  22117080.6164   22117080.8944
      -593.2544
 -10626471.32447  -8274411.20342  21640177.2654   21640177.3554
      1551.7844
 -22192269.39149 -17268166.99246  19107860.1324   19107858.9644
      2983.3084
  -1326089.90649  -1031812.03145  20030051.9374   20030050.8044
     -1089.5694
 -17340256.55948 -13510387.71944  20781732.1404   20781728.8314
      1805.9194
 -14877248.80948 -11589520.95344  20762883.9294   20762882.3234
      4235.2994
 -14126572.47349 -11002867.02746  19029425.6634   19029424.6084
      1784.3414
 04  9  9 22 34 59.9950000  0  7G 3G10G 8G13G19G28G27
  -6532231.83247  -5090631.72342  22118793.2184   22118793.4094
      -599.8874
 -10649619.73448  -8292448.92242  21635772.5154   21635772.4214
      1543.2274
 -22236971.94549 -17303000.15246  19099353.5304   19099352.1164
      2980.1704
  -1309665.67649  -1019013.95345  20033177.4684   20033176.1594
     -1094.9494
 -17367217.77747 -13531396.44944  20776601.1874   20776598.1244
      1797.4154
 -14940721.59048 -11638980.21944  20750805.0694   20750804.4054
      4231.5194
 -14153296.47348 -11023690.92246  19024340.2414   19024339.0344
      1781.6004
 04  9  9 22 35 14.9950000  0  7G 3G10G 8G13G19G28G27
  -6523131.49247  -5083540.55142  22120524.3124   22120525.1484
      -606.6894
 -10672636.91847  -8310384.40242  21631392.8514   21631391.9644
      1534.4794
 -22281624.58249 -17337794.41046  19090856.1244   19090855.0584
      2976.8424
  -1293157.94148  -1006150.82045  20036318.4524   20036317.2844
     -1100.5164
 -17394048.34448 -13552303.37944  20771495.6484   20771492.6164
      1788.7044
 -15004134.50048 -11688392.84444  20738738.3904   20738736.8044
      4227.5274
 -14179976.31248 -11044480.41046  19019263.3434   19019262.3314
      1778.6564
 04  9  9 22 35 29.9950000  0  7G 3G10G 8G13G19G28G27
  -6513927.49647  -5076368.60942  22122275.7884   22122276.1874
      -613.6004
 -10695521.02048  -8328216.15642  21627037.9054   21627037.1324
      1525.6074
 -22326225.16449 -17372548.09446  19082369.0464   19082367.9724
      2973.3724
  -1276564.82849   -993221.14845  20039476.1794   20039474.8664
     -1106.2084
 -17420746.36347 -13573107.01644  20766415.4134   20766412.4334
      1779.8684
 -15067485.65648 -11737757.35244  20726682.4914   20726681.4954
      4223.4104
 -14206609.93449 -11065233.87546  19014195.3434   19014193.9014
      1775.5754
 04  9  9 22 35 44.9950000  0  7G 3G10G 8G13G19G28G27
  -6504621.59047  -5069117.28542  22124046.8824   22124047.3234
      -620.3944
 -10718273.68748  -8345945.52342  21622708.2964   21622707.5544
      1516.8454
 -22370775.06249 -17407262.29346  19073891.5464   19073890.2144
      2969.9934
  -1259888.16049   -980226.37144  20042650.3434   20042648.2304
     -1111.7784
 -17447313.16847 -13593808.41444  20761359.8514   20761357.0854
      1771.1204
 -15130776.28948 -11787074.68744  20714638.8354   20714637.8234
      4219.3764
 -14233198.89848 -11085952.55546  19009135.2264   19009134.1944
      1772.5984
 04  9  9 22 35 59.9950000  0  7G 3G10G 8G13G19G28G27
  -6495215.62147  -5061787.98442  22125836.1794   22125836.8904
      -627.0654
 -10740896.53148  -8363573.72342  21618403.1554   21618402.6014
      1508.1904
 -22415275.70749 -17441938.11346  19065423.2104   19065422.2304
      2966.7104
  -1243129.82449   -967167.95345  20045838.7264   20045837.4134
     -1117.2224
 -17473750.40648 -13614408.85544  20756328.8664   20756326.3584
      1762.4834
 -15194007.94948 -11836346.07444  20702606.6554   20702605.2024
      4215.4444
 -14259744.77748 -11106637.65246  19004083.7964   19004082.6284
      1769.7254
 04  9  9 22 36 14.9950000  0  7G 3G10G 8G13G19G28G27
  -6485708.11347  -5054379.54742  22127645.9444   22127646.6364
      -633.8344
 -10763387.89548  -8381099.45742  21614123.7414   21614123.2454
      1499.4244
 -22459725.42249 -17476574.24646  19056964.7734   19056963.2304
      2963.3144
  -1226288.19149   -954044.63344  20049043.8514   20049041.9994
     -1122.7764
 -17500056.20748 -13634906.87144  20751323.4374   20751320.3044
      1753.7204
 -15257178.71948 -11885570.01644  20690585.3274   20690584.1244
      4211.3854
 -14286245.53949 -11127287.59846  18999040.9524   18999039.4764
      1766.7174
 04  9  9 22 36 29.9950000  0  7G 3G10G 8G13G19G28G27
  -6476098.94146  -5046891.91842  22129474.1554   22129474.9954
      -640.6114
 -10785747.49648  -8398522.51642  21609868.6484   21609868.3744
      1490.6404
 -22504123.73849 -17511170.33246  19048516.0624   19048514.6244
      2959.8884
  -1209363.08649   -940856.27045  20052264.4444   20052262.9054
     -1128.3404
 -17526230.09848 -13655302.09844  20746342.2264   20746339.3554
      1744.9264
 -15320288.12148 -11934746.13344  20678576.2574   20678575.0464
      4207.2934
 -14312700.81249 -11147902.09446  18994006.7884   18994005.5154
      1763.6854
 04  9  9 22 36 44.9940000  0  7G 3G10G 8G13G19G28G27
  -6466389.95747  -5039326.48442  22131321.5804   22131321.9364
      -647.2664
 -10807974.82847  -8415842.51642  21605638.3774   21605638.5024
      1481.8224
 -22548468.57049 -17545724.73446  19040077.6044   19040076.2324
      2956.3224
  -1192356.83249   -927604.66845  20055500.5724   20055498.8184
     -1133.7504
 -17552271.30548 -13675593.95344  20741386.4864   20741384.2404
      1736.0804
 -15383332.77048 -11983871.80144  20666578.6114   20666578.0454
      4202.9774
 -14339109.64149 -11168480.40246  18988981.2914   18988980.0844
      1760.5894
 04  9  9 22 36 59.9940000  0  7G 3G10G 8G13G19G28G27
  -6456578.17647  -5031680.96542  22133189.5724   22133189.3854
      -654.1194
 -10830070.83247  -8433060.18442  21601433.8384   21601434.4944
      1473.0674
 -22592763.77049 -17580240.46146  19031648.6664   19031647.4634
      2953.0134
  -1175265.35249   -914286.64844  20058752.9244   20058751.4674
     -1139.4324
 -17578181.19548 -13695783.46544  20736456.0104   20736452.9944
      1727.3264
 -15446319.02048 -12032951.97744  20654592.7134   20654592.1544
      4199.0834
 -14365473.57049 -11189023.73046  18983964.3464   18983963.1354
      1757.5954
 04  9  9 22 37 14.9940000  0  7G 3G10G 8G13G19G28G27
  -6446664.98847  -5023956.41842  22135076.0724   22135075.8654
      -660.8794
 -10852034.74648  -8450174.94943  21597254.5804   21597254.8384
      1464.2614
 -22637006.86749 -17614715.60246  19023229.0964   19023228.1664
      2949.5404
  -1158090.44949   -900903.64145  20062021.7524   20062019.9004
     -1144.9934
 -17603958.60248 -13715869.75444  20731551.3384   20731548.0924
      1718.4944
 -15509243.03148 -12081983.64844  20642619.3304   20642617.9594
      4194.9344
 -14391791.37549 -11209531.10546  18978956.2054   18978955.1824
      1754.5204
 04  9  9 22 37 29.9940000  0  7G 3G10G 8G13G19G28G27
  -6436653.51647  -5016155.29342  22136981.0024   22136980.9324
      -667.4324
 -10873869.58248  -8467189.09043  21593100.1354   21593099.2914
      1455.6564
 -22681200.33249 -17649152.05546  19014819.3934   19014818.6584
      2946.2314
  -1140835.28149   -887458.08644  20065305.2444   20065303.2954
     -1150.3454
 -17629606.11348 -13735854.82044  20726670.0334   20726666.9404
      1709.8344
 -15572107.62548 -12130968.98844  20630656.6434   20630655.4674
      4190.9734
 -14418065.60549 -11230004.52746  18973956.7834   18973955.4364
      1751.6154
 04  9  9 22 37 44.9940000  0  7G 3G10G 8G13G19G28G27
  -6426541.33647  -5008275.69142  22138905.6274   22138905.0224
      -674.1454
 -10895572.73047  -8484100.64143  21588969.5884   21588969.7324
      1446.8774
 -22725341.56649 -17683547.80946  19006419.4084   19006418.7014
      2942.7494
  -1123497.36349   -873948.03944  20068604.3074   20068602.6744
     -1155.8614
 -17655121.14548 -13755736.65644  20721814.5494   20721811.5654
      1701.0024
 -15634909.96148 -12179905.85244  20618705.6744   20618704.4824
      4186.8224
 -14444293.65249 -11250441.96146  18968965.5884   18968964.1474
      1748.5364
 04  9  9 22 37 59.9940000  0  7G 3G10G 8G13G19G28G27
  -6416329.76647  -5000318.63342  22140848.3854   22140849.0494
      -680.7714
 -10917145.11748  -8500910.28143  21584865.1354   21584865.0684
      1438.1594
 -22769431.45349 -17717903.56246  18998029.5414   18998028.6974
      2939.3264
  -1106077.77049   -860374.36344  20071919.0334   20071917.6744
     -1161.3064
 -17680504.71548 -13775516.05144  20716984.6584   20716981.7644
      1692.2384
 -15697650.84448 -12228794.81644  20606766.2294   20606765.6314
      4182.7264
 -14470476.34849 -11270844.05946  18963982.9244   18963981.6784
      1745.5134
 04  9  9 22 38 14.9940000  0  7G 3G10G 8G13G19G28G27
  -6406017.78947  -4992283.34042  22142811.1114   22142810.8224
      -687.4654
 -10938585.71947  -8517617.24243  21580783.7444   21580785.0254
      1429.3734
 -22813468.63749 -17752218.23846  18989649.5184   18989648.7684
      2935.8124
  -1088575.51249   -846736.26244  20075249.2524   20075247.9404
     -1166.8174
 -17705755.39848 -13795191.90644  20712179.8154   20712176.6974
      1683.3794
 -15760328.99248 -12277634.91444  20594839.0964   20594837.8464
      4178.5434
 -14496612.37949 -11291209.79746  18959009.5804   18959008.0724
      1742.4024
 04  9  9 22 38 29.9940000  0  7G 3G10G 8G13G19G28G27
  -6395607.48047  -4984171.41842  22144791.7754   22144791.7324
      -694.0214
 -10959896.37948  -8534222.95743  21576729.1504   21576729.5224
      1420.7114
 -22857454.53149 -17786492.95346  18981279.3304   18981278.1824
      2932.3934
  -1070992.60948   -833035.32044  20078595.1664   20078593.9204
     -1172.1934
 -17730874.84048 -13814765.48044  20707399.6274   20707395.9124
      1674.6294
 -15822945.88348 -12326427.25444  20582923.3154   20582922.3654
      4174.4594
 -14522703.29749 -11311540.38346  18954044.9404   18954043.3854
      1739.3954
 04  9  9 22 38 44.9940000  0  7G 3G10G 8G13G19G28G27
  -6385097.64147  -4975981.94542  22146792.0184   22146792.0454
      -700.6564
 -10981075.73048  -8550726.34843  21572698.1824   21572699.3574
      1411.9574
 -22901387.98849 -17820726.80146  18972919.1744   18972918.4084
      2928.8974
  -1053327.91049   -819270.65644  20081957.1194   20081955.4124
     -1177.6474
 -17755861.66448 -13834235.73844  20702645.3854   20702641.1274
      1665.7884
 -15885500.03948 -12375170.73444  20571019.9404   20571018.5534
      4170.2774
 -14548747.73849 -11331834.75046  18949088.5334   18949086.7794
      1736.2964
 04  9  9 22 38 59.9940000  0  7G 3G10G 8G13G19G28G27
  -6374487.50047  -4967714.33642  22148810.9164   22148810.9794
      -707.3434
 -11002122.84448  -8567126.71542  21568693.8384   21568693.7644
      1403.1414
 -22945267.76649 -17854918.82446  18964568.9554   18964568.0534
      2925.3184
  -1035580.50449   -805441.53144  20085334.3694   20085333.0294
     -1183.1604
 -17780714.69148 -13853601.72344  20697915.7444   20697912.2604
      1656.8684
 -15947990.32048 -12423864.42644  20559127.6744   20559126.4634
      4166.0194
 -14574744.43449 -11352091.91046  18944141.6904   18944140.1434
      1733.1134
 04  9  9 22 39 14.9940000  0  7G 3G10G 8G13G19G28G27
  -6363779.03947  -4959370.04742  22150849.0964   22150849.1664
      -713.8974
 -11023039.49248  -8583425.39142  21564712.9474   21564713.2324
      1394.4434
 -22989095.25049 -17889070.11346  18956228.7754   18956228.1744
      2921.8324
  -1017752.25848   -791549.41044  20088727.0184   20088725.7684
     -1188.5504
 -17805435.55148 -13872864.71944  20693211.5414   20693208.2484
      1648.0574
 -16010418.35248 -12472509.60544  20547247.9864   20547246.6544
      4161.8694
 -14600695.13349 -11372313.23446  18939203.2294   18939201.8734
      1730.0474
 04  9  9 22 39 29.9940000  0  7G 3G10G 8G13G19G28G27
  -6352972.94547  -4950949.77342  22152904.7684   22152905.6934
      -720.4064
 -11043826.15248  -8599622.79742  21560757.9084   21560757.3974
      1385.7774
 -23032871.05949 -17923181.12946  18947898.3854   18947897.8384
      2918.3874
   -999843.80148   -777594.80544  20092135.1194   20092133.4754
     -1193.8974
 -17830024.69148 -13892025.07844  20688532.2364   20688528.9594
      1639.2764
 -16072784.47348 -12521106.55544  20535380.5414   20535379.4204
      4157.7414
 -14626600.09849 -11392498.92246  18934273.5184   18934272.2254
      1726.9984
 04  9  9 22 39 44.9940000  0  7G 3G10G 8G13G19G28G27
  -6342068.84847  -4942453.09842  22154979.9554   22154980.4164
      -726.9404
 -11064482.16448  -8615718.39843  21556826.7754   21556827.4714
      1377.0674
 -23076594.09849 -17957251.01646  18939578.4004   18939577.2994
      2914.8694
   -981854.76648   -763577.39544  20095558.2444   20095557.2994
     -1199.2694
 -17854481.34048 -13911082.20744  20683878.7134   20683875.4554
      1630.4434
 -16135087.80548 -12569654.57844  20523524.2364   20523522.9794
      4153.5554
 -14652458.57849 -11412648.38346  18929352.9404   18929352.1074
      1723.8994
 04  9  9 22 39 59.9940000  0  7G 3G10G 8G13G19G28G27
  -6331066.22747  -4933879.61742  22157073.6434   22157073.9044
      -733.5084
 -11085007.04748  -8631711.80943  21552921.2524   21552920.8894
      1368.3264
 -23120263.70749 -17991279.28146  18931268.3384   18931267.3074
      2911.3074
   -963784.44549   -749496.64844  20098996.9474   20098995.6744
     -1204.6884
 -17878804.77748 -13930035.52344  20679249.6274   20679246.5534
      1621.5634
 -16197327.59048 -12618153.09444  20511680.8154   20511679.3264
      4149.3194
 -14678269.75849 -11432760.98846  18924441.4404   18924440.1274
      1720.7454
 04  9  9 22 40 14.9940000  0  7G 3G10G 8G13G19G28G27
  -6319965.66047  -4925229.86342  22159186.0574   22159186.1354
      -740.0384
 -11105401.12548  -8647603.31242  21549040.6504   21549040.2054
      1359.6054
 -23163880.05949 -18025266.03546  18922968.5334   18922967.4084
      2907.7574
   -945633.40249   -735353.02044  20102451.2524   20102449.7834
     -1210.0704
 -17902995.18448 -13948885.18045  20674645.9944   20674643.2294
      1612.6944
 -16259503.94949 -12666602.17244  20499848.8614   20499847.0104
      4145.0914
 -14704033.80949 -11452836.87546  18919538.3694   18919536.9864
      1717.6034
 04  9  9 22 40 29.9940000  0  7G 3G10G 8G13G19G28G27
  -6308767.67247  -4916504.18042  22161316.9324   22161317.8424
      -746.5334
 -11125664.79348  -8663393.19543  21545184.7214   21545184.2684
      1350.9114
 -23207443.48049 -18059211.55146  18914678.6744   18914677.3224
      2904.2284
   -927402.29748   -721146.98445  20105920.2294   20105918.9944
     -1215.4074
 -17927052.96548 -13967631.50444  20670068.2444   20670065.5224
      1603.8524
 -16321616.98049 -12715001.91444  20488028.9404   20488027.8264
      4140.8694
 -14729751.11749 -11472876.34046  18914644.7684   18914643.3734
      1714.4874
 04  9  9 22 40 44.9940000  0  7G 3G10G 8G13G19G28G27
  -6297473.96946  -4907703.91042  22163465.5574   22163466.8464
      -752.9144
 -11145799.67648  -8679082.72342  21541352.8544   21541352.2914
      1342.3264
 -23250955.42649 -18093116.96946  18906398.4794   18906397.4514
      2900.7964
   -909092.69148   -706879.78944  20109404.7524   20109403.0454
     -1220.6404
 -17950979.43748 -13986275.51244  20665515.1504   20665512.4904
      1595.0984
 -16383668.26248 -12763353.54344  20476220.9474   20476220.0884
      4136.7524
 -14755422.91049 -11492880.32847  18909759.9474   18909758.3344
      1711.4534
 04  9  9 22 40 59.9940000  0  7G 3G10G 8G13G19G28G27
  -6286083.50446  -4898828.25842  22165632.4634   22165634.4904
      -759.3644
 -11165804.42248  -8694670.86742  21537546.2684   21537545.0884
      1333.6504
 -23294414.02749 -18126980.80146  18898128.4404   18898127.6704
      2897.2404
   -890703.25448   -692550.39544  20112903.8224   20112902.4364
     -1225.9624
 -17974773.17648 -14004816.08644  20660987.7444   20660984.8344
      1586.2494
 -16445656.05948 -12811655.67644  20464424.9944   20464423.5614
      4132.5204
 -14781047.62149 -11512847.62946  18904883.4404   18904882.0254
      1708.3144
 04  9  9 22 41 14.9940000  0  7G 3G10G 8G13G19G28G27
  -6274595.30546  -4889876.44942  22167819.6504   22167819.8464
      -765.8804
 -11185677.77748  -8710156.59043  21533764.3154   21533763.2364
      1324.8904
 -23337818.00049 -18160802.07446  18889869.3304   18889867.8074
      2893.5984
   -872233.09448   -678158.09844  20116418.6504   20116417.3734
     -1231.3444
 -17998432.85948 -14023252.19544  20656484.9164   20656482.3184
      1577.3124
 -16507578.96948 -12859907.28144  20452641.8224   20452640.2484
      4128.1944
 -14806623.95749 -11532777.24246  18900016.1434   18900014.8934
      1705.0894
 04  9  9 22 41 29.9940000  0  7G 3G10G 8G13G19G28G27
  -6263011.03146  -4880849.75042  22170023.6354   22170024.1904
      -772.2854
 -11205421.38747  -8725541.21542  21530006.8934   21530006.8774
      1316.2414
 -23381168.82049 -18194581.92646  18881619.8774   18881618.7174
      2890.0554
   -853683.91448   -663704.21544  20119948.4634   20119947.2294
     -1236.6124
 -18021959.85548 -14041584.91044  20652008.0494   20652005.0614
      1568.4664
 -16569438.40249 -12908109.40244  20440869.9794   20440869.0494
      4123.9624
 -14832153.23449 -11552670.18046  18895158.2214   18895156.7324
      1701.9524
 04  9  9 22 41 44.9940000  0  7G 3G10G 8G13G19G28G27
  -6251328.73446  -4871746.68042  22172246.8384   22172247.4434
      -778.8204
 -11225033.02747  -8740823.03943  21526274.9324   21526274.6474
      1307.4434
 -23424463.92649 -18228318.37146  18873380.9084   18873379.6434
      2886.3404
   -835053.60248   -649187.11344  20123493.9794   20123492.3974
     -1242.0214
 -18045351.92648 -14059812.50044  20647556.9714   20647553.7524
      1559.4714
 -16631232.08648 -12956260.31644  20429111.2294   20429109.6004
      4119.5794
 -14857633.19149 -11572524.69546  18890309.5494   18890308.3464
      1698.6644
 04  9  9 22 41 59.9940000  0  7G 3G10G 8G13G19G28G27
  -6239551.62146  -4862569.72742  22174488.1114   22174488.7094
      -785.1414
 -11244515.89148  -8756004.49242  21522567.3074   21522567.7874
      1298.8584
 -23467706.46149 -18262013.83646  18865152.6584   18865151.2094
      2882.8364
   -816345.29748   -634609.23444  20127054.0104   20127052.8074
     -1247.2204
 -18068611.97348 -14077937.19944  20643130.3544   20643127.5454
      1550.6704
 -16692962.89848 -13004362.21944  20417364.3934   20417363.1474
      4115.3874
 -14883066.69549 -11592343.00846  18885469.6354   18885468.4824
      1695.5674
 04  9  9 22 42 14.9940000  0  7G 3G10G 8G13G19G28G27
  -6227679.81646  -4853319.00442  22176747.1974   22176748.1904
      -791.4544
 -11263869.85948  -8771085.51642  21518885.0024   21518884.4404
      1290.2654
 -23510896.12549 -18295668.11746  18856933.4084   18856932.3224
      2879.3114
   -797559.05948   -619970.64144  20130628.7134   20130627.8934
     -1252.4164
 -18091739.88348 -14095958.93744  20638729.8304   20638726.1394
      1541.8614
 -16754630.43449 -13052414.82044  20405629.0334   20405628.4284
      4111.1694
 -14908453.41449 -11612124.86746  18880638.7294   18880637.2834
      1692.4484
 04  9  9 22 42 29.9940000  0  7G 3G10G 8G13G19G28G27
  -6215712.58647  -4843993.91442  22179025.1664   22179025.9404
      -797.8154
 -11283093.93448  -8786065.32443  21515227.0574   21515226.1864
      1281.6054
 -23554031.53149 -18329280.11346  18848725.3224   18848723.8034
      2875.6944
   -778694.05948   -605270.66844  20134218.5574   20134217.6824
     -1257.6674
 -18114734.50048 -14113876.82044  20634353.7444   20634350.3114
      1532.9744
 -16816233.47748 -13100417.17244  20393906.2834   20393905.2524
      4106.8704
 -14933792.32849 -11631869.47346  18875816.8224   18875815.8074
      1689.2614
 04  9  9 22 42 44.9940000  0  7G 3G10G 8G13G19G28G27
  -6203649.58247  -4834594.19142  22181320.7754   22181321.4594
      -804.2004
 -11302187.66848  -8800943.55943  21511593.3544   21511593.2444
      1272.9164
 -23597112.05149 -18362849.34446  18840527.0884   18840525.6474
      2872.0354
   -759750.03148   -590509.10544  20137823.1504   20137822.2954
     -1262.9354
 -18137595.22748 -14131690.35544  20630003.2294   20630000.4004
      1524.0484
 -16877771.43749 -13148368.80144  20382196.0724   20382195.2214
      4102.5314
 -14959082.64549 -11651576.21146  18871004.2054   18871003.2484
      1686.0214
 04  9  9 22 42 59.9940000  0  7G 3G10G 8G13G19G28G27
  -6191491.49646  -4825120.36742  22183633.4324   22183634.9324
      -810.5394
 -11321151.57047  -8815720.62542  21507984.3224   21507984.4364
      1264.2604
 -23640137.95349 -18396376.02046  18832339.5104   18832338.3614
      2868.3934
   -740727.53948   -575686.40644  20141443.2444   20141442.2524
     -1268.1664
 -18160322.41448 -14149399.85244  20625678.7364   20625675.2484
      1515.1464
 -16939244.50049 -13196269.85944  20370498.2524   20370497.6544
      4098.2044
 -14984324.73049 -11671245.37146  18866201.1274   18866199.8384
      1682.8064
 04  9  9 22 43 14.9940000  0  7G 3G10G 8G13G19G28G27
  -6179237.77747  -4815572.05142  22185965.7994   22185966.2364
      -816.9154
 -11339985.11347  -8830396.12143  21504400.3854   21504400.6934
      1255.5704
 -23683108.64549 -18429859.66446  18824162.7294   18824161.2754
      2864.7134
   -721626.06248   -560802.17644  20145078.0184   20145077.2874
     -1273.4324
 -18182915.37948 -14167004.75044  20621379.3614   20621376.0414
      1506.1984
 -17000651.95748 -13244119.80144  20358813.0574   20358811.8154
      4093.8304
 -15009517.75849 -11690876.29746  18861406.5104   18861405.2874
      1679.5354
 04  9  9 22 43 29.9940000  0  7G 3G10G 8G13G19G28G27
  -6166890.92247  -4805951.14842  22188315.3774   22188315.5804
      -823.1244
 -11358690.49248  -8844971.75843  21500841.1194   21500841.2014
      1247.0254
 -23726025.94949 -18463301.71546  18815995.7364   18815994.1744
      2861.1544
   -702448.00848   -545858.26644  20148727.5654   20148726.8034
     -1278.5374
 -18205376.18748 -14184506.66444  20617104.8384   20617101.4554
      1497.3874
 -17061995.87548 -13291920.22344  20347139.7054   20347138.4244
      4089.5954
 -15034663.79749 -11710470.61346  18856621.7294   18856620.1194
      1676.4034
 04  9  9 22 43 44.9940000  0  7G 3G10G 8G13G19G28G27
  -6154450.09447  -4796257.02042  22190683.2444   22190683.4944
      -829.3894
 -11377266.66447  -8859446.70343  21497306.5334   21497306.7134
      1238.4114
 -23768888.66049 -18496701.22346  18807838.8694   18807837.7874
      2857.5144
   -683192.28548   -530853.84844  20152392.0104   20152391.2914
     -1283.7154
 -18227703.51648 -14201904.57844  20612856.0884   20612852.8544
      1488.4894
 -17123274.82049 -13339670.03544  20335478.4794   20335476.6354
      4085.2634
 -15059761.54748 -11730027.30146  18851845.7524   18851844.0684
      1673.1834
 04  9  9 22 43 59.9940000  0  7G 3G10G 8G13G19G28G27
  -6141914.50447  -4786489.05542  22193068.0574   22193068.9754
      -835.7064
 -11395712.72347  -8873820.25843  21493795.8614   21493797.2484
      1229.7374
 -23811695.79749 -18530057.42646  18799693.3304   18799691.8504
      2853.8094
   -663858.15248   -515788.31644  20156071.1274   20156070.6114
     -1288.9424
 -18249896.44948 -14219197.77344  20608633.0334   20608630.2094
      1479.5294
 -17184487.88349 -13387368.50444  20323829.9794   20323828.4404
      4080.8714
 -15084809.86349 -11749545.46946  18847079.3154   18847078.0144
      1669.8884
 04  9  9 22 44 14.9940000  0  7G 3G10G 8G13G19G28G27
  -6129285.64147  -4776648.39142  22195471.9404   22195471.7794
      -841.9244
 -11414029.90647  -8888093.37943  21490310.0654   21490311.3504
      1221.1464
 -23854448.34049 -18563371.09446  18791557.7604   18791556.2914
      2850.1704
   -644446.98448   -500662.77044  20159764.9794   20159764.0724
     -1294.0784
 -18271956.16448 -14236387.15244  20604434.8614   20604432.2604
      1470.6484
 -17245635.94948 -13435016.31644  20312194.1044   20312192.6394
      4076.5384
 -15109809.83649 -11769025.96546  18842321.9474   18842320.6584
      1666.6654
 04  9  9 22 44 29.9940000  0  7G 3G10G 8G13G19G28G27
  -6116563.41847  -4766734.97742  22197892.3154   22197893.3774
      -848.1484
 -11432218.10947  -8902266.02742  21486849.4714   21486849.8034
      1212.5474
 -23897145.63349 -18596641.70346  18783432.7834   18783431.2174
      2846.4864
   -624958.67648   -485477.10544  20163473.6274   20163472.0104
     -1299.2214
 -18293882.38348 -14253472.50444  20600262.9084   20600259.7174
      1461.7484
 -17306718.46548 -13482613.07044  20300570.0254   20300568.6664
      4072.1684
 -15134761.13749 -11788468.53546  18837573.5964   18837572.6274
      1663.4204
 04  9  9 22 44 44.9940000  0  7G 3G10G 8G13G19G28G27
  -6103746.27047  -4756747.62142  22200331.6434   22200331.9244
      -854.4774
 -11450275.47347  -8916336.72343  21483413.1194   21483413.3384
      1203.8244
 -23939785.77749 -18629867.78546  18775318.6194   18775317.4204
      2842.6764
   -605391.64148   -470230.08644  20167196.8154   20167195.6234
     -1304.4694
 -18315673.07048 -14270452.25444  20596115.8934   20596113.0844
      1452.7134
 -17367733.62549 -13530157.32444  20288959.3694   20288957.8814
      4067.6774
 -15159661.65649 -11807871.53946  18832835.2214   18832834.0064
      1660.0354
 04  9  9 22 44 59.9940000  0  7G 3G10G 8G13G19G28G27
  -6090836.55947  -4746688.12542  22202788.4324   22202788.3774
      -860.6474
 -11468204.36747  -8930307.26242  21480001.3774   21480001.1274
      1195.2604
 -23982370.91449 -18663051.00846  18767214.7834   18767213.4984
      2839.0094
   -585748.18748   -454923.53144  20170935.1044   20170933.4324
     -1309.5644
 -18337330.34848 -14287328.05144  20591994.9864   20591992.0454
      1443.8184
 -17428683.41448 -13577650.63744  20277361.1354   20277359.4244
      4063.3194
 -15184513.47749 -11827236.59046  18828106.0574   18828105.0064
      1656.7884
 04  9  9 22 45 14.9940000  0  7G 3G10G 8G13G19G28G27
  -6077834.73847  -4736556.83642  22205263.0884   22205262.0884
      -866.7884
 -11486005.04748  -8944177.94542  21476614.2214   21476614.4004
      1186.7124
 -24024901.12549 -18696191.41846  18759121.6504   18759120.4124
      2835.3474
   -566028.72748   -439557.74244  20174687.7134   20174686.4904
     -1314.6314
 -18358854.47348 -14304100.10244  20587898.9404   20587896.1974
      1434.9424
 -17489567.95349 -13625093.10944  20265774.7604   20265773.4044
      4058.9694
 -15209316.73049 -11846563.79746  18823386.1584   18823384.6704
      1653.5504
 04  9  9 22 45 29.9940000  0  7G 3G10G 8G13G19G28G27
  -6064739.14546  -4726352.49242  22207754.2994   22207754.4514
      -873.0404
 -11503675.59047  -8957947.18743  21473251.0654   21473251.2254
      1178.0364
 -24067374.21549 -18729287.32046  18751039.2754   18751037.9324
      2831.5394
   -546231.37148   -424131.27744  20178455.4864   20178453.6314
     -1319.8244
 -18380243.27048 -14320766.68044  20583829.0104   20583825.9904
      1425.9204
 -17550385.05148 -13672483.04344  20254201.9634   20254200.2444
      4054.4734
 -15234069.27749 -11865851.49246  18818676.2134   18818674.3154
      1650.1704
 04  9  9 22 45 44.9940000  0  7G 3G10G 8G13G19G28G27
  -6051550.29347  -4716075.48042  22210264.2754   22210264.3154
      -879.2574
 -11521216.46147  -8971615.40243  21469912.9714   21469913.5224
      1169.3914
 -24109790.43749 -18762338.91446  18742967.6824   18742966.1784
      2827.7484
   -526356.70348   -408644.54344  20182237.0804   20182235.6274
     -1324.9784
 -18401497.13348 -14337328.13344  20579784.6504   20579781.5454
      1416.9244
 -17611134.97748 -13719820.61344  20242641.7524   20242640.0884
      4049.9954
 -15258771.42649 -11885099.92646  18813975.8544   18813973.9244
      1646.8104
 04  9  9 22 45 59.9940000  0  7G 3G10G 8G13G19G28G27
  -6038270.72346  -4705727.79742  22212791.1584   22212791.2324
      -885.3054
 -11538629.85947  -8985184.30142  21466599.5334   21466599.9944
      1160.8934
 -24152152.01649 -18795347.93046  18734906.5884   18734904.9324
      2824.1054
   -506407.09448   -393099.43044  20186033.2604   20186032.4044
     -1329.9744
 -18422618.21148 -14353786.10544  20575765.2604   20575762.1664
      1408.0724
 -17671819.71948 -13767107.41444  20231093.7754   20231091.8264
      4045.6494
 -15283425.10949 -11904310.58646  18809284.0104   18809282.2484
      1643.5794
 04  9  9 22 46 14.9940000  0  7G 3G10G 8G13G19G28G27
  -6024899.64846  -4695308.80942  22215336.2134   22215336.0924
      -891.4054
 -11555915.07847  -8998653.31242  21463310.6504   21463309.5224
      1152.3484
 -24194457.56649 -18828313.28946  18726856.3464   18726854.6004
      2820.3704
   -486381.84848   -377495.38344  20189843.5884   20189842.8894
     -1335.0164
 -18443605.48448 -14370139.82844  20571771.7994   20571768.6004
      1399.1524
 -17732438.21948 -13814342.58644  20219558.4404   20219557.0494
      4041.2334
 -15308029.23449 -11923482.62546  18804602.0964   18804600.2254
      1640.2754
 04  9  9 22 46 29.9940000  0  7G 3G10G 8G13G19G28G27
  -6011436.98446  -4684818.41442  22217897.9864   22217898.5334
      -897.5114
 -11573071.68747  -9012022.08642  21460046.1744   21460044.7914
      1143.7744
 -24236706.42249 -18861234.46146  18718816.4324   18718814.6314
      2816.5904
   -466280.75048   -361832.22344  20193669.3464   20193668.5224
     -1340.0734
 -18464458.51648 -14386388.94144  20567803.0574   20567800.4594
      1390.2024
 -17792989.93048 -13861525.72744  20208035.9324   20208034.2684
      4036.7814
 -15332583.37949 -11942615.72346  18799929.6664   18799927.7794
      1636.9434
 04  9  9 22 46 44.9940000  0  7G 3G10G 8G13G19G28G27
  -5997882.52046  -4674256.53942  22220476.1904   22220477.6974
      -903.6314
 -11590099.46148  -9025290.49242  21456806.0024   21456804.0064
      1135.1854
 -24278898.27349 -18894111.22746  18710787.7364   18710785.7324
      2812.7904
   -446103.54348   -346109.74244  20197508.3694   20197507.8264
     -1345.1474
 -18485176.90648 -14402533.14144  20563860.5334   20563858.1004
      1381.2264
 -17853474.38748 -13908656.44544  20196526.2134   20196524.6044
      4032.2974
 -15357087.08249 -11961709.52046  18795266.6584   18795264.9364
      1633.5804
 04  9  9 22 46 59.9940000  0  7G 3G10G 8G13G19G28G27
  -5984237.80946  -4663624.33242  22223073.5804   22223074.5924
      -909.6474
 -11606999.71147  -9038459.55142  21453589.7294   21453588.3504
      1126.6834
 -24321034.35549 -18926944.53146  18702769.4474   18702767.9984
      2809.0724
   -425851.66048   -330329.09444  20201362.2524   20201362.0724
     -1350.1264
 -18505761.88748 -14418573.37944  20559943.2754   20559940.2604
      1372.3324
 -17913892.69548 -13955735.62944  20185028.9164   20185027.5414
      4027.8874
 -15381541.23849 -11980764.69946  18790613.1584   18790611.9434
      1630.2774
 04  9  9 22 47 14.9940000  0  7G 3G10G 8G13G19G28G27
  -5970502.91846  -4652921.86742  22225687.2524   22225687.5294
      -915.6594
 -11623772.33248  -9051529.13743  21450398.1504   21450397.1394
      1118.1754
 -24363114.17249 -18959733.99246  18694761.7994   18694760.2994
      2805.3214
   -405525.13748   -314490.27044  20205230.6354   20205230.1474
     -1355.1024
 -18526213.18748 -14434509.45344  20556051.6584   20556048.4904
      1363.4204
 -17974244.48448 -14002762.96944  20173544.3934   20173542.7134
      4023.4534
 -15405945.68749 -11999781.16046  18785969.1974   18785967.9904
      1626.9634
 04  9  9 22 47 29.9940000  0  7G 3G10G 8G13G19G28G27
  -5956677.82446  -4642149.10542  22228318.2754   22228318.9904
      -921.6734
 -11640417.25847  -9064499.21942  21447230.5104   21447229.6314
      1109.6624
 -24405137.24649 -18992479.23846  18686764.9324   18686763.4554
      2801.5384
   -385124.02048   -298593.33244  20209112.9944   20209112.0534
     -1360.0744
 -18546530.47348 -14450341.10244  20552185.2524   20552182.2404
      1354.4864
 -18034529.35548 -14049738.17644  20162072.4794   20162070.7014
      4018.9914
 -15430299.97749 -12018758.53146  18781334.3694   18781333.3344
      1623.6194
 04  9  9 22 47 44.9940000  0  7G 3G10G 8G13G19G28G27
  -5942762.17246  -4631305.78942  22230966.2524   22230967.1744
      -927.7104
 -11656933.92648  -9077369.34442  21444087.7524   21444087.2174
      1101.1114
 -24447102.97749 -19025179.79746  18678779.1194   18678777.9284
      2797.7154
   -364647.87148   -282637.93044  20213009.1584   20213008.9634
     -1365.0774
 -18566713.11348 -14466067.83644  20548344.2604   20548341.4514
      1345.5094
 -18094746.57848 -14096660.66444  20150612.9404   20150611.6704
      4014.4824
 -15454603.34849 -12037696.22346  18776709.7364   18776708.5334
      1620.2254
 04  9  9 22 47 59.9940000  0  6G10G 8G13G19G28G27
 -11673322.92248  -9090140.02043  21440968.8614   21440968.6784
      1092.6004
 -24489011.50449 -19057835.78946  18670804.2994   18670802.9944
      2793.9024
   -344097.18448   -266624.44144  20216919.9004   20216919.2994
     -1370.0464
 -18586761.45748 -14481689.91844  20544529.6744   20544526.4124
      1336.5564
 -18154896.39849 -14143530.63344  20139167.2604   20139165.8934
      4009.9884
 -15478856.16849 -12056594.53146  18772094.7214   18772093.4004
      1616.8554
 04  9  9 22 48 14.9940000  0  6G10G 8G13G19G28G27
 -11689585.05547  -9102811.81642  21437874.3774   21437873.8814
      1084.1424
 -24530863.50449 -19090447.73046  18662840.0724   18662838.9474
      2790.1334
   -323472.89548   -250553.59844  20220844.1584   20220844.0684
     -1374.9534
 -18606676.35548 -14497208.01244  20540739.8074   20540736.5964
      1327.6604
 -18214979.50048 -14190348.60544  20127733.6114   20127732.3184
      4005.5404
 -15503059.07849 -12075453.93046  18767489.4164   18767488.0804
      1613.5274
 04  9  9 22 48 29.9940000  0  6G10G 8G13G19G28G27
 -11705718.69147  -9115383.49243  21434803.7294   21434803.9674
      1075.5764
 -24572657.06649 -19123014.13347  18654887.0804   18654885.6784
      2786.2384
   -302773.39848   -234424.14844  20224783.6194   20224783.0964
     -1379.9664
 -18626455.92248 -14512620.67244  20536976.3154   20536972.7724
      1318.6384
 -18274993.87549 -14237113.02744  20116313.2914   20116312.0844
      4000.9584
 -15527209.98849 -12094272.82846  18762893.5104   18762892.0684
      1610.0614
 04  9  9 22 48 44.9940000  0  6G10G 8G13G19G28G27
 -11721721.84847  -9127853.48042  21431758.9554   21431758.8774
      1066.8774
 -24614389.96149 -19155533.26246  18646945.4554   18646944.1904
      2782.1934
   -281996.78548   -218234.62144  20228737.5334   20228736.9514
     -1385.1084
 -18646098.09848 -14527926.24644  20533238.0104   20533235.0334
      1309.4784
 -18334937.38348 -14283822.23044  20104906.6044   20104904.8074
      3996.2344
 -15551306.84849 -12113049.59446  18758307.7684   18758306.4244
      1606.4574
 04  9  9 22 48 59.9940000  0  6G10G 8G13G19G28G27
 -11737591.96547  -9140219.81243  21428738.1044   21428739.2214
      1058.0084
 -24656059.60549 -19188003.11347  18639016.2214   18639014.8264
      2777.9764
   -261140.78948   -201983.22344  20232705.9554   20232705.6864
     -1390.4004
 -18665600.18748 -14543122.69144  20529526.5334   20529524.2834
      1300.1394
 -18394807.36748 -14330474.12945  20093513.4864   20093512.0144
      3991.3324
 -15575346.96149 -12131782.14846  18753733.0494   18753731.6784
      1602.6744
 04  9  9 22 49 14.9940000  0  6G10G 8G13G19G28G27
 -11753330.19547  -9152483.38342  21425743.4794   21425743.9824
      1049.2154
 -24697666.60549 -19220424.14147  18631098.5184   18631097.2914
      2773.8004
   -240206.48448   -185670.81244  20236690.2914   20236689.2754
     -1395.6204
 -18684963.14848 -14558210.71544  20525842.0804   20525839.3544
      1290.8644
 -18454604.52048 -14377069.29344  20082134.5254   20082133.2404
      3986.4774
 -15599331.05149 -12150471.05946  18749168.8854   18749167.5454
      1598.9394
 04  9  9 22 49 29.9940000  0  6G10G 8G13G19G28G27
 -11768936.76247  -9164644.34042  21422773.4404   21422774.2604
      1040.4384
 -24739210.95349 -19252796.35246  18623192.8224   18623191.6704
      2769.6234
   -219194.14148   -169297.59044  20240688.4714   20240688.4164
     -1400.8234
 -18704187.19148 -14573190.48844  20522184.4944   20522181.1154
      1281.6034
 -18514328.89148 -14423607.72744  20070769.4794   20070767.5454
      3981.6254
 -15623259.19149 -12169116.35246  18744616.1274   18744614.1044
      1595.2094
 04  9  9 22 49 44.9940000  0  6G10G 8G13G19G28G27
 -11784410.04747  -9176701.45743  21419829.0334   21419830.0534
      1031.5524
 -24780690.90249 -19285118.37547  18615299.1904   18615297.8894
      2765.3304
   -198102.36348   -152862.46544  20244701.8154   20244701.3654
     -1406.1184
 -18723270.49648 -14588060.59044  20518552.8304   20518549.8694
      1272.2204
 -18573978.62548 -14470088.02044  20059418.2604   20059416.4864
      3976.6494
 -15647129.39149 -12187716.51646  18740073.2834   18740072.1904
      1591.3474
 04  9  9 22 49 59.9940000  0  6G10G 8G13G19G28G27
 -11799750.76647  -9188655.27743  21416910.1114   21416909.9164
      1022.7154
 -24822106.90649 -19317390.58646  18607418.6664   18607417.1004
      2761.0674
   -176931.93448   -136366.05544  20248730.5414   20248730.2214
     -1411.3624
 -18742213.52348 -14602821.38744  20514948.5254   20514945.0804
      1262.8684
 -18633554.23048 -14516510.54344  20048081.1974   20048079.9904
      3971.7074
 -15670942.29349 -12206272.02046  18735541.7444   18735540.5534
      1587.5274
 04  9  9 22 50 14.9940000  0  6G10G 8G13G19G28G27
 -11814962.07047  -9200508.25442  21414016.0654   21414014.7684
      1014.0874
 -24863461.77049 -19349615.14846  18599548.4634   18599547.3184
      2756.9914
   -155686.02748   -119810.84444  20252774.1354   20252772.8774
     -1416.3944
 -18761019.35548 -14617475.27344  20511369.5184   20511366.7684
      1253.7224
 -18693058.56248 -14562877.53545  20036758.2684   20036756.1664
      3966.9554
 -15694700.70749 -12224785.07046  18731020.9324   18731019.4634
      1583.8944
 04  9  9 22 50 29.9940000  0  6G10G 8G13G19G28G27
 -11830044.14847  -9212260.52343  21411145.4714   21411145.0964
      1005.4724
 -24904755.48449 -19381792.06246  18591690.9404   18591689.7134
      2752.9144
   -134364.97348   -103197.06644  20256831.2214   20256830.2014
     -1421.4044
 -18779688.10548 -14632022.35944  20507817.0884   20507814.0534
      1244.5834
 -18752491.63348 -14609188.98444  20025448.0964   20025447.0454
      3962.2054
 -15718404.64849 -12243255.68046  18726510.1824   18726508.9004
      1580.2634
 04  9  9 22 50 44.9940000  0  6G10G 8G13G19G28G27
 -11844996.99247  -9223912.09442  21408300.1824   21408300.1544
       996.8564
 -24945987.68749 -19413921.05946  18583844.4864   18583843.4324
      2748.8144
   -112968.85548    -86524.80144  20260902.4244   20260901.8154
     -1426.4084
 -18798219.70748 -14646462.57444  20504290.4164   20504287.4404
      1235.4404
 -18811853.13749 -14655444.68045  20014152.1044   20014150.8734
      3957.4344
 -15742053.77749 -12261683.57846  18722009.8074   18722008.7524
      1576.6094
 04  9  9 22 50 59.9940000  0  6G10G 8G13G19G28G27
 -11859820.74247  -9235463.09442  21405479.4794   21405479.1584
       988.2504
 -24987158.31649 -19446002.06247  18576010.1114   18576008.9594
      2744.7094
    -91497.85948    -69794.18744  20264988.3774   20264987.6234
     -1431.4004
 -18816614.06648 -14660795.84044  20500790.0654   20500787.1904
      1226.2914
 -18871143.00848 -14701644.55145  20002869.6504   20002868.3574
      3952.6584
 -15765648.05549 -12280068.72747  18717520.0574   18717518.6004
      1572.9524
 04  9  9 22 51 14.9940000  0  6G10G 8G13G19G28G27
 -11874515.52747  -9246913.57842  21402682.7054   21402682.2724
       979.6524
 -25028267.23049 -19478034.96546  18568187.4244   18568186.3934
      2740.5944
    -69952.12948    -53005.34044  20269088.4244   20269086.9904
     -1436.3824
 -18834871.11748 -14675022.10544  20497316.0724   20497312.9824
      1217.1374
 -18930361.00848 -14747788.42644  19991600.7364   19991599.0104
      3947.8674
 -15789187.31649 -12298411.01246  18713040.5254   18713039.3974
      1569.2844
 04  9  9 22 51 29.9940000  0  6G10G 8G13G19G28G27
 -11889082.69547  -9258264.63342  21399910.5104   21399909.9004
       971.1454
 -25069315.48049 -19510020.61747  18560376.1354   18560375.1504
      2736.5504
    -48333.16048    -36159.41844  20273201.7294   20273201.3344
     -1441.2654
 -18852992.13348 -14689142.37944  20493867.6354   20493864.9324
      1208.0684
 -18989508.28548 -14793877.19144  19980345.0334   19980343.4514
      3943.1524
 -15812672.63349 -12316711.25846  18708571.5494   18708570.1474
      1565.6884
 04  9  9 22 51 44.9940000  0  6G10G 8G13G19G28G27
 -11903522.24647  -9269516.23042  21397162.9554   21397162.5104
       962.6374
 -25110302.89849 -19541958.85547  18552576.5574   18552575.1314
      2732.4954
    -26641.05948    -19256.50043  20277330.0884   20277329.5494
     -1446.1404
 -18870976.85548 -14703156.44145  20490445.0254   20490442.4634
      1198.9824
 -19048584.62148 -14839910.67244  19969103.6824   19969102.1584
      3938.4224
 -15836103.77049 -12334969.28546  18704112.6194   18704111.9044
      1562.0764
 04  9  9 22 51 59.9940000  0  6G10G 8G13G19G28G27
 -11917835.29347  -9280669.26643  21394439.5964   21394439.2094
       954.2034
 -25151230.16849 -19573850.22747  18544788.2834   18544787.0534
      2728.4854
     -4876.92648     -2297.47744  20281472.0884   20281470.7644
     -1450.9424
 -18888826.43448 -14717065.21144  20487048.5184   20487045.7054
      1189.9724
 -19107590.93048 -14885889.59444  19957874.9004   19957873.6274
      3933.7544
 -15859481.57849 -12353185.76646  18699663.8224   18699662.4674
      1558.5214
 04  9  9 22 52 14.9940000  0  6G10G 8G13G19G28G27
 -11932019.91847  -9291722.21142  21391740.4554   21391739.8034
       945.6424
 -25192094.93449 -19605692.89546  18537011.9794   18537010.4324
      2724.3184
     16961.20348     14719.20344  20285627.6114   20285626.9794
     -1455.8754
 -18906538.66848 -14730866.94544  20483677.7054   20483675.7364
      1180.8164
 -19166524.86348 -14931812.11744  19946660.2294   19946658.8614
      3928.9294
 -15882803.79749 -12371358.91446  18695226.0334   18695224.3184
      1554.8154
 04  9  9 22 52 29.9930000  0  6G10G 8G13G19G28G27
 -11946076.11347  -9302675.09043  21389065.4034   21389065.4464
       937.0804
 -25232895.41449 -19637485.47746  18529247.5444   18529246.7784
      2720.0324
     38870.74248     31791.54744  20289796.7474   20289796.3254
     -1460.6364
 -18924113.19948 -14744561.39544  20480333.7474   20480330.8454
      1171.6354
 -19225383.25048 -14977675.76644  19935460.1144   19935458.5014
      3923.8924
 -15906069.57049 -12389488.09846  18690798.8574   18690797.0364
      1551.0524
